Wetterdaten: Montag, 21.04.2025
Datum Zeit Temp. I. Temp. A. Feuchte I. Feuchte A. Luftdruck Regen Wind Richtung Richtung Sonnenschein Solar Taupunkt Windchill Windböen
21.04.2025 00:00 23,4 °C 12,9 °C 49 % 92 % 1008,6 hPa 0,0 l/m² 2,7 km/h (1 Bft) SW 227 ° 0 min 0 W/m² 11,6 °C 12,9 °C 4,8 km/h (1 Bft)
21.04.2025 00:03 23,4 °C 12,8 °C 49 % 93 % 1008,5 hPa 0,2 l/m² 3,4 km/h (1 Bft) SW 227 ° 0 min 0 W/m² 11,7 °C 12,8 °C 4,8 km/h (1 Bft)
21.04.2025 00:05 23,4 °C 12,8 °C 49 % 93 % 1008,6 hPa 0,0 l/m² 3,4 km/h (1 Bft) S-SO 159 ° 0 min 0 W/m² 11,7 °C 12,8 °C 6,4 km/h (2 Bft)
21.04.2025 00:07 23,4 °C 12,8 °C 49 % 93 % 1008,6 hPa 0,0 l/m² 3,2 km/h (1 Bft) S-SO 158 ° 0 min 0 W/m² 11,7 °C 12,8 °C 6,4 km/h (2 Bft)
21.04.2025 00:09 23,4 °C 12,8 °C 49 % 93 % 1008,7 hPa 0,2 l/m² 3,0 km/h (1 Bft) S-SO 159 ° 0 min 0 W/m² 11,7 °C 12,8 °C 4,8 km/h (1 Bft)
21.04.2025 00:11 23,4 °C 12,8 °C 49 % 93 % 1008,7 hPa 0,0 l/m² 3,8 km/h (1 Bft) S-SO 157 ° 0 min 0 W/m² 11,7 °C 12,8 °C 8,0 km/h (2 Bft)
21.04.2025 00:12 23,4 °C 12,8 °C 49 % 93 % 1008,7 hPa 0,0 l/m² 5,7 km/h (2 Bft) S-SO 159 ° 0 min 0 W/m² 11,7 °C 12,8 °C 8,0 km/h (2 Bft)
21.04.2025 00:14 23,4 °C 12,8 °C 49 % 93 % 1008,8 hPa 0,0 l/m² 7,6 km/h (2 Bft) S-SO 167 ° 0 min 0 W/m² 11,7 °C 12,0 °C 9,7 km/h (2 Bft)
21.04.2025 00:16 23,3 °C 12,8 °C 49 % 93 % 1008,8 hPa 0,0 l/m² 8,1 km/h (2 Bft) S-SO 165 ° 0 min 0 W/m² 11,7 °C 11,7 °C 11,3 km/h (2 Bft)
21.04.2025 00:18 23,3 °C 12,9 °C 49 % 93 % 1008,9 hPa 0,2 l/m² 7,4 km/h (2 Bft) S-SO 165 ° 0 min 0 W/m² 11,8 °C 12,3 °C 11,3 km/h (2 Bft)
21.04.2025 00:20 23,3 °C 12,9 °C 49 % 93 % 1008,9 hPa 0,0 l/m² 5,8 km/h (2 Bft) S-SO 154 ° 0 min 0 W/m² 11,8 °C 12,9 °C 8,0 km/h (2 Bft)
21.04.2025 00:21 23,3 °C 12,9 °C 49 % 93 % 1008,9 hPa 0,2 l/m² 4,4 km/h (1 Bft) S-SO 154 ° 0 min 0 W/m² 11,8 °C 12,9 °C 6,4 km/h (2 Bft)
21.04.2025 00:23 23,4 °C 12,9 °C 49 % 93 % 1009,0 hPa 0,2 l/m² 5,7 km/h (2 Bft) SO 135 ° 0 min 0 W/m² 11,8 °C 12,9 °C 8,0 km/h (2 Bft)
21.04.2025 00:25 23,3 °C 12,9 °C 49 % 93 % 1009,0 hPa 0,0 l/m² 6,1 km/h (2 Bft) SO 145 ° 0 min 0 W/m² 11,8 °C 12,9 °C 11,3 km/h (2 Bft)
21.04.2025 00:26 23,3 °C 12,9 °C 49 % 93 % 1009,1 hPa 0,2 l/m² 5,7 km/h (2 Bft) S-SO 155 ° 0 min 0 W/m² 11,8 °C 12,9 °C 8,0 km/h (2 Bft)
21.04.2025 00:27 23,3 °C 12,9 °C 49 % 93 % 1009,1 hPa 0,0 l/m² 6,5 km/h (2 Bft) S-SO 153 ° 0 min 0 W/m² 11,8 °C 12,9 °C 9,7 km/h (2 Bft)
21.04.2025 00:28 23,3 °C 12,9 °C 49 % 93 % 1009,1 hPa 0,0 l/m² 7,6 km/h (2 Bft) SO 146 ° 0 min 0 W/m² 11,8 °C 12,1 °C 9,7 km/h (2 Bft)
21.04.2025 00:29 23,3 °C 12,9 °C 49 % 93 % 1009,0 hPa 0,0 l/m² 6,6 km/h (2 Bft) SO 139 ° 0 min 0 W/m² 11,8 °C 12,8 °C 9,7 km/h (2 Bft)
21.04.2025 00:30 23,4 °C 12,9 °C 49 % 93 % 1009,1 hPa 0,2 l/m² 5,9 km/h (2 Bft) SO 144 ° 0 min 0 W/m² 11,8 °C 12,9 °C 8,0 km/h (2 Bft)
21.04.2025 00:31 23,3 °C 12,9 °C 49 % 93 % 1009,2 hPa 0,0 l/m² 6,7 km/h (2 Bft) SO 142 ° 0 min 0 W/m² 11,8 °C 12,7 °C 8,0 km/h (2 Bft)
21.04.2025 00:33 23,3 °C 12,9 °C 49 % 93 % 1009,2 hPa 0,0 l/m² 5,8 km/h (2 Bft) S-SO 153 ° 0 min 0 W/m² 11,8 °C 12,9 °C 9,7 km/h (2 Bft)
21.04.2025 00:34 23,3 °C 12,9 °C 49 % 93 % 1009,2 hPa 0,2 l/m² 5,5 km/h (2 Bft) S-SO 150 ° 0 min 0 W/m² 11,8 °C 12,9 °C 8,0 km/h (2 Bft)
21.04.2025 00:35 23,3 °C 12,9 °C 49 % 93 % 1009,2 hPa 0,0 l/m² 7,6 km/h (2 Bft) S-SO 161 ° 0 min 0 W/m² 11,8 °C 12,1 °C 9,7 km/h (2 Bft)
21.04.2025 00:36 23,3 °C 12,9 °C 49 % 93 % 1009,2 hPa 0,0 l/m² 5,4 km/h (2 Bft) S-SO 160 ° 0 min 0 W/m² 11,8 °C 12,9 °C 9,7 km/h (2 Bft)
21.04.2025 00:37 23,3 °C 12,9 °C 49 % 93 % 1009,2 hPa 0,0 l/m² 6,3 km/h (2 Bft) S-SO 153 ° 0 min 0 W/m² 11,8 °C 12,9 °C 9,7 km/h (2 Bft)
21.04.2025 00:38 23,3 °C 12,9 °C 49 % 93 % 1009,2 hPa 0,0 l/m² 4,2 km/h (1 Bft) S-SO 155 ° 0 min 0 W/m² 11,8 °C 12,9 °C 6,4 km/h (2 Bft)
21.04.2025 00:39 23,3 °C 12,8 °C 49 % 93 % 1009,2 hPa 0,0 l/m² 4,2 km/h (1 Bft) S-SO 155 ° 0 min 0 W/m² 11,7 °C 12,8 °C 4,8 km/h (1 Bft)
21.04.2025 00:41 23,3 °C 12,8 °C 49 % 93 % 1009,2 hPa 0,0 l/m² 4,3 km/h (1 Bft) S-SO 159 ° 0 min 0 W/m² 11,7 °C 12,8 °C 9,7 km/h (2 Bft)
21.04.2025 00:43 23,3 °C 12,8 °C 49 % 93 % 1009,2 hPa 0,0 l/m² 5,9 km/h (2 Bft) S-SO 166 ° 0 min 0 W/m² 11,7 °C 12,8 °C 11,3 km/h (2 Bft)
21.04.2025 00:44 23,3 °C 12,8 °C 49 % 93 % 1009,2 hPa 0,0 l/m² 4,8 km/h (1 Bft) S 173 ° 0 min 0 W/m² 11,7 °C 12,8 °C 9,7 km/h (2 Bft)
21.04.2025 00:45 23,3 °C 12,8 °C 49 % 93 % 1009,2 hPa 0,2 l/m² 7,1 km/h (2 Bft) S 173 ° 0 min 0 W/m² 11,7 °C 12,4 °C 9,7 km/h (2 Bft)
21.04.2025 00:46 23,3 °C 12,8 °C 49 % 93 % 1009,2 hPa 0,0 l/m² 6,6 km/h (2 Bft) S-SO 167 ° 0 min 0 W/m² 11,7 °C 12,7 °C 11,3 km/h (2 Bft)
21.04.2025 00:47 23,3 °C 12,8 °C 49 % 93 % 1009,1 hPa 0,0 l/m² 4,5 km/h (1 Bft) S-SO 164 ° 0 min 0 W/m² 11,7 °C 12,8 °C 8,0 km/h (2 Bft)
21.04.2025 00:48 23,3 °C 12,8 °C 49 % 93 % 1009,1 hPa 0,0 l/m² 2,5 km/h (1 Bft) S-SO 164 ° 0 min 0 W/m² 11,7 °C 12,8 °C 3,2 km/h (1 Bft)
21.04.2025 00:49 23,3 °C 12,8 °C 49 % 93 % 1009,1 hPa 0,0 l/m² 3,0 km/h (1 Bft) S-SO 164 ° 0 min 0 W/m² 11,7 °C 12,8 °C 6,4 km/h (2 Bft)
21.04.2025 00:51 23,3 °C 12,8 °C 49 % 93 % 1009,0 hPa 0,0 l/m² 2,0 km/h (1 Bft) S-SO 164 ° 0 min 0 W/m² 11,7 °C 12,8 °C 6,4 km/h (2 Bft)
21.04.2025 00:53 23,3 °C 12,8 °C 49 % 93 % 1009,0 hPa 0,0 l/m² 2,5 km/h (1 Bft) S-SO 164 ° 0 min 0 W/m² 11,7 °C 12,8 °C 6,4 km/h (2 Bft)
21.04.2025 00:54 23,3 °C 12,8 °C 49 % 93 % 1009,0 hPa 0,0 l/m² 2,3 km/h (1 Bft) S-SO 164 ° 0 min 0 W/m² 11,7 °C 12,8 °C 3,2 km/h (1 Bft)
21.04.2025 00:55 23,3 °C 12,7 °C 49 % 93 % 1008,9 hPa 0,0 l/m² 2,9 km/h (1 Bft) S-SO 164 ° 0 min 0 W/m² 11,6 °C 12,7 °C 6,4 km/h (2 Bft)
21.04.2025 00:56 23,3 °C 12,7 °C 49 % 93 % 1008,9 hPa 0,0 l/m² 3,3 km/h (1 Bft) S-SO 164 ° 0 min 0 W/m² 11,6 °C 12,7 °C 6,4 km/h (2 Bft)
21.04.2025 00:57 23,3 °C 12,7 °C 49 % 93 % 1009,0 hPa 0,0 l/m² 3,4 km/h (1 Bft) S-SO 164 ° 0 min 0 W/m² 11,6 °C 12,7 °C 6,4 km/h (2 Bft)
21.04.2025 00:58 23,3 °C 12,7 °C 49 % 93 % 1008,9 hPa 0,0 l/m² 3,6 km/h (1 Bft) S-SO 164 ° 0 min 0 W/m² 11,6 °C 12,7 °C 6,4 km/h (2 Bft)
21.04.2025 00:59 23,3 °C 12,7 °C 49 % 93 % 1008,9 hPa 0,0 l/m² 2,3 km/h (1 Bft) S-SO 164 ° 0 min 0 W/m² 11,6 °C 12,7 °C 6,4 km/h (2 Bft)
21.04.2025 01:00 23,3 °C 12,7 °C 49 % 93 % 1008,9 hPa 0,0 l/m² 4,2 km/h (1 Bft) S-SO 164 ° 0 min 0 W/m² 11,6 °C 12,7 °C 6,4 km/h (2 Bft)
21.04.2025 01:02 23,3 °C 12,7 °C 49 % 93 % 1008,9 hPa 0,0 l/m² 4,3 km/h (1 Bft) S-SO 164 ° 0 min 0 W/m² 11,6 °C 12,7 °C 8,0 km/h (2 Bft)
21.04.2025 01:03 23,3 °C 12,6 °C 49 % 93 % 1008,8 hPa 0,0 l/m² 5,0 km/h (1 Bft) S-SO 163 ° 0 min 0 W/m² 11,5 °C 12,6 °C 8,0 km/h (2 Bft)
21.04.2025 01:04 23,3 °C 12,6 °C 49 % 93 % 1008,8 hPa 0,0 l/m² 5,2 km/h (1 Bft) S-SO 161 ° 0 min 0 W/m² 11,5 °C 12,6 °C 6,4 km/h (2 Bft)
21.04.2025 01:05 23,3 °C 12,6 °C 49 % 93 % 1008,8 hPa 0,0 l/m² 4,6 km/h (1 Bft) S-SO 159 ° 0 min 0 W/m² 11,5 °C 12,6 °C 8,0 km/h (2 Bft)
21.04.2025 01:06 23,3 °C 12,6 °C 49 % 93 % 1008,7 hPa 0,0 l/m² 2,9 km/h (1 Bft) S-SO 160 ° 0 min 0 W/m² 11,5 °C 12,6 °C 6,4 km/h (2 Bft)
21.04.2025 01:07 23,3 °C 12,6 °C 49 % 93 % 1008,7 hPa 0,0 l/m² 4,1 km/h (1 Bft) S-SO 151 ° 0 min 0 W/m² 11,5 °C 12,6 °C 6,4 km/h (2 Bft)
21.04.2025 01:08 23,3 °C 12,6 °C 49 % 93 % 1008,7 hPa 0,0 l/m² 3,3 km/h (1 Bft) S-SO 151 ° 0 min 0 W/m² 11,5 °C 12,6 °C 4,8 km/h (1 Bft)
21.04.2025 01:09 23,3 °C 12,6 °C 49 % 93 % 1008,7 hPa 0,0 l/m² 4,4 km/h (1 Bft) S-SO 150 ° 0 min 0 W/m² 11,5 °C 12,6 °C 4,8 km/h (1 Bft)
21.04.2025 01:10 23,3 °C 12,6 °C 49 % 93 % 1008,8 hPa 0,0 l/m² 4,3 km/h (1 Bft) S-SO 150 ° 0 min 0 W/m² 11,5 °C 12,6 °C 4,8 km/h (1 Bft)
21.04.2025 01:12 23,3 °C 12,6 °C 49 % 93 % 1008,7 hPa 0,0 l/m² 3,9 km/h (1 Bft) SO 141 ° 0 min 0 W/m² 11,5 °C 12,6 °C 6,4 km/h (2 Bft)
21.04.2025 01:13 23,3 °C 12,6 °C 49 % 93 % 1008,7 hPa 0,0 l/m² 3,4 km/h (1 Bft) SO 141 ° 0 min 0 W/m² 11,5 °C 12,6 °C 4,8 km/h (1 Bft)
21.04.2025 01:14 23,3 °C 12,6 °C 49 % 93 % 1008,7 hPa 0,0 l/m² 4,0 km/h (1 Bft) SO 141 ° 0 min 0 W/m² 11,5 °C 12,6 °C 4,8 km/h (1 Bft)
21.04.2025 01:15 23,3 °C 12,6 °C 49 % 93 % 1008,7 hPa 0,0 l/m² 2,9 km/h (1 Bft) SO 141 ° 0 min 0 W/m² 11,5 °C 12,6 °C 4,8 km/h (1 Bft)
21.04.2025 01:16 23,3 °C 12,6 °C 49 % 93 % 1008,6 hPa 0,0 l/m² 3,4 km/h (1 Bft) SO 141 ° 0 min 0 W/m² 11,5 °C 12,6 °C 4,8 km/h (1 Bft)
21.04.2025 01:17 23,3 °C 12,6 °C 49 % 93 % 1008,6 hPa 0,0 l/m² 4,2 km/h (1 Bft) SO 141 ° 0 min 0 W/m² 11,5 °C 12,6 °C 4,8 km/h (1 Bft)
21.04.2025 01:18 23,3 °C 12,6 °C 49 % 93 % 1008,6 hPa 0,0 l/m² 2,5 km/h (1 Bft) SO 141 ° 0 min 0 W/m² 11,5 °C 12,6 °C 3,2 km/h (1 Bft)
21.04.2025 01:19 23,3 °C 12,6 °C 49 % 93 % 1008,5 hPa 0,0 l/m² 4,0 km/h (1 Bft) SO 141 ° 0 min 0 W/m² 11,5 °C 12,6 °C 4,8 km/h (1 Bft)
21.04.2025 01:20 23,3 °C 12,6 °C 49 % 93 % 1008,5 hPa 0,0 l/m² 3,8 km/h (1 Bft) SO 141 ° 0 min 0 W/m² 11,5 °C 12,6 °C 4,8 km/h (1 Bft)
21.04.2025 01:22 23,2 °C 12,6 °C 49 % 93 % 1008,5 hPa 0,0 l/m² 5,1 km/h (1 Bft) O-SO 105 ° 0 min 0 W/m² 11,5 °C 12,6 °C 9,7 km/h (2 Bft)
21.04.2025 01:24 23,2 °C 12,6 °C 49 % 93 % 1008,4 hPa 0,0 l/m² 5,5 km/h (2 Bft) O 96 ° 0 min 0 W/m² 11,5 °C 12,6 °C 6,4 km/h (2 Bft)
21.04.2025 01:25 23,2 °C 12,6 °C 49 % 93 % 1008,4 hPa 0,0 l/m² 6,8 km/h (2 Bft) O 88 ° 0 min 0 W/m² 11,5 °C 12,4 °C 9,7 km/h (2 Bft)
21.04.2025 01:26 23,2 °C 12,6 °C 49 % 93 % 1008,4 hPa 0,0 l/m² 6,8 km/h (2 Bft) O 88 ° 0 min 0 W/m² 11,5 °C 12,4 °C 8,0 km/h (2 Bft)
21.04.2025 01:27 23,3 °C 12,6 °C 49 % 93 % 1008,4 hPa 0,0 l/m² 7,0 km/h (2 Bft) O 88 ° 0 min 0 W/m² 11,5 °C 12,2 °C 8,0 km/h (2 Bft)
21.04.2025 01:28 23,2 °C 12,6 °C 49 % 93 % 1008,4 hPa 0,0 l/m² 7,2 km/h (2 Bft) O 86 ° 0 min 0 W/m² 11,5 °C 12,1 °C 11,3 km/h (2 Bft)
21.04.2025 01:29 23,2 °C 12,6 °C 49 % 93 % 1008,5 hPa 0,0 l/m² 7,0 km/h (2 Bft) O 86 ° 0 min 0 W/m² 11,5 °C 12,2 °C 8,0 km/h (2 Bft)
21.04.2025 01:30 23,3 °C 12,5 °C 49 % 93 % 1008,4 hPa 0,0 l/m² 8,4 km/h (2 Bft) O 84 ° 0 min 0 W/m² 11,4 °C 11,2 °C 11,3 km/h (2 Bft)
21.04.2025 01:32 23,2 °C 12,5 °C 49 % 93 % 1008,3 hPa 0,0 l/m² 9,3 km/h (2 Bft) O 81 ° 0 min 0 W/m² 11,4 °C 10,7 °C 14,5 km/h (3 Bft)
21.04.2025 01:33 23,2 °C 12,5 °C 49 % 93 % 1008,3 hPa 0,0 l/m² 10,7 km/h (2 Bft) O 79 ° 0 min 0 W/m² 11,4 °C 10,0 °C 14,5 km/h (3 Bft)
21.04.2025 01:34 23,2 °C 12,5 °C 49 % 93 % 1008,3 hPa 0,0 l/m² 11,3 km/h (2 Bft) O 80 ° 0 min 0 W/m² 11,4 °C 9,7 °C 14,5 km/h (3 Bft)
21.04.2025 01:35 23,2 °C 12,6 °C 49 % 93 % 1008,1 hPa 0,0 l/m² 11,2 km/h (2 Bft) O-NO 75 ° 0 min 0 W/m² 11,5 °C 9,9 °C 14,5 km/h (3 Bft)
21.04.2025 01:36 23,2 °C 12,6 °C 49 % 93 % 1008,1 hPa 0,0 l/m² 9,2 km/h (2 Bft) O-NO 78 ° 0 min 0 W/m² 11,5 °C 10,9 °C 12,9 km/h (3 Bft)
21.04.2025 01:37 23,2 °C 12,6 °C 49 % 94 % 1008,2 hPa 0,0 l/m² 8,3 km/h (2 Bft) O 80 ° 0 min 0 W/m² 11,7 °C 11,4 °C 11,3 km/h (2 Bft)
21.04.2025 01:38 23,2 °C 12,6 °C 49 % 94 % 1008,2 hPa 0,0 l/m² 8,5 km/h (2 Bft) O 80 ° 0 min 0 W/m² 11,7 °C 11,3 °C 11,3 km/h (2 Bft)
21.04.2025 01:39 23,2 °C 12,6 °C 49 % 93 % 1008,2 hPa 0,0 l/m² 7,5 km/h (2 Bft) O 81 ° 0 min 0 W/m² 11,5 °C 11,9 °C 11,3 km/h (2 Bft)
21.04.2025 01:40 23,2 °C 12,6 °C 49 % 93 % 1008,2 hPa 0,0 l/m² 6,7 km/h (2 Bft) O 79 ° 0 min 0 W/m² 11,5 °C 12,4 °C 8,0 km/h (2 Bft)
21.04.2025 01:42 23,2 °C 12,6 °C 49 % 93 % 1008,1 hPa 0,0 l/m² 6,4 km/h (2 Bft) O 85 ° 0 min 0 W/m² 11,5 °C 12,6 °C 11,3 km/h (2 Bft)
21.04.2025 01:43 23,2 °C 12,6 °C 49 % 93 % 1008,3 hPa 0,0 l/m² 6,4 km/h (2 Bft) O 85 ° 0 min 0 W/m² 11,5 °C 12,6 °C 8,0 km/h (2 Bft)
21.04.2025 01:44 23,2 °C 12,5 °C 49 % 93 % 1008,3 hPa 0,0 l/m² 7,3 km/h (2 Bft) O 85 ° 0 min 0 W/m² 11,4 °C 11,9 °C 8,0 km/h (2 Bft)
21.04.2025 01:45 23,2 °C 12,5 °C 49 % 93 % 1008,2 hPa 0,0 l/m² 7,4 km/h (2 Bft) O 88 ° 0 min 0 W/m² 11,4 °C 11,9 °C 8,0 km/h (2 Bft)
21.04.2025 01:46 23,2 °C 12,5 °C 49 % 93 % 1008,2 hPa 0,0 l/m² 8,6 km/h (2 Bft) O 94 ° 0 min 0 W/m² 11,4 °C 11,1 °C 11,3 km/h (2 Bft)
21.04.2025 01:47 23,2 °C 12,5 °C 49 % 93 % 1008,2 hPa 0,0 l/m² 6,8 km/h (2 Bft) O 94 ° 0 min 0 W/m² 11,4 °C 12,2 °C 9,7 km/h (2 Bft)
21.04.2025 01:48 23,2 °C 12,5 °C 49 % 93 % 1008,2 hPa 0,0 l/m² 8,4 km/h (2 Bft) O 91 ° 0 min 0 W/m² 11,4 °C 11,2 °C 11,3 km/h (2 Bft)
21.04.2025 01:49 23,2 °C 12,4 °C 49 % 93 % 1008,1 hPa 0,0 l/m² 8,4 km/h (2 Bft) O 94 ° 0 min 0 W/m² 11,3 °C 11,1 °C 11,3 km/h (2 Bft)
21.04.2025 01:50 23,2 °C 12,5 °C 49 % 93 % 1008,1 hPa 0,0 l/m² 9,3 km/h (2 Bft) O 96 ° 0 min 0 W/m² 11,4 °C 10,7 °C 14,5 km/h (3 Bft)
21.04.2025 01:52 23,2 °C 12,4 °C 49 % 93 % 1008,2 hPa 0,0 l/m² 7,5 km/h (2 Bft) O-SO 107 ° 0 min 0 W/m² 11,3 °C 11,7 °C 11,3 km/h (2 Bft)
21.04.2025 01:54 23,2 °C 12,5 °C 49 % 93 % 1008,2 hPa 0,0 l/m² 5,3 km/h (1 Bft) O-SO 112 ° 0 min 0 W/m² 11,4 °C 12,5 °C 9,7 km/h (2 Bft)
21.04.2025 01:55 23,2 °C 12,4 °C 49 % 93 % 1008,2 hPa 0,0 l/m² 4,9 km/h (1 Bft) O-SO 112 ° 0 min 0 W/m² 11,3 °C 12,4 °C 6,4 km/h (2 Bft)
21.04.2025 01:56 23,2 °C 12,4 °C 49 % 93 % 1008,1 hPa 0,0 l/m² 7,3 km/h (2 Bft) O-SO 104 ° 0 min 0 W/m² 11,3 °C 11,8 °C 11,3 km/h (2 Bft)
21.04.2025 01:57 23,2 °C 12,4 °C 49 % 93 % 1008,1 hPa 0,0 l/m² 7,4 km/h (2 Bft) O 98 ° 0 min 0 W/m² 11,3 °C 11,7 °C 11,3 km/h (2 Bft)
21.04.2025 01:58 23,2 °C 12,4 °C 49 % 93 % 1008,1 hPa 0,0 l/m² 7,1 km/h (2 Bft) O 97 ° 0 min 0 W/m² 11,3 °C 11,9 °C 9,7 km/h (2 Bft)
21.04.2025 01:59 23,2 °C 12,4 °C 49 % 93 % 1008,1 hPa 0,0 l/m² 5,8 km/h (2 Bft) O 97 ° 0 min 0 W/m² 11,3 °C 12,4 °C 9,7 km/h (2 Bft)
21.04.2025 02:00 23,2 °C 12,4 °C 49 % 93 % 1008,1 hPa 0,0 l/m² 3,9 km/h (1 Bft) O 97 ° 0 min 0 W/m² 11,3 °C 12,4 °C 4,8 km/h (1 Bft)
21.04.2025 02:02 23,2 °C 12,4 °C 49 % 93 % 1008,2 hPa 0,0 l/m² 2,4 km/h (1 Bft) O 97 ° 0 min 0 W/m² 11,3 °C 12,4 °C 4,8 km/h (1 Bft)
21.04.2025 02:04 23,2 °C 12,4 °C 49 % 94 % 1008,1 hPa 0,0 l/m² 3,5 km/h (1 Bft) O 97 ° 0 min 0 W/m² 11,5 °C 12,4 °C 4,8 km/h (1 Bft)
21.04.2025 02:05 23,2 °C 12,4 °C 49 % 94 % 1008,1 hPa 0,0 l/m² 2,6 km/h (1 Bft) O 97 ° 0 min 0 W/m² 11,5 °C 12,4 °C 3,2 km/h (1 Bft)
21.04.2025 02:06 23,2 °C 12,4 °C 49 % 94 % 1008,1 hPa 0,0 l/m² 0,5 km/h (0 Bft) O 97 ° 0 min 0 W/m² 11,5 °C 12,4 °C 1,6 km/h (1 Bft)
21.04.2025 02:07 23,2 °C 12,4 °C 49 % 94 % 1008,2 hPa 0,0 l/m² 0,7 km/h (0 Bft) O 97 ° 0 min 0 W/m² 11,5 °C 12,4 °C 3,2 km/h (1 Bft)
21.04.2025 02:08 23,2 °C 12,4 °C 49 % 94 % 1008,2 hPa 0,0 l/m² 4,2 km/h (1 Bft) SW 223 ° 0 min 0 W/m² 11,5 °C 12,4 °C 6,4 km/h (2 Bft)
21.04.2025 02:09 23,2 °C 12,4 °C 49 % 94 % 1008,3 hPa 0,0 l/m² 6,3 km/h (2 Bft) W-SW 237 ° 0 min 0 W/m² 11,5 °C 12,4 °C 8,0 km/h (2 Bft)
21.04.2025 02:10 23,2 °C 12,4 °C 49 % 94 % 1008,4 hPa 0,0 l/m² 5,4 km/h (2 Bft) W-SW 237 ° 0 min 0 W/m² 11,5 °C 12,4 °C 6,4 km/h (2 Bft)
21.04.2025 02:12 23,2 °C 12,4 °C 49 % 94 % 1008,1 hPa 0,0 l/m² 2,8 km/h (1 Bft) W-SW 237 ° 0 min 0 W/m² 11,5 °C 12,4 °C 4,8 km/h (1 Bft)
21.04.2025 02:14 23,1 °C 12,3 °C 49 % 93 % 1008,2 hPa 0,0 l/m² 0,4 km/h (0 Bft) W-SW 237 ° 0 min 0 W/m² 11,2 °C 12,3 °C 1,6 km/h (1 Bft)
21.04.2025 02:15 23,2 °C 12,3 °C 49 % 94 % 1008,1 hPa 0,0 l/m² 0,0 km/h (0 Bft) W-SW 237 ° 0 min 0 W/m² 11,4 °C 12,3 °C 0,0 km/h (0 Bft)
21.04.2025 02:16 23,2 °C 12,3 °C 49 % 94 % 1008,0 hPa 0,0 l/m² 1,9 km/h (1 Bft) W-SW 237 ° 0 min 0 W/m² 11,4 °C 12,3 °C 3,2 km/h (1 Bft)
21.04.2025 02:17 23,2 °C 12,3 °C 49 % 94 % 1008,0 hPa 0,0 l/m² 2,4 km/h (1 Bft) W-SW 237 ° 0 min 0 W/m² 11,4 °C 12,3 °C 3,2 km/h (1 Bft)
21.04.2025 02:18 23,2 °C 12,3 °C 49 % 94 % 1008,0 hPa 0,0 l/m² 1,2 km/h (1 Bft) W-SW 237 ° 0 min 0 W/m² 11,4 °C 12,3 °C 3,2 km/h (1 Bft)
21.04.2025 02:19 23,2 °C 12,3 °C 49 % 94 % 1008,1 hPa 0,0 l/m² 0,0 km/h (0 Bft) W-SW 237 ° 0 min 0 W/m² 11,4 °C 12,3 °C 0,0 km/h (0 Bft)
21.04.2025 02:20 23,2 °C 12,3 °C 49 % 94 % 1008,1 hPa 0,0 l/m² 0,0 km/h (0 Bft) W-SW 237 ° 0 min 0 W/m² 11,4 °C 12,3 °C 0,0 km/h (0 Bft)
21.04.2025 02:22 23,2 °C 12,3 °C 49 % 94 % 1008,1 hPa 0,0 l/m² 1,0 km/h (0 Bft) W-SW 237 ° 0 min 0 W/m² 11,4 °C 12,3 °C 4,8 km/h (1 Bft)
21.04.2025 02:24 23,2 °C 12,3 °C 49 % 94 % 1008,2 hPa 0,0 l/m² 4,5 km/h (1 Bft) W-SW 237 ° 0 min 0 W/m² 11,4 °C 12,3 °C 6,4 km/h (2 Bft)
21.04.2025 02:25 23,1 °C 12,2 °C 49 % 94 % 1008,2 hPa 0,0 l/m² 2,5 km/h (1 Bft) W-SW 237 ° 0 min 0 W/m² 11,3 °C 12,2 °C 3,2 km/h (1 Bft)
21.04.2025 02:26 23,2 °C 12,3 °C 49 % 94 % 1008,1 hPa 0,0 l/m² 0,2 km/h (0 Bft) W-SW 237 ° 0 min 0 W/m² 11,4 °C 12,3 °C 1,6 km/h (1 Bft)
21.04.2025 02:27 23,2 °C 12,2 °C 49 % 94 % 1008,1 hPa 0,0 l/m² 0,0 km/h (0 Bft) W-SW 237 ° 0 min 0 W/m² 11,3 °C 12,2 °C 0,0 km/h (0 Bft)
21.04.2025 02:28 23,2 °C 12,3 °C 49 % 94 % 1008,0 hPa 0,0 l/m² 0,1 km/h (0 Bft) W-SW 237 ° 0 min 0 W/m² 11,4 °C 12,3 °C 1,6 km/h (1 Bft)
21.04.2025 02:29 23,2 °C 12,3 °C 49 % 94 % 1008,1 hPa 0,0 l/m² 3,8 km/h (1 Bft) W-SW 237 ° 0 min 0 W/m² 11,4 °C 12,3 °C 6,4 km/h (2 Bft)
21.04.2025 02:30 23,2 °C 12,2 °C 49 % 94 % 1008,1 hPa 0,0 l/m² 7,0 km/h (2 Bft) W-SW 237 ° 0 min 0 W/m² 11,3 °C 11,8 °C 9,7 km/h (2 Bft)
21.04.2025 02:32 23,1 °C 12,1 °C 49 % 93 % 1008,2 hPa 0,0 l/m² 5,3 km/h (1 Bft) W-SW 237 ° 0 min 0 W/m² 11,0 °C 12,1 °C 9,7 km/h (2 Bft)
21.04.2025 02:34 23,1 °C 12,1 °C 49 % 94 % 1008,1 hPa 0,0 l/m² 1,1 km/h (1 Bft) W-SW 237 ° 0 min 0 W/m² 11,2 °C 12,1 °C 3,2 km/h (1 Bft)
21.04.2025 02:35 23,2 °C 12,1 °C 49 % 94 % 1008,1 hPa 0,0 l/m² 1,1 km/h (1 Bft) W-SW 237 ° 0 min 0 W/m² 11,2 °C 12,1 °C 3,2 km/h (1 Bft)
21.04.2025 02:36 23,2 °C 12,1 °C 49 % 94 % 1008,1 hPa 0,0 l/m² 2,3 km/h (1 Bft) W-SW 237 ° 0 min 0 W/m² 11,2 °C 12,1 °C 3,2 km/h (1 Bft)
21.04.2025 02:37 23,1 °C 12,0 °C 49 % 94 % 1008,1 hPa 0,0 l/m² 2,1 km/h (1 Bft) W-SW 237 ° 0 min 0 W/m² 11,1 °C 12,0 °C 3,2 km/h (1 Bft)
21.04.2025 02:38 23,2 °C 11,9 °C 49 % 94 % 1008,2 hPa 0,0 l/m² 1,3 km/h (1 Bft) W-SW 237 ° 0 min 0 W/m² 11,0 °C 11,9 °C 1,6 km/h (1 Bft)
21.04.2025 02:39 23,2 °C 11,9 °C 49 % 94 % 1008,2 hPa 0,0 l/m² 3,1 km/h (1 Bft) W-SW 237 ° 0 min 0 W/m² 11,0 °C 11,9 °C 4,8 km/h (1 Bft)
21.04.2025 02:40 23,1 °C 11,9 °C 49 % 94 % 1008,3 hPa 0,0 l/m² 0,9 km/h (0 Bft) W-SW 237 ° 0 min 0 W/m² 11,0 °C 11,9 °C 3,2 km/h (1 Bft)
21.04.2025 02:42 23,2 °C 11,7 °C 49 % 93 % 1008,3 hPa 0,0 l/m² 0,0 km/h (0 Bft) W-SW 237 ° 0 min 0 W/m² 10,6 °C 11,7 °C 0,0 km/h (0 Bft)
21.04.2025 02:44 23,1 °C 11,6 °C 49 % 93 % 1008,3 hPa 0,0 l/m² 0,0 km/h (0 Bft) W-SW 237 ° 0 min 0 W/m² 10,5 °C 11,6 °C 1,6 km/h (1 Bft)
21.04.2025 02:45 23,1 °C 11,5 °C 49 % 93 % 1008,3 hPa 0,0 l/m² 0,0 km/h (0 Bft) W-SW 237 ° 0 min 0 W/m² 10,4 °C 11,5 °C 0,0 km/h (0 Bft)
21.04.2025 02:46 23,1 °C 11,4 °C 49 % 93 % 1008,3 hPa 0,0 l/m² 0,1 km/h (0 Bft) W-SW 237 ° 0 min 0 W/m² 10,3 °C 11,4 °C 1,6 km/h (1 Bft)
21.04.2025 02:47 23,1 °C 11,3 °C 49 % 93 % 1008,3 hPa 0,0 l/m² 0,0 km/h (0 Bft) W-SW 237 ° 0 min 0 W/m² 10,2 °C 11,3 °C 0,0 km/h (0 Bft)
21.04.2025 02:48 23,1 °C 11,2 °C 49 % 93 % 1008,3 hPa 0,0 l/m² 0,0 km/h (0 Bft) W-SW 237 ° 0 min 0 W/m² 10,1 °C 11,2 °C 0,0 km/h (0 Bft)
21.04.2025 02:49 23,1 °C 11,2 °C 49 % 94 % 1008,3 hPa 0,0 l/m² 0,0 km/h (0 Bft) W-SW 237 ° 0 min 0 W/m² 10,3 °C 11,2 °C 0,0 km/h (0 Bft)
21.04.2025 02:50 23,2 °C 11,2 °C 49 % 94 % 1008,3 hPa 0,0 l/m² 0,0 km/h (0 Bft) W-SW 237 ° 0 min 0 W/m² 10,3 °C 11,2 °C 0,0 km/h (0 Bft)
21.04.2025 02:52 23,1 °C 11,3 °C 49 % 94 % 1008,3 hPa 0,0 l/m² 0,7 km/h (0 Bft) W-SW 237 ° 0 min 0 W/m² 10,4 °C 11,3 °C 1,6 km/h (1 Bft)
21.04.2025 02:54 23,1 °C 11,4 °C 49 % 94 % 1008,2 hPa 0,0 l/m² 0,5 km/h (0 Bft) W-SW 237 ° 0 min 0 W/m² 10,5 °C 11,4 °C 3,2 km/h (1 Bft)
21.04.2025 02:55 23,1 °C 11,4 °C 49 % 94 % 1008,2 hPa 0,0 l/m² 0,0 km/h (0 Bft) W-SW 237 ° 0 min 0 W/m² 10,5 °C 11,4 °C 0,0 km/h (0 Bft)
21.04.2025 02:56 23,1 °C 11,5 °C 49 % 94 % 1008,2 hPa 0,0 l/m² 0,0 km/h (0 Bft) W-SW 237 ° 0 min 0 W/m² 10,6 °C 11,5 °C 0,0 km/h (0 Bft)
21.04.2025 02:57 23,1 °C 11,6 °C 49 % 94 % 1008,2 hPa 0,0 l/m² 0,2 km/h (0 Bft) W-SW 237 ° 0 min 0 W/m² 10,7 °C 11,6 °C 1,6 km/h (1 Bft)
21.04.2025 02:58 23,1 °C 11,6 °C 49 % 94 % 1008,2 hPa 0,0 l/m² 0,1 km/h (0 Bft) W-SW 237 ° 0 min 0 W/m² 10,7 °C 11,6 °C 1,6 km/h (1 Bft)
21.04.2025 02:59 23,1 °C 11,6 °C 49 % 94 % 1008,2 hPa 0,0 l/m² 0,0 km/h (0 Bft) W-SW 237 ° 0 min 0 W/m² 10,7 °C 11,6 °C 0,0 km/h (0 Bft)
21.04.2025 03:00 23,1 °C 11,6 °C 49 % 94 % 1008,2 hPa 0,0 l/m² 0,0 km/h (0 Bft) W-SW 237 ° 0 min 0 W/m² 10,7 °C 11,6 °C 0,0 km/h (0 Bft)
21.04.2025 03:01 23,1 °C 11,6 °C 49 % 94 % 1008,3 hPa 0,0 l/m² 0,0 km/h (0 Bft) N 0 ° 0 min 0 W/m² 10,7 °C 11,6 °C 0,0 km/h (0 Bft)
21.04.2025 03:02 23,1 °C 11,5 °C 49 % 94 % 1008,3 hPa 0,0 l/m² 0,0 km/h (0 Bft) N 0 ° 0 min 0 W/m² 10,6 °C 11,5 °C 0,0 km/h (0 Bft)
21.04.2025 03:03 23,2 °C 11,5 °C 49 % 94 % 1008,3 hPa 0,0 l/m² 0,0 km/h (0 Bft) N 0 ° 0 min 0 W/m² 10,6 °C 11,5 °C 0,0 km/h (0 Bft)
21.04.2025 03:04 23,1 °C 11,5 °C 49 % 94 % 1008,3 hPa 0,0 l/m² 0,0 km/h (0 Bft) N 0 ° 0 min 0 W/m² 10,6 °C 11,5 °C 0,0 km/h (0 Bft)
21.04.2025 03:05 23,1 °C 11,5 °C 49 % 94 % 1008,2 hPa 0,0 l/m² 0,0 km/h (0 Bft) N 0 ° 0 min 0 W/m² 10,6 °C 11,5 °C 0,0 km/h (0 Bft)
21.04.2025 03:06 23,1 °C 11,5 °C 49 % 94 % 1008,3 hPa 0,0 l/m² 0,0 km/h (0 Bft) N 0 ° 0 min 0 W/m² 10,6 °C 11,5 °C 0,0 km/h (0 Bft)
21.04.2025 03:07 23,1 °C 11,5 °C 49 % 94 % 1008,2 hPa 0,0 l/m² 0,0 km/h (0 Bft) N 0 ° 0 min 0 W/m² 10,6 °C 11,5 °C 0,0 km/h (0 Bft)
21.04.2025 03:08 23,1 °C 11,5 °C 49 % 94 % 1008,2 hPa 0,0 l/m² 0,0 km/h (0 Bft) N 0 ° 0 min 0 W/m² 10,6 °C 11,5 °C 0,0 km/h (0 Bft)
21.04.2025 03:09 23,1 °C 11,5 °C 49 % 94 % 1008,2 hPa 0,0 l/m² 0,0 km/h (0 Bft) N 0 ° 0 min 0 W/m² 10,6 °C 11,5 °C 0,0 km/h (0 Bft)
21.04.2025 03:10 23,1 °C 11,5 °C 49 % 94 % 1008,3 hPa 0,0 l/m² 0,0 km/h (0 Bft) N 0 ° 0 min 0 W/m² 10,6 °C 11,5 °C 0,0 km/h (0 Bft)
21.04.2025 03:11 23,1 °C 11,4 °C 49 % 94 % 1008,3 hPa 0,0 l/m² 0,0 km/h (0 Bft) N 0 ° 0 min 0 W/m² 10,5 °C 11,4 °C 0,0 km/h (0 Bft)
21.04.2025 03:12 23,1 °C 11,4 °C 49 % 94 % 1008,3 hPa 0,0 l/m² 0,0 km/h (0 Bft) N 0 ° 0 min 0 W/m² 10,5 °C 11,4 °C 0,0 km/h (0 Bft)
21.04.2025 03:13 23,1 °C 11,4 °C 49 % 94 % 1008,2 hPa 0,0 l/m² 0,0 km/h (0 Bft) N 0 ° 0 min 0 W/m² 10,5 °C 11,4 °C 0,0 km/h (0 Bft)
21.04.2025 03:14 23,1 °C 11,4 °C 49 % 94 % 1008,3 hPa 0,0 l/m² 0,0 km/h (0 Bft) N 0 ° 0 min 0 W/m² 10,5 °C 11,4 °C 0,0 km/h (0 Bft)
21.04.2025 03:15 23,1 °C 11,3 °C 49 % 94 % 1008,2 hPa 0,0 l/m² 0,0 km/h (0 Bft) N 0 ° 0 min 0 W/m² 10,4 °C 11,3 °C 0,0 km/h (0 Bft)
21.04.2025 03:16 23,1 °C 11,2 °C 49 % 94 % 1008,2 hPa 0,0 l/m² 0,0 km/h (0 Bft) N 0 ° 0 min 0 W/m² 10,3 °C 11,2 °C 0,0 km/h (0 Bft)
21.04.2025 03:17 23,1 °C 11,2 °C 49 % 94 % 1008,2 hPa 0,0 l/m² 0,0 km/h (0 Bft) N 0 ° 0 min 0 W/m² 10,3 °C 11,2 °C 0,0 km/h (0 Bft)
21.04.2025 03:18 23,0 °C 11,2 °C 49 % 94 % 1008,2 hPa 0,0 l/m² 0,0 km/h (0 Bft) N 0 ° 0 min 0 W/m² 10,3 °C 11,2 °C 0,0 km/h (0 Bft)
21.04.2025 03:19 23,0 °C 11,2 °C 49 % 94 % 1008,2 hPa 0,0 l/m² 0,0 km/h (0 Bft) N 0 ° 0 min 0 W/m² 10,3 °C 11,2 °C 0,0 km/h (0 Bft)
21.04.2025 03:20 23,0 °C 11,1 °C 49 % 94 % 1008,2 hPa 0,0 l/m² 0,0 km/h (0 Bft) N 0 ° 0 min 0 W/m² 10,2 °C 11,1 °C 0,0 km/h (0 Bft)
21.04.2025 03:21 23,1 °C 11,1 °C 49 % 94 % 1008,2 hPa 0,0 l/m² 0,0 km/h (0 Bft) N 0 ° 0 min 0 W/m² 10,2 °C 11,1 °C 0,0 km/h (0 Bft)
21.04.2025 03:22 23,0 °C 11,1 °C 49 % 94 % 1008,1 hPa 0,0 l/m² 0,0 km/h (0 Bft) N 0 ° 0 min 0 W/m² 10,2 °C 11,1 °C 0,0 km/h (0 Bft)
21.04.2025 03:23 23,0 °C 11,1 °C 49 % 94 % 1008,2 hPa 0,0 l/m² 0,0 km/h (0 Bft) N 0 ° 0 min 0 W/m² 10,2 °C 11,1 °C 0,0 km/h (0 Bft)
21.04.2025 03:24 23,0 °C 11,1 °C 49 % 94 % 1008,2 hPa 0,0 l/m² 0,0 km/h (0 Bft) W-SW 247 ° 0 min 0 W/m² 10,2 °C 11,1 °C 1,6 km/h (1 Bft)
21.04.2025 03:25 23,0 °C 11,1 °C 49 % 94 % 1008,1 hPa 0,0 l/m² 0,0 km/h (0 Bft) N 0 ° 0 min 0 W/m² 10,2 °C 11,1 °C 0,0 km/h (0 Bft)
21.04.2025 03:26 23,0 °C 11,1 °C 49 % 94 % 1008,2 hPa 0,0 l/m² 0,0 km/h (0 Bft) N 0 ° 0 min 0 W/m² 10,2 °C 11,1 °C 0,0 km/h (0 Bft)
21.04.2025 03:27 23,0 °C 11,1 °C 49 % 94 % 1008,2 hPa 0,0 l/m² 0,0 km/h (0 Bft) N 0 ° 0 min 0 W/m² 10,2 °C 11,1 °C 0,0 km/h (0 Bft)
21.04.2025 03:28 23,0 °C 10,9 °C 50 % 94 % 1008,2 hPa 0,0 l/m² 0,0 km/h (0 Bft) N 0 ° 0 min 0 W/m² 10,0 °C 10,9 °C 0,0 km/h (0 Bft)
21.04.2025 03:29 23,0 °C 10,8 °C 50 % 94 % 1008,3 hPa 0,0 l/m² 1,6 km/h (1 Bft) W-SW 247 ° 0 min 0 W/m² 9,9 °C 10,8 °C 3,2 km/h (1 Bft)
21.04.2025 03:30 23,0 °C 10,8 °C 50 % 94 % 1008,2 hPa 0,0 l/m² 0,0 km/h (0 Bft) W-SW 247 ° 0 min 0 W/m² 9,9 °C 10,8 °C 1,6 km/h (1 Bft)
21.04.2025 03:31 23,0 °C 10,7 °C 50 % 94 % 1008,2 hPa 0,0 l/m² 0,0 km/h (0 Bft) N 0 ° 0 min 0 W/m² 9,8 °C 10,7 °C 0,0 km/h (0 Bft)
21.04.2025 03:32 23,0 °C 10,7 °C 49 % 94 % 1008,1 hPa 0,0 l/m² 0,0 km/h (0 Bft) N 0 ° 0 min 0 W/m² 9,8 °C 10,7 °C 0,0 km/h (0 Bft)
21.04.2025 03:33 23,0 °C 10,6 °C 50 % 94 % 1008,2 hPa 0,0 l/m² 1,6 km/h (1 Bft) W-SW 247 ° 0 min 0 W/m² 9,7 °C 10,6 °C 3,2 km/h (1 Bft)
21.04.2025 03:34 23,0 °C 10,6 °C 49 % 94 % 1008,2 hPa 0,0 l/m² 0,0 km/h (0 Bft) W-SW 247 ° 0 min 0 W/m² 9,7 °C 10,6 °C 1,6 km/h (1 Bft)
21.04.2025 03:35 23,0 °C 10,4 °C 50 % 94 % 1008,2 hPa 0,0 l/m² 0,0 km/h (0 Bft) N 0 ° 0 min 0 W/m² 9,5 °C 10,4 °C 0,0 km/h (0 Bft)
21.04.2025 03:36 22,9 °C 10,3 °C 50 % 94 % 1008,3 hPa 0,0 l/m² 0,0 km/h (0 Bft) N 0 ° 0 min 0 W/m² 9,4 °C 10,3 °C 0,0 km/h (0 Bft)
21.04.2025 03:37 23,0 °C 10,2 °C 50 % 93 % 1008,3 hPa 0,0 l/m² 1,6 km/h (1 Bft) W-SW 247 ° 0 min 0 W/m² 9,1 °C 10,2 °C 1,6 km/h (1 Bft)
21.04.2025 03:38 22,9 °C 10,0 °C 50 % 93 % 1008,3 hPa 0,0 l/m² 0,0 km/h (0 Bft) N 0 ° 0 min 0 W/m² 8,9 °C 10,0 °C 0,0 km/h (0 Bft)
21.04.2025 03:39 22,9 °C 9,9 °C 50 % 93 % 1008,3 hPa 0,0 l/m² 0,0 km/h (0 Bft) N 0 ° 0 min 0 W/m² 8,8 °C 9,9 °C 0,0 km/h (0 Bft)
21.04.2025 03:40 22,9 °C 9,8 °C 50 % 93 % 1008,3 hPa 0,0 l/m² 0,0 km/h (0 Bft) N 0 ° 0 min 0 W/m² 8,7 °C 9,8 °C 0,0 km/h (0 Bft)
21.04.2025 03:41 23,0 °C 9,8 °C 50 % 94 % 1008,3 hPa 0,0 l/m² 0,0 km/h (0 Bft) N 0 ° 0 min 0 W/m² 8,9 °C 9,8 °C 0,0 km/h (0 Bft)
21.04.2025 03:42 22,9 °C 9,9 °C 50 % 94 % 1008,3 hPa 0,0 l/m² 0,0 km/h (0 Bft) N 0 ° 0 min 0 W/m² 9,0 °C 9,9 °C 0,0 km/h (0 Bft)
21.04.2025 03:43 22,9 °C 9,9 °C 50 % 94 % 1008,3 hPa 0,0 l/m² 0,0 km/h (0 Bft) N 0 ° 0 min 0 W/m² 9,0 °C 9,9 °C 0,0 km/h (0 Bft)
21.04.2025 03:44 22,9 °C 9,8 °C 50 % 94 % 1008,4 hPa 0,0 l/m² 0,0 km/h (0 Bft) N 0 ° 0 min 0 W/m² 8,9 °C 9,8 °C 0,0 km/h (0 Bft)
21.04.2025 03:45 22,9 °C 9,8 °C 50 % 94 % 1008,3 hPa 0,0 l/m² 0,0 km/h (0 Bft) N 0 ° 0 min 0 W/m² 8,9 °C 9,8 °C 0,0 km/h (0 Bft)
21.04.2025 03:46 22,9 °C 9,8 °C 50 % 94 % 1008,3 hPa 0,0 l/m² 0,0 km/h (0 Bft) N 0 ° 0 min 0 W/m² 8,9 °C 9,8 °C 0,0 km/h (0 Bft)
21.04.2025 03:47 22,9 °C 9,9 °C 50 % 94 % 1008,3 hPa 0,0 l/m² 0,0 km/h (0 Bft) N 0 ° 0 min 0 W/m² 9,0 °C 9,9 °C 0,0 km/h (0 Bft)
21.04.2025 03:48 22,9 °C 9,9 °C 50 % 94 % 1008,3 hPa 0,0 l/m² 0,0 km/h (0 Bft) N 0 ° 0 min 0 W/m² 9,0 °C 9,9 °C 0,0 km/h (0 Bft)
21.04.2025 03:49 22,9 °C 9,9 °C 50 % 94 % 1008,2 hPa 0,0 l/m² 0,0 km/h (0 Bft) N 0 ° 0 min 0 W/m² 9,0 °C 9,9 °C 0,0 km/h (0 Bft)
21.04.2025 03:50 22,9 °C 9,8 °C 50 % 94 % 1008,2 hPa 0,0 l/m² 0,0 km/h (0 Bft) N 0 ° 0 min 0 W/m² 8,9 °C 9,8 °C 0,0 km/h (0 Bft)
21.04.2025 03:51 23,0 °C 9,7 °C 50 % 94 % 1008,3 hPa 0,0 l/m² 0,0 km/h (0 Bft) N 0 ° 0 min 0 W/m² 8,8 °C 9,7 °C 0,0 km/h (0 Bft)
21.04.2025 03:52 22,9 °C 9,6 °C 50 % 93 % 1008,2 hPa 0,0 l/m² 0,0 km/h (0 Bft) N 0 ° 0 min 0 W/m² 8,5 °C 9,6 °C 0,0 km/h (0 Bft)
21.04.2025 03:53 22,9 °C 9,5 °C 50 % 94 % 1008,2 hPa 0,0 l/m² 0,0 km/h (0 Bft) N 0 ° 0 min 0 W/m² 8,6 °C 9,5 °C 0,0 km/h (0 Bft)
21.04.2025 03:54 22,9 °C 9,5 °C 50 % 94 % 1008,2 hPa 0,0 l/m² 0,0 km/h (0 Bft) W-SW 247 ° 0 min 0 W/m² 8,6 °C 9,5 °C 1,6 km/h (1 Bft)
21.04.2025 03:55 22,9 °C 9,5 °C 50 % 94 % 1008,2 hPa 0,0 l/m² 0,0 km/h (0 Bft) W-SW 247 ° 0 min 0 W/m² 8,6 °C 9,5 °C 1,6 km/h (1 Bft)
21.04.2025 03:56 22,9 °C 9,5 °C 50 % 94 % 1008,3 hPa 0,0 l/m² 0,0 km/h (0 Bft) N 0 ° 0 min 0 W/m² 8,6 °C 9,5 °C 0,0 km/h (0 Bft)
21.04.2025 03:57 22,9 °C 9,5 °C 50 % 94 % 1008,3 hPa 0,0 l/m² 0,0 km/h (0 Bft) N 0 ° 0 min 0 W/m² 8,6 °C 9,5 °C 0,0 km/h (0 Bft)
21.04.2025 03:58 22,9 °C 9,6 °C 50 % 94 % 1008,2 hPa 0,0 l/m² 0,0 km/h (0 Bft) N 0 ° 0 min 0 W/m² 8,7 °C 9,6 °C 0,0 km/h (0 Bft)
21.04.2025 03:59 22,9 °C 9,6 °C 50 % 94 % 1008,2 hPa 0,0 l/m² 0,0 km/h (0 Bft) N 0 ° 0 min 0 W/m² 8,7 °C 9,6 °C 0,0 km/h (0 Bft)
21.04.2025 04:00 22,9 °C 9,6 °C 50 % 94 % 1008,2 hPa 0,0 l/m² 0,0 km/h (0 Bft) W-SW 247 ° 0 min 0 W/m² 8,7 °C 9,6 °C 3,2 km/h (1 Bft)
21.04.2025 04:01 22,9 °C 9,7 °C 50 % 95 % 1008,2 hPa 0,0 l/m² 0,0 km/h (0 Bft) N 0 ° 0 min 0 W/m² 8,9 °C 9,7 °C 0,0 km/h (0 Bft)
21.04.2025 04:02 22,9 °C 9,8 °C 50 % 95 % 1008,2 hPa 0,0 l/m² 0,0 km/h (0 Bft) W-SW 247 ° 0 min 0 W/m² 9,0 °C 9,8 °C 1,6 km/h (1 Bft)
21.04.2025 04:03 22,9 °C 9,8 °C 50 % 95 % 1008,2 hPa 0,0 l/m² 0,0 km/h (0 Bft) W-SW 247 ° 0 min 0 W/m² 9,0 °C 9,8 °C 1,6 km/h (1 Bft)
21.04.2025 04:04 22,9 °C 9,9 °C 50 % 95 % 1008,2 hPa 0,0 l/m² 0,0 km/h (0 Bft) N 0 ° 0 min 0 W/m² 9,1 °C 9,9 °C 0,0 km/h (0 Bft)
21.04.2025 04:05 22,9 °C 9,9 °C 50 % 95 % 1008,2 hPa 0,0 l/m² 0,0 km/h (0 Bft) W-SW 247 ° 0 min 0 W/m² 9,1 °C 9,9 °C 1,6 km/h (1 Bft)
21.04.2025 04:06 22,9 °C 9,8 °C 50 % 95 % 1008,2 hPa 0,0 l/m² 1,6 km/h (1 Bft) W-SW 247 ° 0 min 0 W/m² 9,0 °C 9,8 °C 3,2 km/h (1 Bft)
21.04.2025 04:07 22,9 °C 9,7 °C 50 % 94 % 1008,2 hPa 0,0 l/m² 0,0 km/h (0 Bft) W-SW 247 ° 0 min 0 W/m² 8,8 °C 9,7 °C 1,6 km/h (1 Bft)
21.04.2025 04:08 22,9 °C 9,6 °C 50 % 94 % 1008,2 hPa 0,0 l/m² 0,0 km/h (0 Bft) N 0 ° 0 min 0 W/m² 8,7 °C 9,6 °C 0,0 km/h (0 Bft)
21.04.2025 04:09 22,9 °C 9,3 °C 50 % 94 % 1008,2 hPa 0,0 l/m² 1,6 km/h (1 Bft) W-SW 247 ° 0 min 0 W/m² 8,4 °C 9,3 °C 1,6 km/h (1 Bft)
21.04.2025 04:10 22,9 °C 9,2 °C 50 % 93 % 1008,3 hPa 0,0 l/m² 1,6 km/h (1 Bft) W-SW 247 ° 0 min 0 W/m² 8,1 °C 9,2 °C 3,2 km/h (1 Bft)
21.04.2025 04:11 22,9 °C 9,1 °C 50 % 94 % 1008,2 hPa 0,0 l/m² 1,6 km/h (1 Bft) W-SW 247 ° 0 min 0 W/m² 8,2 °C 9,1 °C 3,2 km/h (1 Bft)
21.04.2025 04:12 22,9 °C 9,1 °C 50 % 94 % 1008,3 hPa 0,0 l/m² 0,0 km/h (0 Bft) W-SW 247 ° 0 min 0 W/m² 8,2 °C 9,1 °C 1,6 km/h (1 Bft)
21.04.2025 04:13 22,9 °C 9,1 °C 50 % 94 % 1008,2 hPa 0,0 l/m² 1,6 km/h (1 Bft) W-SW 247 ° 0 min 0 W/m² 8,2 °C 9,1 °C 3,2 km/h (1 Bft)
21.04.2025 04:14 22,9 °C 9,3 °C 50 % 94 % 1008,2 hPa 0,0 l/m² 3,2 km/h (1 Bft) W-SW 247 ° 0 min 0 W/m² 8,4 °C 9,3 °C 4,8 km/h (1 Bft)
21.04.2025 04:15 22,9 °C 9,4 °C 50 % 95 % 1008,2 hPa 0,0 l/m² 3,2 km/h (1 Bft) W-SW 247 ° 0 min 0 W/m² 8,6 °C 9,4 °C 4,8 km/h (1 Bft)
21.04.2025 04:16 22,9 °C 9,4 °C 50 % 95 % 1008,2 hPa 0,0 l/m² 3,2 km/h (1 Bft) W-SW 247 ° 0 min 0 W/m² 8,6 °C 9,4 °C 4,8 km/h (1 Bft)
21.04.2025 04:17 22,9 °C 9,5 °C 50 % 95 % 1008,3 hPa 0,0 l/m² 3,2 km/h (1 Bft) W-SW 247 ° 0 min 0 W/m² 8,7 °C 9,5 °C 3,2 km/h (1 Bft)
21.04.2025 04:18 22,9 °C 9,4 °C 50 % 95 % 1008,3 hPa 0,0 l/m² 3,2 km/h (1 Bft) W-SW 247 ° 0 min 0 W/m² 8,6 °C 9,4 °C 3,2 km/h (1 Bft)
21.04.2025 04:19 22,9 °C 9,4 °C 50 % 94 % 1008,3 hPa 0,0 l/m² 1,6 km/h (1 Bft) W-SW 247 ° 0 min 0 W/m² 8,5 °C 9,4 °C 3,2 km/h (1 Bft)
21.04.2025 04:20 22,9 °C 9,4 °C 50 % 94 % 1008,3 hPa 0,0 l/m² 0,0 km/h (0 Bft) W-SW 247 ° 0 min 0 W/m² 8,5 °C 9,4 °C 1,6 km/h (1 Bft)
21.04.2025 04:21 22,9 °C 9,3 °C 50 % 94 % 1008,3 hPa 0,0 l/m² 1,6 km/h (1 Bft) W-SW 247 ° 0 min 0 W/m² 8,4 °C 9,3 °C 3,2 km/h (1 Bft)
21.04.2025 04:22 22,9 °C 9,3 °C 50 % 94 % 1008,3 hPa 0,0 l/m² 0,0 km/h (0 Bft) N 0 ° 0 min 0 W/m² 8,4 °C 9,3 °C 0,0 km/h (0 Bft)
21.04.2025 04:23 22,9 °C 9,4 °C 50 % 95 % 1008,4 hPa 0,0 l/m² 0,0 km/h (0 Bft) N 0 ° 0 min 0 W/m² 8,6 °C 9,4 °C 0,0 km/h (0 Bft)
21.04.2025 04:24 22,9 °C 9,4 °C 50 % 94 % 1008,4 hPa 0,0 l/m² 1,6 km/h (1 Bft) W-SW 247 ° 0 min 0 W/m² 8,5 °C 9,4 °C 3,2 km/h (1 Bft)
21.04.2025 04:25 22,9 °C 9,4 °C 50 % 95 % 1008,2 hPa 0,0 l/m² 1,6 km/h (1 Bft) W-SW 247 ° 0 min 0 W/m² 8,6 °C 9,4 °C 3,2 km/h (1 Bft)
21.04.2025 04:26 22,9 °C 9,5 °C 50 % 95 % 1008,3 hPa 0,0 l/m² 3,2 km/h (1 Bft) W-SW 247 ° 0 min 0 W/m² 8,7 °C 9,5 °C 4,8 km/h (1 Bft)
21.04.2025 04:27 22,9 °C 9,6 °C 50 % 95 % 1008,3 hPa 0,0 l/m² 1,6 km/h (1 Bft) W-SW 247 ° 0 min 0 W/m² 8,8 °C 9,6 °C 3,2 km/h (1 Bft)
21.04.2025 04:28 22,9 °C 9,7 °C 50 % 95 % 1008,3 hPa 0,0 l/m² 1,6 km/h (1 Bft) W-SW 247 ° 0 min 0 W/m² 8,9 °C 9,7 °C 3,2 km/h (1 Bft)
21.04.2025 04:29 22,9 °C 9,7 °C 50 % 95 % 1008,4 hPa 0,0 l/m² 3,2 km/h (1 Bft) W-SW 247 ° 0 min 0 W/m² 8,9 °C 9,7 °C 4,8 km/h (1 Bft)
21.04.2025 04:30 22,9 °C 9,8 °C 50 % 95 % 1008,4 hPa 0,0 l/m² 3,2 km/h (1 Bft) W-SW 247 ° 0 min 0 W/m² 9,0 °C 9,8 °C 3,2 km/h (1 Bft)
21.04.2025 04:31 22,9 °C 9,8 °C 50 % 95 % 1008,3 hPa 0,0 l/m² 1,6 km/h (1 Bft) W-SW 247 ° 0 min 0 W/m² 9,0 °C 9,8 °C 3,2 km/h (1 Bft)
21.04.2025 04:32 22,9 °C 9,8 °C 50 % 95 % 1008,5 hPa 0,0 l/m² 3,2 km/h (1 Bft) W-SW 247 ° 0 min 0 W/m² 9,0 °C 9,8 °C 3,2 km/h (1 Bft)
21.04.2025 04:33 22,9 °C 9,8 °C 50 % 95 % 1008,4 hPa 0,0 l/m² 1,6 km/h (1 Bft) W-SW 247 ° 0 min 0 W/m² 9,0 °C 9,8 °C 3,2 km/h (1 Bft)
21.04.2025 04:34 22,9 °C 9,8 °C 50 % 95 % 1008,4 hPa 0,0 l/m² 1,6 km/h (1 Bft) W-SW 247 ° 0 min 0 W/m² 9,0 °C 9,8 °C 3,2 km/h (1 Bft)
21.04.2025 04:35 22,9 °C 9,8 °C 50 % 95 % 1008,4 hPa 0,0 l/m² 0,0 km/h (0 Bft) N 0 ° 0 min 0 W/m² 9,0 °C 9,8 °C 0,0 km/h (0 Bft)
21.04.2025 04:36 22,9 °C 9,8 °C 50 % 95 % 1008,4 hPa 0,0 l/m² 0,0 km/h (0 Bft) N 0 ° 0 min 0 W/m² 9,0 °C 9,8 °C 0,0 km/h (0 Bft)
21.04.2025 04:37 22,9 °C 9,7 °C 50 % 95 % 1008,4 hPa 0,0 l/m² 0,0 km/h (0 Bft) N 0 ° 0 min 0 W/m² 8,9 °C 9,7 °C 0,0 km/h (0 Bft)
21.04.2025 04:38 22,9 °C 9,6 °C 50 % 94 % 1008,4 hPa 0,0 l/m² 0,0 km/h (0 Bft) N 0 ° 0 min 0 W/m² 8,7 °C 9,6 °C 0,0 km/h (0 Bft)
21.04.2025 04:39 22,9 °C 9,6 °C 50 % 94 % 1008,4 hPa 0,0 l/m² 0,0 km/h (0 Bft) N 0 ° 0 min 0 W/m² 8,7 °C 9,6 °C 0,0 km/h (0 Bft)
21.04.2025 04:40 22,9 °C 9,5 °C 50 % 94 % 1008,4 hPa 0,0 l/m² 0,0 km/h (0 Bft) N 0 ° 0 min 0 W/m² 8,6 °C 9,5 °C 0,0 km/h (0 Bft)
21.04.2025 04:41 22,9 °C 9,4 °C 50 % 94 % 1008,4 hPa 0,0 l/m² 0,0 km/h (0 Bft) W-SW 247 ° 0 min 0 W/m² 8,5 °C 9,4 °C 4,8 km/h (1 Bft)
21.04.2025 04:42 22,9 °C 9,4 °C 50 % 94 % 1008,4 hPa 0,0 l/m² 3,2 km/h (1 Bft) W-SW 247 ° 0 min 0 W/m² 8,5 °C 9,4 °C 4,8 km/h (1 Bft)
21.04.2025 04:43 22,9 °C 9,5 °C 50 % 94 % 1008,4 hPa 0,0 l/m² 3,2 km/h (1 Bft) W-SW 247 ° 0 min 0 W/m² 8,6 °C 9,5 °C 4,8 km/h (1 Bft)
21.04.2025 04:44 22,9 °C 9,5 °C 50 % 95 % 1008,4 hPa 0,0 l/m² 3,2 km/h (1 Bft) W-SW 247 ° 0 min 0 W/m² 8,7 °C 9,5 °C 4,8 km/h (1 Bft)
21.04.2025 04:45 22,9 °C 9,4 °C 50 % 94 % 1008,4 hPa 0,0 l/m² 3,2 km/h (1 Bft) S 180 ° 0 min 0 W/m² 8,5 °C 9,4 °C 4,8 km/h (1 Bft)
21.04.2025 04:46 22,9 °C 9,3 °C 50 % 94 % 1008,3 hPa 0,0 l/m² 3,2 km/h (1 Bft) S 180 ° 0 min 0 W/m² 8,4 °C 9,3 °C 3,2 km/h (1 Bft)
21.04.2025 04:47 22,9 °C 9,2 °C 50 % 94 % 1008,3 hPa 0,0 l/m² 3,2 km/h (1 Bft) S 180 ° 0 min 0 W/m² 8,3 °C 9,2 °C 4,8 km/h (1 Bft)
21.04.2025 04:48 22,9 °C 9,1 °C 50 % 94 % 1008,4 hPa 0,0 l/m² 3,2 km/h (1 Bft) S 180 ° 0 min 0 W/m² 8,2 °C 9,1 °C 4,8 km/h (1 Bft)
21.04.2025 04:49 22,9 °C 9,1 °C 50 % 94 % 1008,4 hPa 0,0 l/m² 3,2 km/h (1 Bft) S 180 ° 0 min 0 W/m² 8,2 °C 9,1 °C 4,8 km/h (1 Bft)
21.04.2025 04:50 22,9 °C 9,1 °C 50 % 94 % 1008,4 hPa 0,0 l/m² 3,2 km/h (1 Bft) S 180 ° 0 min 0 W/m² 8,2 °C 9,1 °C 3,2 km/h (1 Bft)
21.04.2025 04:51 22,9 °C 9,1 °C 50 % 94 % 1008,3 hPa 0,0 l/m² 3,2 km/h (1 Bft) S 180 ° 0 min 0 W/m² 8,2 °C 9,1 °C 4,8 km/h (1 Bft)
21.04.2025 04:52 22,9 °C 9,1 °C 50 % 94 % 1008,4 hPa 0,0 l/m² 4,8 km/h (1 Bft) S 180 ° 0 min 0 W/m² 8,2 °C 9,1 °C 4,8 km/h (1 Bft)
21.04.2025 04:53 22,9 °C 9,1 °C 50 % 94 % 1008,4 hPa 0,0 l/m² 4,8 km/h (1 Bft) S 180 ° 0 min 0 W/m² 8,2 °C 9,1 °C 6,4 km/h (2 Bft)
21.04.2025 04:54 22,9 °C 9,1 °C 50 % 94 % 1008,3 hPa 0,0 l/m² 4,8 km/h (1 Bft) S 180 ° 0 min 0 W/m² 8,2 °C 9,1 °C 6,4 km/h (2 Bft)
21.04.2025 04:55 22,9 °C 9,1 °C 50 % 94 % 1008,3 hPa 0,0 l/m² 3,2 km/h (1 Bft) S 180 ° 0 min 0 W/m² 8,2 °C 9,1 °C 4,8 km/h (1 Bft)
21.04.2025 04:56 22,9 °C 9,0 °C 50 % 94 % 1008,4 hPa 0,0 l/m² 1,6 km/h (1 Bft) S 180 ° 0 min 0 W/m² 8,1 °C 9,0 °C 3,2 km/h (1 Bft)
21.04.2025 04:57 22,9 °C 9,0 °C 50 % 94 % 1008,4 hPa 0,0 l/m² 0,0 km/h (0 Bft) S 180 ° 0 min 0 W/m² 8,1 °C 9,0 °C 1,6 km/h (1 Bft)
21.04.2025 04:58 22,9 °C 9,1 °C 50 % 95 % 1008,4 hPa 0,0 l/m² 0,0 km/h (0 Bft) S 180 ° 0 min 0 W/m² 8,3 °C 9,1 °C 1,6 km/h (1 Bft)
21.04.2025 04:59 22,9 °C 9,1 °C 50 % 95 % 1008,4 hPa 0,0 l/m² 0,0 km/h (0 Bft) S 180 ° 0 min 0 W/m² 8,3 °C 9,1 °C 1,6 km/h (1 Bft)
21.04.2025 05:00 22,9 °C 9,1 °C 50 % 95 % 1008,4 hPa 0,0 l/m² 0,0 km/h (0 Bft) S 180 ° 0 min 0 W/m² 8,3 °C 9,1 °C 1,6 km/h (1 Bft)
21.04.2025 05:01 22,9 °C 9,1 °C 50 % 95 % 1008,4 hPa 0,0 l/m² 0,0 km/h (0 Bft) N 0 ° 0 min 0 W/m² 8,3 °C 9,1 °C 0,0 km/h (0 Bft)
21.04.2025 05:02 22,9 °C 9,1 °C 50 % 95 % 1008,5 hPa 0,0 l/m² 0,0 km/h (0 Bft) N 0 ° 0 min 0 W/m² 8,3 °C 9,1 °C 0,0 km/h (0 Bft)
21.04.2025 05:03 22,9 °C 9,1 °C 50 % 95 % 1008,5 hPa 0,0 l/m² 0,0 km/h (0 Bft) N 0 ° 0 min 0 W/m² 8,3 °C 9,1 °C 0,0 km/h (0 Bft)
21.04.2025 05:04 22,9 °C 9,1 °C 50 % 94 % 1008,4 hPa 0,0 l/m² 0,0 km/h (0 Bft) N 0 ° 0 min 0 W/m² 8,2 °C 9,1 °C 0,0 km/h (0 Bft)
21.04.2025 05:05 22,9 °C 8,9 °C 50 % 95 % 1008,4 hPa 0,0 l/m² 0,0 km/h (0 Bft) S 180 ° 0 min 0 W/m² 8,1 °C 8,9 °C 1,6 km/h (1 Bft)
21.04.2025 05:06 22,9 °C 8,9 °C 50 % 95 % 1008,3 hPa 0,0 l/m² 0,0 km/h (0 Bft) N 0 ° 0 min 0 W/m² 8,1 °C 8,9 °C 0,0 km/h (0 Bft)
21.04.2025 05:07 22,9 °C 9,0 °C 50 % 95 % 1008,5 hPa 0,0 l/m² 0,0 km/h (0 Bft) N 0 ° 0 min 0 W/m² 8,2 °C 9,0 °C 0,0 km/h (0 Bft)
21.04.2025 05:08 22,9 °C 9,1 °C 50 % 95 % 1008,4 hPa 0,0 l/m² 0,0 km/h (0 Bft) N 0 ° 0 min 0 W/m² 8,3 °C 9,1 °C 0,0 km/h (0 Bft)
21.04.2025 05:09 22,9 °C 9,1 °C 50 % 95 % 1008,4 hPa 0,0 l/m² 0,0 km/h (0 Bft) N 0 ° 0 min 0 W/m² 8,3 °C 9,1 °C 0,0 km/h (0 Bft)
21.04.2025 05:10 22,9 °C 9,2 °C 50 % 95 % 1008,4 hPa 0,0 l/m² 0,0 km/h (0 Bft) N 0 ° 0 min 0 W/m² 8,4 °C 9,2 °C 0,0 km/h (0 Bft)
21.04.2025 05:11 22,9 °C 9,2 °C 50 % 95 % 1008,3 hPa 0,0 l/m² 0,0 km/h (0 Bft) N 0 ° 0 min 0 W/m² 8,4 °C 9,2 °C 0,0 km/h (0 Bft)
21.04.2025 05:12 22,9 °C 9,2 °C 50 % 95 % 1008,4 hPa 0,0 l/m² 0,0 km/h (0 Bft) N 0 ° 0 min 0 W/m² 8,4 °C 9,2 °C 0,0 km/h (0 Bft)
21.04.2025 05:13 22,9 °C 9,2 °C 50 % 95 % 1008,4 hPa 0,0 l/m² 0,0 km/h (0 Bft) N 0 ° 0 min 0 W/m² 8,4 °C 9,2 °C 0,0 km/h (0 Bft)
21.04.2025 05:14 22,9 °C 9,2 °C 50 % 95 % 1008,3 hPa 0,0 l/m² 0,0 km/h (0 Bft) N 0 ° 0 min 0 W/m² 8,4 °C 9,2 °C 0,0 km/h (0 Bft)
21.04.2025 05:15 22,8 °C 9,2 °C 50 % 95 % 1008,4 hPa 0,0 l/m² 0,0 km/h (0 Bft) N 0 ° 0 min 0 W/m² 8,4 °C 9,2 °C 0,0 km/h (0 Bft)
21.04.2025 05:16 22,8 °C 9,2 °C 50 % 95 % 1008,3 hPa 0,0 l/m² 0,0 km/h (0 Bft) N 0 ° 0 min 0 W/m² 8,4 °C 9,2 °C 0,0 km/h (0 Bft)
21.04.2025 05:17 22,9 °C 9,3 °C 50 % 95 % 1008,4 hPa 0,0 l/m² 0,0 km/h (0 Bft) N 0 ° 0 min 0 W/m² 8,5 °C 9,3 °C 0,0 km/h (0 Bft)
21.04.2025 05:18 22,9 °C 9,2 °C 50 % 95 % 1008,4 hPa 0,0 l/m² 0,0 km/h (0 Bft) N 0 ° 0 min 0 W/m² 8,4 °C 9,2 °C 0,0 km/h (0 Bft)
21.04.2025 05:19 22,8 °C 9,2 °C 50 % 95 % 1008,4 hPa 0,0 l/m² 0,0 km/h (0 Bft) S 180 ° 0 min 0 W/m² 8,4 °C 9,2 °C 1,6 km/h (1 Bft)
21.04.2025 05:20 22,8 °C 9,2 °C 50 % 95 % 1008,3 hPa 0,0 l/m² 3,2 km/h (1 Bft) S 180 ° 0 min 0 W/m² 8,4 °C 9,2 °C 3,2 km/h (1 Bft)
21.04.2025 05:21 22,9 °C 9,2 °C 50 % 95 % 1008,4 hPa 0,0 l/m² 3,2 km/h (1 Bft) S 180 ° 0 min 0 W/m² 8,4 °C 9,2 °C 3,2 km/h (1 Bft)
21.04.2025 05:22 22,8 °C 9,1 °C 50 % 94 % 1008,4 hPa 0,0 l/m² 3,2 km/h (1 Bft) S 180 ° 0 min 0 W/m² 8,2 °C 9,1 °C 4,8 km/h (1 Bft)
21.04.2025 05:23 22,8 °C 8,9 °C 50 % 94 % 1008,4 hPa 0,0 l/m² 4,8 km/h (1 Bft) S 180 ° 0 min 0 W/m² 8,0 °C 8,9 °C 8,0 km/h (2 Bft)
21.04.2025 05:24 22,9 °C 8,8 °C 50 % 94 % 1008,4 hPa 0,0 l/m² 6,4 km/h (2 Bft) S-SO 157 ° 0 min 0 W/m² 7,9 °C 8,8 °C 8,0 km/h (2 Bft)
21.04.2025 05:25 22,9 °C 8,7 °C 50 % 94 % 1008,3 hPa 0,0 l/m² 4,8 km/h (1 Bft) S-SO 157 ° 0 min 0 W/m² 7,8 °C 8,7 °C 4,8 km/h (1 Bft)
21.04.2025 05:26 22,9 °C 8,5 °C 50 % 94 % 1008,4 hPa 0,0 l/m² 4,8 km/h (1 Bft) S-SO 157 ° 0 min 0 W/m² 7,6 °C 8,5 °C 6,4 km/h (2 Bft)
21.04.2025 05:27 22,9 °C 8,4 °C 50 % 94 % 1008,4 hPa 0,0 l/m² 3,2 km/h (1 Bft) S-SO 157 ° 0 min 0 W/m² 7,5 °C 8,4 °C 4,8 km/h (1 Bft)
21.04.2025 05:28 22,9 °C 8,4 °C 50 % 94 % 1008,4 hPa 0,0 l/m² 3,2 km/h (1 Bft) S-SO 157 ° 0 min 0 W/m² 7,5 °C 8,4 °C 4,8 km/h (1 Bft)
21.04.2025 05:29 22,8 °C 8,4 °C 50 % 94 % 1008,4 hPa 0,0 l/m² 3,2 km/h (1 Bft) S-SO 157 ° 0 min 0 W/m² 7,5 °C 8,4 °C 3,2 km/h (1 Bft)
21.04.2025 05:30 22,9 °C 8,4 °C 50 % 94 % 1008,5 hPa 0,0 l/m² 1,6 km/h (1 Bft) S-SO 157 ° 0 min 0 W/m² 7,5 °C 8,4 °C 3,2 km/h (1 Bft)
21.04.2025 05:31 22,8 °C 8,4 °C 50 % 94 % 1008,4 hPa 0,0 l/m² 1,6 km/h (1 Bft) S-SO 157 ° 0 min 0 W/m² 7,5 °C 8,4 °C 3,2 km/h (1 Bft)
21.04.2025 05:32 22,9 °C 8,5 °C 50 % 95 % 1008,5 hPa 0,0 l/m² 1,6 km/h (1 Bft) S-SO 157 ° 0 min 0 W/m² 7,7 °C 8,5 °C 1,6 km/h (1 Bft)
21.04.2025 05:33 22,9 °C 8,6 °C 50 % 95 % 1008,4 hPa 0,0 l/m² 0,0 km/h (0 Bft) S-SO 157 ° 0 min 0 W/m² 7,8 °C 8,6 °C 1,6 km/h (1 Bft)
21.04.2025 05:34 22,8 °C 8,6 °C 50 % 95 % 1008,5 hPa 0,0 l/m² 0,0 km/h (0 Bft) S-SO 157 ° 0 min 0 W/m² 7,8 °C 8,6 °C 1,6 km/h (1 Bft)
21.04.2025 05:35 22,8 °C 8,6 °C 50 % 95 % 1008,5 hPa 0,0 l/m² 0,0 km/h (0 Bft) N 0 ° 0 min 0 W/m² 7,8 °C 8,6 °C 0,0 km/h (0 Bft)
21.04.2025 05:36 22,8 °C 8,6 °C 50 % 95 % 1008,5 hPa 0,0 l/m² 0,0 km/h (0 Bft) N 0 ° 0 min 0 W/m² 7,8 °C 8,6 °C 0,0 km/h (0 Bft)
21.04.2025 05:37 22,9 °C 8,6 °C 50 % 95 % 1008,5 hPa 0,0 l/m² 0,0 km/h (0 Bft) N 0 ° 0 min 0 W/m² 7,8 °C 8,6 °C 0,0 km/h (0 Bft)
21.04.2025 05:38 22,8 °C 8,7 °C 50 % 95 % 1008,5 hPa 0,0 l/m² 0,0 km/h (0 Bft) N 0 ° 0 min 0 W/m² 7,9 °C 8,7 °C 0,0 km/h (0 Bft)
21.04.2025 05:39 22,8 °C 8,8 °C 50 % 95 % 1008,5 hPa 0,0 l/m² 0,0 km/h (0 Bft) S-SO 157 ° 0 min 0 W/m² 8,0 °C 8,8 °C 1,6 km/h (1 Bft)
21.04.2025 05:40 22,8 °C 8,8 °C 50 % 95 % 1008,5 hPa 0,0 l/m² 0,0 km/h (0 Bft) S-SO 157 ° 0 min 0 W/m² 8,0 °C 8,8 °C 1,6 km/h (1 Bft)
21.04.2025 05:41 22,8 °C 8,9 °C 50 % 95 % 1008,6 hPa 0,0 l/m² 0,0 km/h (0 Bft) S-SO 157 ° 0 min 0 W/m² 8,1 °C 8,9 °C 1,6 km/h (1 Bft)
21.04.2025 05:42 22,8 °C 8,9 °C 50 % 95 % 1008,6 hPa 0,0 l/m² 0,0 km/h (0 Bft) S-SO 157 ° 0 min 0 W/m² 8,1 °C 8,9 °C 1,6 km/h (1 Bft)
21.04.2025 05:43 22,8 °C 9,0 °C 50 % 95 % 1008,6 hPa 0,0 l/m² 0,0 km/h (0 Bft) N 0 ° 0 min 0 W/m² 8,2 °C 9,0 °C 0,0 km/h (0 Bft)
21.04.2025 05:44 22,8 °C 9,0 °C 50 % 95 % 1008,7 hPa 0,0 l/m² 1,6 km/h (1 Bft) S-SO 157 ° 0 min 0 W/m² 8,2 °C 9,0 °C 1,6 km/h (1 Bft)
21.04.2025 05:45 22,8 °C 9,0 °C 50 % 95 % 1008,7 hPa 0,0 l/m² 1,6 km/h (1 Bft) S-SO 157 ° 0 min 0 W/m² 8,2 °C 9,0 °C 1,6 km/h (1 Bft)
21.04.2025 05:46 22,8 °C 8,9 °C 50 % 95 % 1008,6 hPa 0,0 l/m² 0,0 km/h (0 Bft) S-SO 157 ° 0 min 0 W/m² 8,1 °C 8,9 °C 1,6 km/h (1 Bft)
21.04.2025 05:47 22,8 °C 8,9 °C 50 % 95 % 1008,6 hPa 0,0 l/m² 0,0 km/h (0 Bft) S-SO 157 ° 0 min 0 W/m² 8,1 °C 8,9 °C 1,6 km/h (1 Bft)
21.04.2025 05:48 22,8 °C 9,0 °C 50 % 95 % 1008,7 hPa 0,0 l/m² 0,0 km/h (0 Bft) S-SO 157 ° 0 min 0 W/m² 8,2 °C 9,0 °C 1,6 km/h (1 Bft)
21.04.2025 05:49 22,8 °C 9,1 °C 50 % 95 % 1008,7 hPa 0,0 l/m² 1,6 km/h (1 Bft) S-SO 157 ° 0 min 0 W/m² 8,3 °C 9,1 °C 3,2 km/h (1 Bft)
21.04.2025 05:50 22,8 °C 9,1 °C 50 % 95 % 1008,7 hPa 0,0 l/m² 0,0 km/h (0 Bft) N 0 ° 0 min 0 W/m² 8,3 °C 9,1 °C 0,0 km/h (0 Bft)
21.04.2025 05:51 22,8 °C 9,1 °C 50 % 95 % 1008,7 hPa 0,0 l/m² 1,6 km/h (1 Bft) S-SO 157 ° 0 min 0 W/m² 8,3 °C 9,1 °C 3,2 km/h (1 Bft)
21.04.2025 05:52 22,8 °C 9,1 °C 50 % 95 % 1008,7 hPa 0,0 l/m² 0,0 km/h (0 Bft) S-SO 157 ° 0 min 0 W/m² 8,3 °C 9,1 °C 1,6 km/h (1 Bft)
21.04.2025 05:53 22,8 °C 9,2 °C 50 % 95 % 1008,7 hPa 0,0 l/m² 1,6 km/h (1 Bft) S-SO 157 ° 0 min 0 W/m² 8,4 °C 9,2 °C 3,2 km/h (1 Bft)
21.04.2025 05:54 22,8 °C 9,2 °C 50 % 95 % 1008,6 hPa 0,0 l/m² 1,6 km/h (1 Bft) S-SO 157 ° 0 min 0 W/m² 8,4 °C 9,2 °C 1,6 km/h (1 Bft)
21.04.2025 05:55 22,8 °C 9,2 °C 50 % 95 % 1008,6 hPa 0,0 l/m² 1,6 km/h (1 Bft) S-SO 157 ° 0 min 0 W/m² 8,4 °C 9,2 °C 3,2 km/h (1 Bft)
21.04.2025 05:56 22,8 °C 9,2 °C 50 % 95 % 1008,7 hPa 0,0 l/m² 0,0 km/h (0 Bft) S-SO 157 ° 0 min 0 W/m² 8,4 °C 9,2 °C 1,6 km/h (1 Bft)
21.04.2025 05:57 22,8 °C 9,1 °C 50 % 95 % 1008,6 hPa 0,0 l/m² 0,0 km/h (0 Bft) N 0 ° 0 min 0 W/m² 8,3 °C 9,1 °C 0,0 km/h (0 Bft)
21.04.2025 05:58 22,8 °C 9,1 °C 50 % 95 % 1008,6 hPa 0,0 l/m² 0,0 km/h (0 Bft) N 0 ° 0 min 0 W/m² 8,3 °C 9,1 °C 0,0 km/h (0 Bft)
21.04.2025 05:59 22,8 °C 9,1 °C 50 % 95 % 1008,7 hPa 0,0 l/m² 0,0 km/h (0 Bft) N 0 ° 0 min 0 W/m² 8,3 °C 9,1 °C 0,0 km/h (0 Bft)
21.04.2025 06:00 22,8 °C 9,1 °C 50 % 95 % 1008,6 hPa 0,0 l/m² 0,0 km/h (0 Bft) N 0 ° 0 min 0 W/m² 8,3 °C 9,1 °C 0,0 km/h (0 Bft)
21.04.2025 06:01 22,8 °C 9,0 °C 50 % 95 % 1008,7 hPa 0,0 l/m² 0,0 km/h (0 Bft) N 0 ° 0 min 0 W/m² 8,2 °C 9,0 °C 0,0 km/h (0 Bft)
21.04.2025 06:02 22,8 °C 9,1 °C 50 % 95 % 1008,7 hPa 0,0 l/m² 0,0 km/h (0 Bft) N 0 ° 0 min 0 W/m² 8,3 °C 9,1 °C 0,0 km/h (0 Bft)
21.04.2025 06:03 22,8 °C 9,0 °C 50 % 95 % 1008,8 hPa 0,0 l/m² 0,0 km/h (0 Bft) N 0 ° 0 min 0 W/m² 8,2 °C 9,0 °C 0,0 km/h (0 Bft)
21.04.2025 06:04 22,8 °C 9,0 °C 50 % 95 % 1008,8 hPa 0,0 l/m² 0,0 km/h (0 Bft) N 0 ° 0 min 0 W/m² 8,2 °C 9,0 °C 0,0 km/h (0 Bft)
21.04.2025 06:05 22,8 °C 8,9 °C 50 % 95 % 1008,8 hPa 0,0 l/m² 0,0 km/h (0 Bft) N 0 ° 0 min 0 W/m² 8,1 °C 8,9 °C 0,0 km/h (0 Bft)
21.04.2025 06:06 22,8 °C 8,9 °C 50 % 95 % 1008,8 hPa 0,0 l/m² 0,0 km/h (0 Bft) N 0 ° 0 min 0 W/m² 8,1 °C 8,9 °C 0,0 km/h (0 Bft)
21.04.2025 06:07 22,8 °C 8,9 °C 50 % 95 % 1008,8 hPa 0,0 l/m² 0,0 km/h (0 Bft) N 0 ° 0 min 0 W/m² 8,1 °C 8,9 °C 0,0 km/h (0 Bft)
21.04.2025 06:08 22,8 °C 8,8 °C 50 % 95 % 1008,9 hPa 0,0 l/m² 0,0 km/h (0 Bft) N 0 ° 0 min 0 W/m² 8,0 °C 8,8 °C 0,0 km/h (0 Bft)
21.04.2025 06:09 22,8 °C 8,8 °C 50 % 95 % 1008,8 hPa 0,0 l/m² 0,0 km/h (0 Bft) N 0 ° 0 min 0 W/m² 8,0 °C 8,8 °C 0,0 km/h (0 Bft)
21.04.2025 06:10 22,8 °C 8,8 °C 50 % 95 % 1008,8 hPa 0,0 l/m² 0,0 km/h (0 Bft) N 0 ° 0 min 0 W/m² 8,0 °C 8,8 °C 0,0 km/h (0 Bft)
21.04.2025 06:11 22,8 °C 8,8 °C 50 % 95 % 1008,8 hPa 0,0 l/m² 0,0 km/h (0 Bft) N 0 ° 0 min 0 W/m² 8,0 °C 8,8 °C 0,0 km/h (0 Bft)
21.04.2025 06:12 22,8 °C 8,7 °C 50 % 95 % 1008,8 hPa 0,0 l/m² 0,0 km/h (0 Bft) N 0 ° 0 min 0 W/m² 7,9 °C 8,7 °C 0,0 km/h (0 Bft)
21.04.2025 06:13 22,8 °C 8,7 °C 50 % 95 % 1008,7 hPa 0,0 l/m² 0,0 km/h (0 Bft) N 0 ° 0 min 5 W/m² 7,9 °C 8,7 °C 0,0 km/h (0 Bft)
21.04.2025 06:14 22,8 °C 8,7 °C 50 % 95 % 1008,8 hPa 0,0 l/m² 0,0 km/h (0 Bft) S-SO 157 ° 0 min 5 W/m² 7,9 °C 8,7 °C 1,6 km/h (1 Bft)
21.04.2025 06:15 22,8 °C 8,7 °C 50 % 95 % 1008,8 hPa 0,0 l/m² 0,0 km/h (0 Bft) N 0 ° 0 min 5 W/m² 7,9 °C 8,7 °C 0,0 km/h (0 Bft)
21.04.2025 06:16 22,8 °C 8,7 °C 50 % 95 % 1008,8 hPa 0,0 l/m² 0,0 km/h (0 Bft) N 0 ° 0 min 5 W/m² 7,9 °C 8,7 °C 0,0 km/h (0 Bft)
21.04.2025 06:17 22,8 °C 8,6 °C 50 % 95 % 1008,9 hPa 0,0 l/m² 3,2 km/h (1 Bft) NO 45 ° 0 min 5 W/m² 7,8 °C 8,6 °C 8,0 km/h (2 Bft)
21.04.2025 06:18 22,8 °C 8,7 °C 50 % 95 % 1008,8 hPa 0,0 l/m² 1,6 km/h (1 Bft) NO 45 ° 0 min 7 W/m² 7,9 °C 8,7 °C 3,2 km/h (1 Bft)
21.04.2025 06:19 22,8 °C 8,7 °C 50 % 95 % 1008,9 hPa 0,0 l/m² 3,2 km/h (1 Bft) NO 45 ° 0 min 7 W/m² 7,9 °C 8,7 °C 4,8 km/h (1 Bft)
21.04.2025 06:20 22,8 °C 8,7 °C 50 % 95 % 1008,9 hPa 0,0 l/m² 3,2 km/h (1 Bft) NO 45 ° 0 min 7 W/m² 7,9 °C 8,7 °C 4,8 km/h (1 Bft)
21.04.2025 06:21 22,8 °C 8,7 °C 50 % 95 % 1008,9 hPa 0,0 l/m² 0,0 km/h (0 Bft) NO 45 ° 0 min 7 W/m² 7,9 °C 8,7 °C 1,6 km/h (1 Bft)
21.04.2025 06:22 22,8 °C 8,7 °C 50 % 95 % 1008,9 hPa 0,0 l/m² 0,0 km/h (0 Bft) N 0 ° 0 min 7 W/m² 7,9 °C 8,7 °C 0,0 km/h (0 Bft)
21.04.2025 06:23 22,8 °C 8,8 °C 50 % 95 % 1009,0 hPa 0,0 l/m² 0,0 km/h (0 Bft) NO 45 ° 0 min 9 W/m² 8,0 °C 8,8 °C 3,2 km/h (1 Bft)
21.04.2025 06:24 22,8 °C 8,8 °C 50 % 95 % 1009,0 hPa 0,0 l/m² 1,6 km/h (1 Bft) NO 45 ° 0 min 9 W/m² 8,0 °C 8,8 °C 3,2 km/h (1 Bft)
21.04.2025 06:25 22,8 °C 8,6 °C 50 % 95 % 1009,0 hPa 0,0 l/m² 3,2 km/h (1 Bft) NO 45 ° 0 min 9 W/m² 7,8 °C 8,6 °C 4,8 km/h (1 Bft)
21.04.2025 06:26 22,8 °C 8,5 °C 50 % 94 % 1009,1 hPa 0,0 l/m² 1,6 km/h (1 Bft) NO 45 ° 0 min 9 W/m² 7,6 °C 8,5 °C 3,2 km/h (1 Bft)
21.04.2025 06:27 22,8 °C 8,4 °C 50 % 94 % 1009,0 hPa 0,0 l/m² 1,6 km/h (1 Bft) NO 45 ° 0 min 11 W/m² 7,5 °C 8,4 °C 3,2 km/h (1 Bft)
21.04.2025 06:28 22,8 °C 8,4 °C 50 % 94 % 1008,9 hPa 0,0 l/m² 1,6 km/h (1 Bft) NO 45 ° 0 min 11 W/m² 7,5 °C 8,4 °C 1,6 km/h (1 Bft)
21.04.2025 06:29 22,8 °C 8,4 °C 50 % 95 % 1009,0 hPa 0,0 l/m² 0,0 km/h (0 Bft) N 0 ° 0 min 11 W/m² 7,6 °C 8,4 °C 0,0 km/h (0 Bft)
21.04.2025 06:30 22,8 °C 8,4 °C 50 % 95 % 1009,0 hPa 0,0 l/m² 0,0 km/h (0 Bft) N 0 ° 0 min 11 W/m² 7,6 °C 8,4 °C 0,0 km/h (0 Bft)
21.04.2025 06:31 22,8 °C 8,5 °C 50 % 95 % 1009,1 hPa 0,0 l/m² 0,0 km/h (0 Bft) N 0 ° 0 min 12 W/m² 7,7 °C 8,5 °C 0,0 km/h (0 Bft)
21.04.2025 06:32 22,8 °C 8,6 °C 50 % 95 % 1009,0 hPa 0,0 l/m² 0,0 km/h (0 Bft) N 0 ° 0 min 12 W/m² 7,8 °C 8,6 °C 0,0 km/h (0 Bft)
21.04.2025 06:33 22,8 °C 8,6 °C 50 % 95 % 1009,1 hPa 0,0 l/m² 0,0 km/h (0 Bft) N 0 ° 0 min 12 W/m² 7,8 °C 8,6 °C 0,0 km/h (0 Bft)
21.04.2025 06:34 22,8 °C 8,5 °C 50 % 95 % 1009,1 hPa 0,0 l/m² 0,0 km/h (0 Bft) N 0 ° 0 min 14 W/m² 7,7 °C 8,5 °C 0,0 km/h (0 Bft)
21.04.2025 06:35 22,8 °C 8,5 °C 50 % 95 % 1009,0 hPa 0,0 l/m² 0,0 km/h (0 Bft) NO 45 ° 0 min 14 W/m² 7,7 °C 8,5 °C 1,6 km/h (1 Bft)
21.04.2025 06:36 22,8 °C 8,5 °C 50 % 95 % 1009,1 hPa 0,0 l/m² 1,6 km/h (1 Bft) NO 45 ° 0 min 14 W/m² 7,7 °C 8,5 °C 3,2 km/h (1 Bft)
21.04.2025 06:37 22,8 °C 8,4 °C 50 % 95 % 1009,0 hPa 0,0 l/m² 1,6 km/h (1 Bft) NO 45 ° 0 min 16 W/m² 7,6 °C 8,4 °C 3,2 km/h (1 Bft)
21.04.2025 06:38 22,8 °C 8,4 °C 50 % 95 % 1009,1 hPa 0,0 l/m² 3,2 km/h (1 Bft) NO 45 ° 0 min 16 W/m² 7,6 °C 8,4 °C 4,8 km/h (1 Bft)
21.04.2025 06:39 22,8 °C 8,3 °C 50 % 95 % 1009,1 hPa 0,0 l/m² 3,2 km/h (1 Bft) O-NO 67 ° 0 min 18 W/m² 7,5 °C 8,3 °C 3,2 km/h (1 Bft)
21.04.2025 06:40 22,8 °C 8,3 °C 50 % 95 % 1009,2 hPa 0,0 l/m² 3,2 km/h (1 Bft) O-NO 67 ° 0 min 19 W/m² 7,5 °C 8,3 °C 3,2 km/h (1 Bft)
21.04.2025 06:41 22,8 °C 8,2 °C 50 % 95 % 1009,2 hPa 0,0 l/m² 1,6 km/h (1 Bft) O-NO 67 ° 0 min 21 W/m² 7,4 °C 8,2 °C 3,2 km/h (1 Bft)
21.04.2025 06:42 22,8 °C 8,1 °C 50 % 94 % 1009,3 hPa 0,0 l/m² 1,6 km/h (1 Bft) O-NO 67 ° 0 min 23 W/m² 7,2 °C 8,1 °C 1,6 km/h (1 Bft)
21.04.2025 06:43 22,8 °C 8,1 °C 50 % 95 % 1009,2 hPa 0,0 l/m² 1,6 km/h (1 Bft) O-NO 67 ° 0 min 23 W/m² 7,3 °C 8,1 °C 1,6 km/h (1 Bft)
21.04.2025 06:44 22,8 °C 8,1 °C 50 % 95 % 1009,3 hPa 0,0 l/m² 0,0 km/h (0 Bft) O-NO 67 ° 0 min 23 W/m² 7,3 °C 8,1 °C 1,6 km/h (1 Bft)
21.04.2025 06:45 22,8 °C 8,1 °C 50 % 95 % 1009,3 hPa 0,0 l/m² 0,0 km/h (0 Bft) N 0 ° 0 min 25 W/m² 7,3 °C 8,1 °C 0,0 km/h (0 Bft)
21.04.2025 06:46 22,8 °C 8,1 °C 50 % 95 % 1009,4 hPa 0,0 l/m² 0,0 km/h (0 Bft) N 0 ° 0 min 25 W/m² 7,3 °C 8,1 °C 0,0 km/h (0 Bft)
21.04.2025 06:47 22,8 °C 8,2 °C 50 % 95 % 1009,3 hPa 0,0 l/m² 1,6 km/h (1 Bft) O-NO 67 ° 0 min 26 W/m² 7,4 °C 8,2 °C 3,2 km/h (1 Bft)
21.04.2025 06:48 22,8 °C 8,3 °C 50 % 95 % 1009,3 hPa 0,0 l/m² 1,6 km/h (1 Bft) O-NO 67 ° 0 min 26 W/m² 7,5 °C 8,3 °C 1,6 km/h (1 Bft)
21.04.2025 06:49 22,8 °C 8,3 °C 50 % 95 % 1009,4 hPa 0,0 l/m² 0,0 km/h (0 Bft) O-NO 67 ° 0 min 28 W/m² 7,5 °C 8,3 °C 1,6 km/h (1 Bft)
21.04.2025 06:50 22,8 °C 8,3 °C 50 % 95 % 1009,4 hPa 0,0 l/m² 0,0 km/h (0 Bft) N 0 ° 0 min 30 W/m² 7,5 °C 8,3 °C 0,0 km/h (0 Bft)
21.04.2025 06:51 22,8 °C 8,4 °C 50 % 95 % 1009,4 hPa 0,0 l/m² 0,0 km/h (0 Bft) N 0 ° 0 min 32 W/m² 7,6 °C 8,4 °C 0,0 km/h (0 Bft)
21.04.2025 06:52 22,8 °C 8,5 °C 50 % 95 % 1009,5 hPa 0,0 l/m² 0,0 km/h (0 Bft) N 0 ° 0 min 33 W/m² 7,7 °C 8,5 °C 0,0 km/h (0 Bft)
21.04.2025 06:53 22,8 °C 8,5 °C 50 % 95 % 1009,5 hPa 0,0 l/m² 1,6 km/h (1 Bft) O-NO 67 ° 0 min 33 W/m² 7,7 °C 8,5 °C 4,8 km/h (1 Bft)
21.04.2025 06:54 22,8 °C 8,4 °C 50 % 95 % 1009,5 hPa 0,0 l/m² 3,2 km/h (1 Bft) O-NO 67 ° 0 min 35 W/m² 7,6 °C 8,4 °C 4,8 km/h (1 Bft)
21.04.2025 06:55 22,8 °C 8,3 °C 50 % 95 % 1009,5 hPa 0,0 l/m² 3,2 km/h (1 Bft) O-NO 67 ° 0 min 35 W/m² 7,5 °C 8,3 °C 4,8 km/h (1 Bft)
21.04.2025 06:56 22,8 °C 8,3 °C 50 % 95 % 1009,6 hPa 0,0 l/m² 3,2 km/h (1 Bft) O-NO 67 ° 0 min 37 W/m² 7,5 °C 8,3 °C 4,8 km/h (1 Bft)
21.04.2025 06:57 22,8 °C 8,3 °C 50 % 95 % 1009,6 hPa 0,0 l/m² 3,2 km/h (1 Bft) O-NO 67 ° 0 min 40 W/m² 7,5 °C 8,3 °C 3,2 km/h (1 Bft)
21.04.2025 06:58 22,8 °C 8,3 °C 50 % 95 % 1009,6 hPa 0,0 l/m² 1,6 km/h (1 Bft) O-NO 67 ° 0 min 42 W/m² 7,5 °C 8,3 °C 3,2 km/h (1 Bft)
21.04.2025 06:59 22,7 °C 8,4 °C 50 % 95 % 1009,7 hPa 0,0 l/m² 0,0 km/h (0 Bft) O-NO 67 ° 0 min 44 W/m² 7,6 °C 8,4 °C 1,6 km/h (1 Bft)
21.04.2025 07:00 22,8 °C 8,5 °C 50 % 95 % 1009,6 hPa 0,0 l/m² 0,0 km/h (0 Bft) O-NO 67 ° 0 min 46 W/m² 7,7 °C 8,5 °C 1,6 km/h (1 Bft)
21.04.2025 07:01 22,8 °C 8,6 °C 50 % 95 % 1009,7 hPa 0,0 l/m² 0,0 km/h (0 Bft) O-NO 67 ° 0 min 47 W/m² 7,8 °C 8,6 °C 1,6 km/h (1 Bft)
21.04.2025 07:02 22,8 °C 8,8 °C 50 % 95 % 1009,7 hPa 0,0 l/m² 0,0 km/h (0 Bft) N 0 ° 0 min 47 W/m² 8,0 °C 8,8 °C 0,0 km/h (0 Bft)
21.04.2025 07:03 22,8 °C 8,9 °C 50 % 96 % 1009,7 hPa 0,0 l/m² 0,0 km/h (0 Bft) N 0 ° 0 min 49 W/m² 8,3 °C 8,9 °C 0,0 km/h (0 Bft)
21.04.2025 07:04 22,7 °C 8,9 °C 50 % 95 % 1009,7 hPa 0,0 l/m² 0,0 km/h (0 Bft) N 0 ° 0 min 49 W/m² 8,1 °C 8,9 °C 0,0 km/h (0 Bft)
21.04.2025 07:05 22,8 °C 9,0 °C 50 % 95 % 1009,7 hPa 0,0 l/m² 0,0 km/h (0 Bft) N 0 ° 0 min 49 W/m² 8,2 °C 9,0 °C 0,0 km/h (0 Bft)
21.04.2025 07:06 22,7 °C 9,1 °C 50 % 95 % 1009,7 hPa 0,0 l/m² 0,0 km/h (0 Bft) O-NO 67 ° 0 min 49 W/m² 8,3 °C 9,1 °C 1,6 km/h (1 Bft)
21.04.2025 07:07 22,8 °C 9,1 °C 50 % 95 % 1009,6 hPa 0,0 l/m² 0,0 km/h (0 Bft) N 0 ° 0 min 49 W/m² 8,3 °C 9,1 °C 0,0 km/h (0 Bft)
21.04.2025 07:08 22,7 °C 9,1 °C 50 % 95 % 1009,7 hPa 0,0 l/m² 0,0 km/h (0 Bft) N 0 ° 0 min 47 W/m² 8,3 °C 9,1 °C 0,0 km/h (0 Bft)
21.04.2025 07:09 22,7 °C 9,1 °C 50 % 96 % 1009,7 hPa 0,0 l/m² 0,0 km/h (0 Bft) N 0 ° 0 min 46 W/m² 8,5 °C 9,1 °C 0,0 km/h (0 Bft)
21.04.2025 07:10 22,8 °C 9,1 °C 50 % 95 % 1009,6 hPa 0,0 l/m² 0,0 km/h (0 Bft) N 0 ° 0 min 44 W/m² 8,3 °C 9,1 °C 0,0 km/h (0 Bft)
21.04.2025 07:11 22,8 °C 9,1 °C 50 % 95 % 1009,7 hPa 0,0 l/m² 0,0 km/h (0 Bft) N 0 ° 0 min 44 W/m² 8,3 °C 9,1 °C 0,0 km/h (0 Bft)
21.04.2025 07:12 22,7 °C 9,1 °C 50 % 95 % 1009,7 hPa 0,0 l/m² 0,0 km/h (0 Bft) N 0 ° 0 min 44 W/m² 8,3 °C 9,1 °C 0,0 km/h (0 Bft)
21.04.2025 07:13 22,7 °C 9,0 °C 50 % 95 % 1009,7 hPa 0,0 l/m² 0,0 km/h (0 Bft) N 0 ° 0 min 46 W/m² 8,2 °C 9,0 °C 0,0 km/h (0 Bft)
21.04.2025 07:14 22,7 °C 8,9 °C 50 % 95 % 1009,7 hPa 0,0 l/m² 0,0 km/h (0 Bft) N 0 ° 0 min 47 W/m² 8,1 °C 8,9 °C 0,0 km/h (0 Bft)
21.04.2025 07:15 22,7 °C 8,9 °C 50 % 95 % 1009,7 hPa 0,0 l/m² 0,0 km/h (0 Bft) N 0 ° 0 min 49 W/m² 8,1 °C 8,9 °C 0,0 km/h (0 Bft)
21.04.2025 07:16 22,7 °C 8,9 °C 50 % 95 % 1009,7 hPa 0,0 l/m² 0,0 km/h (0 Bft) N 0 ° 0 min 51 W/m² 8,1 °C 8,9 °C 0,0 km/h (0 Bft)
21.04.2025 07:17 22,7 °C 9,0 °C 50 % 95 % 1009,6 hPa 0,0 l/m² 0,0 km/h (0 Bft) N 0 ° 0 min 49 W/m² 8,2 °C 9,0 °C 0,0 km/h (0 Bft)
21.04.2025 07:18 22,7 °C 9,0 °C 50 % 95 % 1009,7 hPa 0,0 l/m² 1,6 km/h (1 Bft) O-NO 67 ° 0 min 49 W/m² 8,2 °C 9,0 °C 3,2 km/h (1 Bft)
21.04.2025 07:19 22,7 °C 9,0 °C 50 % 95 % 1009,5 hPa 0,0 l/m² 1,6 km/h (1 Bft) O-NO 67 ° 0 min 47 W/m² 8,2 °C 9,0 °C 3,2 km/h (1 Bft)
21.04.2025 07:20 22,7 °C 9,1 °C 50 % 95 % 1009,6 hPa 0,0 l/m² 1,6 km/h (1 Bft) O-NO 67 ° 0 min 47 W/m² 8,3 °C 9,1 °C 1,6 km/h (1 Bft)
21.04.2025 07:21 22,7 °C 9,1 °C 50 % 95 % 1009,6 hPa 0,0 l/m² 0,0 km/h (0 Bft) O-NO 67 ° 0 min 46 W/m² 8,3 °C 9,1 °C 1,6 km/h (1 Bft)
21.04.2025 07:22 22,8 °C 9,1 °C 50 % 95 % 1009,6 hPa 0,0 l/m² 0,0 km/h (0 Bft) O-NO 67 ° 0 min 44 W/m² 8,3 °C 9,1 °C 1,6 km/h (1 Bft)
21.04.2025 07:23 22,8 °C 9,1 °C 50 % 95 % 1009,6 hPa 0,0 l/m² 1,6 km/h (1 Bft) O-NO 67 ° 0 min 44 W/m² 8,3 °C 9,1 °C 1,6 km/h (1 Bft)
21.04.2025 07:24 22,7 °C 9,1 °C 50 % 95 % 1009,5 hPa 0,0 l/m² 1,6 km/h (1 Bft) O-NO 67 ° 0 min 44 W/m² 8,3 °C 9,1 °C 1,6 km/h (1 Bft)
21.04.2025 07:25 22,7 °C 9,2 °C 50 % 95 % 1009,5 hPa 0,0 l/m² 1,6 km/h (1 Bft) O-NO 67 ° 0 min 44 W/m² 8,4 °C 9,2 °C 1,6 km/h (1 Bft)
21.04.2025 07:26 22,7 °C 9,2 °C 50 % 95 % 1009,5 hPa 0,0 l/m² 0,0 km/h (0 Bft) O-NO 67 ° 0 min 44 W/m² 8,4 °C 9,2 °C 1,6 km/h (1 Bft)
21.04.2025 07:27 22,7 °C 9,1 °C 50 % 95 % 1009,5 hPa 0,0 l/m² 0,0 km/h (0 Bft) N 0 ° 0 min 42 W/m² 8,3 °C 9,1 °C 0,0 km/h (0 Bft)
21.04.2025 07:28 22,7 °C 9,2 °C 50 % 95 % 1009,5 hPa 0,0 l/m² 0,0 km/h (0 Bft) N 0 ° 0 min 42 W/m² 8,4 °C 9,2 °C 0,0 km/h (0 Bft)
21.04.2025 07:29 22,7 °C 9,1 °C 50 % 95 % 1009,5 hPa 0,0 l/m² 0,0 km/h (0 Bft) N 0 ° 0 min 42 W/m² 8,3 °C 9,1 °C 0,0 km/h (0 Bft)
21.04.2025 07:30 22,7 °C 9,1 °C 50 % 95 % 1009,5 hPa 0,0 l/m² 0,0 km/h (0 Bft) N 0 ° 0 min 44 W/m² 8,3 °C 9,1 °C 0,0 km/h (0 Bft)
21.04.2025 07:31 22,7 °C 9,1 °C 50 % 95 % 1009,5 hPa 0,0 l/m² 0,0 km/h (0 Bft) N 0 ° 0 min 46 W/m² 8,3 °C 9,1 °C 0,0 km/h (0 Bft)
21.04.2025 07:32 22,7 °C 9,1 °C 50 % 95 % 1009,6 hPa 0,0 l/m² 0,0 km/h (0 Bft) N 0 ° 1 min 53 W/m² 8,3 °C 9,1 °C 0,0 km/h (0 Bft)
21.04.2025 07:33 22,7 °C 9,1 °C 50 % 95 % 1009,7 hPa 0,0 l/m² 0,0 km/h (0 Bft) N 0 ° 1 min 58 W/m² 8,3 °C 9,1 °C 0,0 km/h (0 Bft)
21.04.2025 07:34 22,7 °C 9,1 °C 50 % 95 % 1009,7 hPa 0,0 l/m² 0,0 km/h (0 Bft) N 0 ° 1 min 62 W/m² 8,3 °C 9,1 °C 0,0 km/h (0 Bft)
21.04.2025 07:35 22,7 °C 9,1 °C 50 % 95 % 1009,7 hPa 0,0 l/m² 0,0 km/h (0 Bft) N 0 ° 1 min 63 W/m² 8,3 °C 9,1 °C 0,0 km/h (0 Bft)
21.04.2025 07:36 22,7 °C 9,1 °C 50 % 95 % 1009,7 hPa 0,0 l/m² 0,0 km/h (0 Bft) N 0 ° 1 min 65 W/m² 8,3 °C 9,1 °C 0,0 km/h (0 Bft)
21.04.2025 07:37 22,7 °C 9,1 °C 50 % 95 % 1009,7 hPa 0,0 l/m² 0,0 km/h (0 Bft) N 0 ° 1 min 67 W/m² 8,3 °C 9,1 °C 0,0 km/h (0 Bft)
21.04.2025 07:38 22,7 °C 9,2 °C 50 % 95 % 1009,7 hPa 0,0 l/m² 0,0 km/h (0 Bft) N 0 ° 1 min 72 W/m² 8,4 °C 9,2 °C 0,0 km/h (0 Bft)
21.04.2025 07:39 22,7 °C 9,2 °C 50 % 95 % 1009,7 hPa 0,0 l/m² 0,0 km/h (0 Bft) O-NO 67 ° 1 min 70 W/m² 8,4 °C 9,2 °C 1,6 km/h (1 Bft)
21.04.2025 07:40 22,7 °C 9,2 °C 50 % 95 % 1009,7 hPa 0,0 l/m² 3,2 km/h (1 Bft) O-NO 67 ° 1 min 100 W/m² 8,4 °C 9,2 °C 3,2 km/h (1 Bft)
21.04.2025 07:41 22,7 °C 9,3 °C 50 % 95 % 1009,7 hPa 0,0 l/m² 1,6 km/h (1 Bft) O-NO 67 ° 1 min 88 W/m² 8,5 °C 9,3 °C 3,2 km/h (1 Bft)
21.04.2025 07:42 22,7 °C 9,3 °C 50 % 95 % 1009,7 hPa 0,0 l/m² 1,6 km/h (1 Bft) O-NO 67 ° 1 min 79 W/m² 8,5 °C 9,3 °C 3,2 km/h (1 Bft)
21.04.2025 07:43 22,7 °C 9,3 °C 50 % 95 % 1009,7 hPa 0,0 l/m² 1,6 km/h (1 Bft) O-NO 67 ° 1 min 86 W/m² 8,5 °C 9,3 °C 3,2 km/h (1 Bft)
21.04.2025 07:44 22,7 °C 9,3 °C 50 % 95 % 1009,7 hPa 0,0 l/m² 1,6 km/h (1 Bft) O-NO 67 ° 1 min 91 W/m² 8,5 °C 9,3 °C 3,2 km/h (1 Bft)
21.04.2025 07:45 22,7 °C 9,3 °C 50 % 95 % 1009,6 hPa 0,0 l/m² 0,0 km/h (0 Bft) N 0 ° 1 min 86 W/m² 8,5 °C 9,3 °C 0,0 km/h (0 Bft)
21.04.2025 07:46 22,7 °C 9,4 °C 50 % 95 % 1009,7 hPa 0,0 l/m² 0,0 km/h (0 Bft) N 0 ° 1 min 98 W/m² 8,6 °C 9,4 °C 0,0 km/h (0 Bft)
21.04.2025 07:47 22,7 °C 9,4 °C 50 % 95 % 1009,5 hPa 0,0 l/m² 0,0 km/h (0 Bft) N 0 ° 1 min 93 W/m² 8,6 °C 9,4 °C 0,0 km/h (0 Bft)
21.04.2025 07:48 22,7 °C 9,4 °C 50 % 95 % 1009,5 hPa 0,0 l/m² 0,0 km/h (0 Bft) N 0 ° 1 min 86 W/m² 8,6 °C 9,4 °C 0,0 km/h (0 Bft)
21.04.2025 07:49 22,7 °C 9,4 °C 50 % 95 % 1009,6 hPa 0,0 l/m² 0,0 km/h (0 Bft) N 0 ° 1 min 86 W/m² 8,6 °C 9,4 °C 0,0 km/h (0 Bft)
21.04.2025 07:50 22,7 °C 9,4 °C 50 % 95 % 1009,5 hPa 0,0 l/m² 1,6 km/h (1 Bft) O-NO 67 ° 1 min 121 W/m² 8,6 °C 9,4 °C 1,6 km/h (1 Bft)
21.04.2025 07:51 22,7 °C 9,5 °C 50 % 95 % 1009,5 hPa 0,0 l/m² 0,0 km/h (0 Bft) O-NO 67 ° 1 min 118 W/m² 8,7 °C 9,5 °C 1,6 km/h (1 Bft)
21.04.2025 07:52 22,7 °C 9,5 °C 50 % 95 % 1009,5 hPa 0,0 l/m² 1,6 km/h (1 Bft) O-NO 67 ° 1 min 102 W/m² 8,7 °C 9,5 °C 3,2 km/h (1 Bft)
21.04.2025 07:53 22,7 °C 9,5 °C 50 % 95 % 1009,5 hPa 0,0 l/m² 1,6 km/h (1 Bft) O-NO 67 ° 1 min 86 W/m² 8,7 °C 9,5 °C 3,2 km/h (1 Bft)
21.04.2025 07:54 22,7 °C 9,6 °C 50 % 95 % 1009,5 hPa 0,0 l/m² 1,6 km/h (1 Bft) O-NO 67 ° 1 min 97 W/m² 8,8 °C 9,6 °C 1,6 km/h (1 Bft)
21.04.2025 07:55 22,7 °C 9,6 °C 50 % 95 % 1009,5 hPa 0,0 l/m² 0,0 km/h (0 Bft) O-NO 67 ° 1 min 93 W/m² 8,8 °C 9,6 °C 1,6 km/h (1 Bft)
21.04.2025 07:56 22,7 °C 9,6 °C 50 % 95 % 1009,5 hPa 0,0 l/m² 0,0 km/h (0 Bft) O-NO 67 ° 1 min 97 W/m² 8,8 °C 9,6 °C 1,6 km/h (1 Bft)
21.04.2025 07:57 22,7 °C 9,6 °C 50 % 95 % 1009,5 hPa 0,0 l/m² 0,0 km/h (0 Bft) O-NO 67 ° 1 min 97 W/m² 8,8 °C 9,6 °C 1,6 km/h (1 Bft)
21.04.2025 07:58 22,7 °C 9,7 °C 50 % 95 % 1009,6 hPa 0,0 l/m² 1,6 km/h (1 Bft) O-NO 67 ° 1 min 97 W/m² 8,9 °C 9,7 °C 3,2 km/h (1 Bft)
21.04.2025 07:59 22,7 °C 9,6 °C 50 % 95 % 1009,7 hPa 0,0 l/m² 3,2 km/h (1 Bft) NO 45 ° 1 min 132 W/m² 8,8 °C 9,6 °C 4,8 km/h (1 Bft)
21.04.2025 08:00 22,7 °C 9,7 °C 50 % 95 % 1009,6 hPa 0,0 l/m² 3,2 km/h (1 Bft) NO 45 ° 1 min 139 W/m² 8,9 °C 9,7 °C 4,8 km/h (1 Bft)
21.04.2025 08:01 22,7 °C 9,6 °C 50 % 95 % 1009,6 hPa 0,0 l/m² 1,6 km/h (1 Bft) NO 45 ° 1 min 102 W/m² 8,8 °C 9,6 °C 3,2 km/h (1 Bft)
21.04.2025 08:02 22,7 °C 9,7 °C 50 % 95 % 1009,7 hPa 0,0 l/m² 1,6 km/h (1 Bft) NO 45 ° 1 min 163 W/m² 8,9 °C 9,7 °C 3,2 km/h (1 Bft)
21.04.2025 08:03 22,7 °C 9,7 °C 50 % 95 % 1009,7 hPa 0,0 l/m² 0,0 km/h (0 Bft) NO 45 ° 1 min 144 W/m² 8,9 °C 9,7 °C 3,2 km/h (1 Bft)
21.04.2025 08:04 22,7 °C 9,7 °C 50 % 95 % 1009,7 hPa 0,0 l/m² 3,2 km/h (1 Bft) N-NO 22 ° 1 min 130 W/m² 8,9 °C 9,7 °C 4,8 km/h (1 Bft)
21.04.2025 08:05 22,7 °C 9,7 °C 50 % 95 % 1009,8 hPa 0,0 l/m² 1,6 km/h (1 Bft) N-NO 22 ° 1 min 123 W/m² 8,9 °C 9,7 °C 3,2 km/h (1 Bft)
21.04.2025 08:06 22,7 °C 9,7 °C 50 % 95 % 1009,8 hPa 0,0 l/m² 3,2 km/h (1 Bft) N-NO 22 ° 1 min 155 W/m² 8,9 °C 9,7 °C 4,8 km/h (1 Bft)
21.04.2025 08:07 22,7 °C 9,7 °C 50 % 95 % 1009,8 hPa 0,0 l/m² 3,2 km/h (1 Bft) N-NO 22 ° 1 min 155 W/m² 8,9 °C 9,7 °C 4,8 km/h (1 Bft)
21.04.2025 08:08 22,7 °C 9,8 °C 50 % 95 % 1009,8 hPa 0,0 l/m² 0,0 km/h (0 Bft) N-NO 22 ° 1 min 139 W/m² 9,0 °C 9,8 °C 1,6 km/h (1 Bft)
21.04.2025 08:09 22,7 °C 9,8 °C 50 % 95 % 1009,9 hPa 0,0 l/m² 1,6 km/h (1 Bft) N-NO 22 ° 1 min 178 W/m² 9,0 °C 9,8 °C 4,8 km/h (1 Bft)
21.04.2025 08:10 22,7 °C 9,9 °C 50 % 95 % 1009,8 hPa 0,0 l/m² 3,2 km/h (1 Bft) N-NO 22 ° 1 min 181 W/m² 9,1 °C 9,9 °C 4,8 km/h (1 Bft)
21.04.2025 08:11 22,7 °C 9,9 °C 50 % 95 % 1009,8 hPa 0,0 l/m² 1,6 km/h (1 Bft) N 360 ° 1 min 186 W/m² 9,1 °C 9,9 °C 3,2 km/h (1 Bft)
21.04.2025 08:12 22,7 °C 10,1 °C 50 % 95 % 1009,8 hPa 0,0 l/m² 1,6 km/h (1 Bft) N 360 ° 1 min 241 W/m² 9,3 °C 10,1 °C 3,2 km/h (1 Bft)
21.04.2025 08:13 22,7 °C 10,1 °C 50 % 95 % 1009,8 hPa 0,0 l/m² 0,0 km/h (0 Bft) N 360 ° 1 min 250 W/m² 9,3 °C 10,1 °C 3,2 km/h (1 Bft)
21.04.2025 08:14 22,7 °C 10,2 °C 50 % 95 % 1009,8 hPa 0,0 l/m² 1,6 km/h (1 Bft) N 360 ° 1 min 135 W/m² 9,4 °C 10,2 °C 3,2 km/h (1 Bft)
21.04.2025 08:15 22,7 °C 10,2 °C 50 % 95 % 1009,8 hPa 0,0 l/m² 0,0 km/h (0 Bft) N 360 ° 1 min 109 W/m² 9,4 °C 10,2 °C 1,6 km/h (1 Bft)
21.04.2025 08:16 22,7 °C 10,3 °C 50 % 95 % 1009,8 hPa 0,0 l/m² 0,0 km/h (0 Bft) N 360 ° 1 min 130 W/m² 9,5 °C 10,3 °C 1,6 km/h (1 Bft)
21.04.2025 08:17 22,7 °C 10,2 °C 50 % 95 % 1009,8 hPa 0,0 l/m² 0,0 km/h (0 Bft) N 0 ° 1 min 132 W/m² 9,4 °C 10,2 °C 0,0 km/h (0 Bft)
21.04.2025 08:18 22,7 °C 10,2 °C 50 % 95 % 1009,8 hPa 0,0 l/m² 1,6 km/h (1 Bft) N 360 ° 1 min 142 W/m² 9,4 °C 10,2 °C 3,2 km/h (1 Bft)
21.04.2025 08:19 22,7 °C 10,2 °C 50 % 95 % 1009,8 hPa 0,0 l/m² 1,6 km/h (1 Bft) N 360 ° 1 min 243 W/m² 9,4 °C 10,2 °C 3,2 km/h (1 Bft)
21.04.2025 08:20 22,7 °C 10,2 °C 50 % 95 % 1009,8 hPa 0,0 l/m² 0,0 km/h (0 Bft) N 360 ° 1 min 301 W/m² 9,4 °C 10,2 °C 1,6 km/h (1 Bft)
21.04.2025 08:21 22,7 °C 10,3 °C 50 % 95 % 1009,8 hPa 0,0 l/m² 0,0 km/h (0 Bft) N 0 ° 1 min 294 W/m² 9,5 °C 10,3 °C 0,0 km/h (0 Bft)
21.04.2025 08:22 22,7 °C 10,5 °C 50 % 95 % 1009,9 hPa 0,0 l/m² 0,0 km/h (0 Bft) N 0 ° 1 min 315 W/m² 9,7 °C 10,5 °C 0,0 km/h (0 Bft)
21.04.2025 08:23 22,7 °C 10,6 °C 50 % 95 % 1009,9 hPa 0,0 l/m² 0,0 km/h (0 Bft) N 0 ° 1 min 302 W/m² 9,8 °C 10,6 °C 0,0 km/h (0 Bft)
21.04.2025 08:24 22,7 °C 10,6 °C 50 % 95 % 1009,9 hPa 0,0 l/m² 0,0 km/h (0 Bft) N 360 ° 1 min 313 W/m² 9,8 °C 10,6 °C 1,6 km/h (1 Bft)
21.04.2025 08:25 22,7 °C 10,7 °C 50 % 95 % 1009,9 hPa 0,0 l/m² 0,0 km/h (0 Bft) N 360 ° 1 min 320 W/m² 9,9 °C 10,7 °C 1,6 km/h (1 Bft)
21.04.2025 08:31 22,7 °C 11,2 °C 50 % 95 % 1010,0 hPa 0,0 l/m² 1,3 km/h (1 Bft) N 5 ° 6 min 374 W/m² 10,4 °C 11,2 °C 3,2 km/h (1 Bft)
21.04.2025 08:33 22,7 °C 11,3 °C 50 % 95 % 1010,0 hPa 0,0 l/m² 0,0 km/h (0 Bft) N 5 ° 2 min 387 W/m² 10,5 °C 11,3 °C 0,0 km/h (0 Bft)
21.04.2025 08:34 22,8 °C 11,3 °C 50 % 95 % 1010,0 hPa 0,0 l/m² 0,3 km/h (0 Bft) N 5 ° 1 min 295 W/m² 10,5 °C 11,3 °C 1,6 km/h (1 Bft)
21.04.2025 08:35 22,7 °C 11,4 °C 50 % 95 % 1010,0 hPa 0,0 l/m² 2,3 km/h (1 Bft) N 5 ° 1 min 315 W/m² 10,6 °C 11,4 °C 4,8 km/h (1 Bft)
21.04.2025 08:36 22,8 °C 11,3 °C 50 % 95 % 1010,1 hPa 0,0 l/m² 3,4 km/h (1 Bft) N 5 ° 1 min 408 W/m² 10,5 °C 11,3 °C 4,8 km/h (1 Bft)
21.04.2025 08:38 22,8 °C 11,3 °C 50 % 95 % 1010,1 hPa 0,0 l/m² 3,2 km/h (1 Bft) N 5 ° 2 min 422 W/m² 10,5 °C 11,3 °C 3,2 km/h (1 Bft)
21.04.2025 08:39 22,8 °C 11,4 °C 50 % 94 % 1010,1 hPa 0,0 l/m² 3,2 km/h (1 Bft) N 360 ° 1 min 427 W/m² 10,5 °C 11,4 °C 4,8 km/h (1 Bft)
21.04.2025 08:40 22,8 °C 11,6 °C 50 % 94 % 1010,1 hPa 0,0 l/m² 3,2 km/h (1 Bft) N 360 ° 1 min 371 W/m² 10,7 °C 11,6 °C 4,8 km/h (1 Bft)
21.04.2025 08:41 22,8 °C 11,8 °C 50 % 95 % 1010,2 hPa 0,0 l/m² 4,8 km/h (1 Bft) N 360 ° 1 min 336 W/m² 11,0 °C 11,8 °C 4,8 km/h (1 Bft)
21.04.2025 08:42 22,8 °C 11,9 °C 50 % 94 % 1010,1 hPa 0,0 l/m² 4,8 km/h (1 Bft) N-NW 337 ° 1 min 371 W/m² 11,0 °C 11,9 °C 6,4 km/h (2 Bft)
21.04.2025 08:43 22,9 °C 12,0 °C 50 % 94 % 1010,1 hPa 0,0 l/m² 3,2 km/h (1 Bft) NW 315 ° 1 min 406 W/m² 11,1 °C 12,0 °C 4,8 km/h (1 Bft)
21.04.2025 08:44 22,9 °C 12,1 °C 50 % 94 % 1010,2 hPa 0,0 l/m² 4,8 km/h (1 Bft) W 270 ° 1 min 329 W/m² 11,2 °C 12,1 °C 6,4 km/h (2 Bft)
21.04.2025 08:45 22,9 °C 12,1 °C 50 % 94 % 1010,1 hPa 0,0 l/m² 4,8 km/h (1 Bft) W-SW 247 ° 1 min 329 W/m² 11,2 °C 12,1 °C 6,4 km/h (2 Bft)
21.04.2025 08:46 22,8 °C 12,1 °C 50 % 93 % 1010,1 hPa 0,0 l/m² 4,8 km/h (1 Bft) SW 225 ° 1 min 415 W/m² 11,0 °C 12,1 °C 6,4 km/h (2 Bft)
21.04.2025 08:47 22,9 °C 12,2 °C 50 % 93 % 1010,1 hPa 0,0 l/m² 4,8 km/h (1 Bft) SW 225 ° 1 min 366 W/m² 11,1 °C 12,2 °C 6,4 km/h (2 Bft)
21.04.2025 08:48 22,9 °C 12,2 °C 50 % 93 % 1010,1 hPa 0,0 l/m² 6,4 km/h (2 Bft) SW 225 ° 1 min 385 W/m² 11,1 °C 12,2 °C 8,0 km/h (2 Bft)
21.04.2025 08:49 22,9 °C 12,2 °C 50 % 93 % 1010,1 hPa 0,0 l/m² 4,8 km/h (1 Bft) S-SW 202 ° 1 min 392 W/m² 11,1 °C 12,2 °C 6,4 km/h (2 Bft)
21.04.2025 08:50 22,9 °C 12,2 °C 50 % 93 % 1010,2 hPa 0,0 l/m² 6,4 km/h (2 Bft) S-SW 202 ° 1 min 406 W/m² 11,1 °C 12,2 °C 9,7 km/h (2 Bft)
21.04.2025 08:51 22,9 °C 12,3 °C 50 % 93 % 1010,2 hPa 0,0 l/m² 6,4 km/h (2 Bft) S-SW 202 ° 1 min 418 W/m² 11,2 °C 12,3 °C 8,0 km/h (2 Bft)
21.04.2025 08:52 22,9 °C 12,3 °C 50 % 92 % 1010,3 hPa 0,0 l/m² 4,8 km/h (1 Bft) S-SW 202 ° 1 min 417 W/m² 11,0 °C 12,3 °C 4,8 km/h (1 Bft)
21.04.2025 08:53 22,9 °C 12,3 °C 50 % 92 % 1010,2 hPa 0,0 l/m² 4,8 km/h (1 Bft) S-SW 202 ° 1 min 399 W/m² 11,0 °C 12,3 °C 6,4 km/h (2 Bft)
21.04.2025 08:54 22,9 °C 12,4 °C 50 % 93 % 1010,2 hPa 0,0 l/m² 6,4 km/h (2 Bft) S-SW 202 ° 1 min 388 W/m² 11,3 °C 12,4 °C 8,0 km/h (2 Bft)
21.04.2025 08:55 22,9 °C 12,4 °C 50 % 92 % 1010,3 hPa 0,0 l/m² 6,4 km/h (2 Bft) S-SW 202 ° 1 min 397 W/m² 11,1 °C 12,4 °C 6,4 km/h (2 Bft)
21.04.2025 08:56 22,9 °C 12,4 °C 50 % 92 % 1010,2 hPa 0,0 l/m² 4,8 km/h (1 Bft) S-SW 202 ° 1 min 376 W/m² 11,1 °C 12,4 °C 6,4 km/h (2 Bft)
21.04.2025 08:57 22,9 °C 12,6 °C 50 % 93 % 1010,2 hPa 0,0 l/m² 4,8 km/h (1 Bft) S-SW 202 ° 1 min 376 W/m² 11,5 °C 12,6 °C 6,4 km/h (2 Bft)
21.04.2025 08:58 22,9 °C 12,6 °C 50 % 92 % 1010,2 hPa 0,0 l/m² 3,2 km/h (1 Bft) S-SW 202 ° 1 min 362 W/m² 11,3 °C 12,6 °C 4,8 km/h (1 Bft)
21.04.2025 08:59 22,9 °C 12,6 °C 50 % 91 % 1010,2 hPa 0,0 l/m² 4,8 km/h (1 Bft) S-SW 202 ° 1 min 350 W/m² 11,2 °C 12,6 °C 6,4 km/h (2 Bft)
21.04.2025 09:00 22,9 °C 12,5 °C 51 % 91 % 1010,2 hPa 0,0 l/m² 3,2 km/h (1 Bft) S-SW 202 ° 1 min 369 W/m² 11,1 °C 12,5 °C 4,8 km/h (1 Bft)
21.04.2025 09:01 23,0 °C 12,6 °C 51 % 91 % 1010,2 hPa 0,0 l/m² 8,0 km/h (2 Bft) S-SW 202 ° 1 min 338 W/m² 11,2 °C 11,6 °C 9,7 km/h (2 Bft)
21.04.2025 09:02 23,0 °C 12,5 °C 51 % 91 % 1010,3 hPa 0,0 l/m² 8,0 km/h (2 Bft) S-SW 202 ° 1 min 287 W/m² 11,1 °C 11,5 °C 9,7 km/h (2 Bft)
21.04.2025 09:03 23,0 °C 12,4 °C 51 % 91 % 1010,3 hPa 0,0 l/m² 6,4 km/h (2 Bft) S-SW 202 ° 1 min 359 W/m² 11,0 °C 12,4 °C 8,0 km/h (2 Bft)
21.04.2025 09:04 23,0 °C 12,4 °C 51 % 91 % 1010,3 hPa 0,0 l/m² 8,0 km/h (2 Bft) S 180 ° 1 min 329 W/m² 11,0 °C 11,4 °C 11,3 km/h (2 Bft)
21.04.2025 09:05 23,0 °C 12,4 °C 51 % 91 % 1010,3 hPa 0,0 l/m² 9,7 km/h (2 Bft) S 180 ° 1 min 371 W/m² 11,0 °C 10,4 °C 11,3 km/h (2 Bft)
21.04.2025 09:06 23,0 °C 12,4 °C 51 % 91 % 1010,3 hPa 0,0 l/m² 9,7 km/h (2 Bft) S 180 ° 1 min 404 W/m² 11,0 °C 10,4 °C 11,3 km/h (2 Bft)
21.04.2025 09:07 23,0 °C 12,4 °C 51 % 91 % 1010,4 hPa 0,0 l/m² 6,4 km/h (2 Bft) S 180 ° 1 min 427 W/m² 11,0 °C 12,4 °C 9,7 km/h (2 Bft)
21.04.2025 09:08 23,0 °C 12,6 °C 51 % 91 % 1010,4 hPa 0,0 l/m² 8,0 km/h (2 Bft) S 180 ° 1 min 339 W/m² 11,2 °C 11,6 °C 8,0 km/h (2 Bft)
21.04.2025 09:09 23,0 °C 12,7 °C 51 % 92 % 1010,4 hPa 0,0 l/m² 8,0 km/h (2 Bft) S-SW 202 ° 1 min 339 W/m² 11,4 °C 11,7 °C 9,7 km/h (2 Bft)
21.04.2025 09:10 23,0 °C 12,6 °C 51 % 91 % 1010,3 hPa 0,0 l/m² 8,0 km/h (2 Bft) S-SW 202 ° 1 min 475 W/m² 11,2 °C 11,6 °C 9,7 km/h (2 Bft)
21.04.2025 09:11 23,0 °C 12,6 °C 51 % 90 % 1010,3 hPa 0,0 l/m² 8,0 km/h (2 Bft) S-SW 202 ° 1 min 494 W/m² 11,0 °C 11,6 °C 9,7 km/h (2 Bft)
21.04.2025 09:12 23,1 °C 12,7 °C 51 % 91 % 1010,3 hPa 0,0 l/m² 6,4 km/h (2 Bft) SW 225 ° 1 min 475 W/m² 11,3 °C 12,7 °C 8,0 km/h (2 Bft)
21.04.2025 09:13 23,1 °C 12,8 °C 51 % 91 % 1010,4 hPa 0,0 l/m² 8,0 km/h (2 Bft) S 180 ° 1 min 480 W/m² 11,4 °C 11,8 °C 8,0 km/h (2 Bft)
21.04.2025 09:14 23,1 °C 12,9 °C 51 % 91 % 1010,4 hPa 0,0 l/m² 8,0 km/h (2 Bft) S 180 ° 1 min 499 W/m² 11,5 °C 11,9 °C 9,7 km/h (2 Bft)
21.04.2025 09:15 23,1 °C 12,8 °C 51 % 91 % 1010,3 hPa 0,0 l/m² 6,4 km/h (2 Bft) S-SW 202 ° 1 min 452 W/m² 11,4 °C 12,8 °C 9,7 km/h (2 Bft)
21.04.2025 09:16 23,1 °C 12,8 °C 51 % 91 % 1010,4 hPa 0,0 l/m² 8,0 km/h (2 Bft) SW 225 ° 1 min 462 W/m² 11,4 °C 11,8 °C 11,3 km/h (2 Bft)
21.04.2025 09:17 23,1 °C 12,8 °C 51 % 91 % 1010,4 hPa 0,0 l/m² 8,0 km/h (2 Bft) S-SW 202 ° 1 min 483 W/m² 11,4 °C 11,8 °C 9,7 km/h (2 Bft)
21.04.2025 09:18 23,1 °C 12,8 °C 51 % 90 % 1010,4 hPa 0,0 l/m² 8,0 km/h (2 Bft) S-SW 202 ° 1 min 439 W/m² 11,2 °C 11,8 °C 9,7 km/h (2 Bft)
21.04.2025 09:19 23,1 °C 12,9 °C 51 % 90 % 1010,4 hPa 0,0 l/m² 6,4 km/h (2 Bft) S-SW 202 ° 1 min 401 W/m² 11,3 °C 12,9 °C 9,7 km/h (2 Bft)
21.04.2025 09:20 23,1 °C 12,9 °C 51 % 91 % 1010,3 hPa 0,0 l/m² 8,0 km/h (2 Bft) S-SW 202 ° 1 min 415 W/m² 11,5 °C 11,9 °C 11,3 km/h (2 Bft)
21.04.2025 09:21 23,1 °C 13,1 °C 51 % 91 % 1010,2 hPa 0,0 l/m² 8,0 km/h (2 Bft) SW 225 ° 1 min 432 W/m² 11,7 °C 12,1 °C 11,3 km/h (2 Bft)
21.04.2025 09:22 23,1 °C 13,2 °C 51 % 91 % 1010,3 hPa 0,0 l/m² 4,8 km/h (1 Bft) SW 225 ° 1 min 448 W/m² 11,8 °C 13,2 °C 8,0 km/h (2 Bft)
21.04.2025 09:23 23,1 °C 13,2 °C 51 % 90 % 1010,1 hPa 0,0 l/m² 8,0 km/h (2 Bft) SW 225 ° 1 min 487 W/m² 11,6 °C 12,2 °C 8,0 km/h (2 Bft)
21.04.2025 09:24 23,1 °C 13,2 °C 51 % 90 % 1010,1 hPa 0,0 l/m² 8,0 km/h (2 Bft) SW 225 ° 1 min 480 W/m² 11,6 °C 12,2 °C 9,7 km/h (2 Bft)
21.04.2025 09:25 23,1 °C 13,2 °C 51 % 90 % 1010,3 hPa 0,0 l/m² 6,4 km/h (2 Bft) SW 225 ° 1 min 415 W/m² 11,6 °C 13,2 °C 9,7 km/h (2 Bft)
21.04.2025 09:26 23,1 °C 13,1 °C 51 % 89 % 1010,2 hPa 0,0 l/m² 4,8 km/h (1 Bft) S-SW 202 ° 1 min 385 W/m² 11,3 °C 13,1 °C 8,0 km/h (2 Bft)
21.04.2025 09:27 23,1 °C 13,1 °C 51 % 89 % 1010,2 hPa 0,2 l/m² 4,8 km/h (1 Bft) S-SW 202 ° 1 min 350 W/m² 11,3 °C 13,1 °C 8,0 km/h (2 Bft)
21.04.2025 09:28 23,1 °C 13,1 °C 51 % 89 % 1010,4 hPa 0,0 l/m² 4,8 km/h (1 Bft) S-SW 202 ° 1 min 322 W/m² 11,3 °C 13,1 °C 6,4 km/h (2 Bft)
21.04.2025 09:29 23,1 °C 13,2 °C 51 % 90 % 1010,3 hPa 0,0 l/m² 3,2 km/h (1 Bft) S-SW 202 ° 1 min 295 W/m² 11,6 °C 13,2 °C 4,8 km/h (1 Bft)
21.04.2025 09:30 23,1 °C 13,2 °C 51 % 90 % 1010,4 hPa 0,0 l/m² 6,4 km/h (2 Bft) S-SW 202 ° 1 min 290 W/m² 11,6 °C 13,2 °C 12,9 km/h (3 Bft)
21.04.2025 09:31 23,1 °C 13,2 °C 51 % 89 % 1010,3 hPa 0,0 l/m² 6,4 km/h (2 Bft) S-SW 202 ° 1 min 278 W/m² 11,4 °C 13,2 °C 9,7 km/h (2 Bft)
21.04.2025 09:32 23,1 °C 13,1 °C 51 % 89 % 1010,2 hPa 0,0 l/m² 9,7 km/h (2 Bft) S 180 ° 1 min 274 W/m² 11,3 °C 11,2 °C 11,3 km/h (2 Bft)
21.04.2025 09:33 23,1 °C 13,1 °C 51 % 89 % 1010,4 hPa 0,0 l/m² 4,8 km/h (1 Bft) S-SW 202 ° 1 min 274 W/m² 11,3 °C 13,1 °C 6,4 km/h (2 Bft)
21.04.2025 09:34 23,1 °C 13,2 °C 51 % 90 % 1010,2 hPa 0,0 l/m² 8,0 km/h (2 Bft) SW 225 ° 1 min 274 W/m² 11,6 °C 12,2 °C 9,7 km/h (2 Bft)
21.04.2025 09:35 23,1 °C 13,2 °C 51 % 89 % 1010,2 hPa 0,0 l/m² 9,7 km/h (2 Bft) S-SW 202 ° 1 min 272 W/m² 11,4 °C 11,3 °C 12,9 km/h (3 Bft)
21.04.2025 09:36 23,1 °C 13,2 °C 51 % 89 % 1010,3 hPa 0,0 l/m² 9,7 km/h (2 Bft) S-SW 202 ° 1 min 287 W/m² 11,4 °C 11,3 °C 9,7 km/h (2 Bft)
21.04.2025 09:37 23,1 °C 13,2 °C 51 % 89 % 1010,3 hPa 0,0 l/m² 8,0 km/h (2 Bft) SW 225 ° 1 min 290 W/m² 11,4 °C 12,2 °C 9,7 km/h (2 Bft)
21.04.2025 09:38 23,1 °C 13,2 °C 51 % 89 % 1010,2 hPa 0,0 l/m² 8,0 km/h (2 Bft) S-SW 202 ° 1 min 316 W/m² 11,4 °C 12,2 °C 11,3 km/h (2 Bft)
21.04.2025 09:39 23,1 °C 13,2 °C 51 % 89 % 1010,3 hPa 0,0 l/m² 6,4 km/h (2 Bft) SW 225 ° 1 min 353 W/m² 11,4 °C 13,2 °C 8,0 km/h (2 Bft)
21.04.2025 09:40 23,1 °C 13,2 °C 51 % 89 % 1010,2 hPa 0,0 l/m² 4,8 km/h (1 Bft) SW 225 ° 1 min 336 W/m² 11,4 °C 13,2 °C 6,4 km/h (2 Bft)
21.04.2025 09:41 23,1 °C 13,2 °C 51 % 89 % 1010,2 hPa 0,0 l/m² 3,2 km/h (1 Bft) SW 225 ° 1 min 380 W/m² 11,4 °C 13,2 °C 8,0 km/h (2 Bft)
21.04.2025 09:42 23,1 °C 13,3 °C 51 % 89 % 1010,1 hPa 0,0 l/m² 6,4 km/h (2 Bft) S 180 ° 1 min 364 W/m² 11,5 °C 13,3 °C 8,0 km/h (2 Bft)
21.04.2025 09:43 23,1 °C 13,4 °C 51 % 89 % 1010,1 hPa 0,0 l/m² 6,4 km/h (2 Bft) S 180 ° 1 min 366 W/m² 11,6 °C 13,4 °C 11,3 km/h (2 Bft)
21.04.2025 09:44 23,1 °C 13,6 °C 51 % 89 % 1010,2 hPa 0,0 l/m² 6,4 km/h (2 Bft) W-SW 247 ° 1 min 359 W/m² 11,8 °C 13,6 °C 8,0 km/h (2 Bft)
21.04.2025 09:45 23,1 °C 13,6 °C 51 % 88 % 1010,2 hPa 0,0 l/m² 4,8 km/h (1 Bft) W-SW 247 ° 1 min 339 W/m² 11,6 °C 13,6 °C 6,4 km/h (2 Bft)
21.04.2025 09:46 23,1 °C 13,6 °C 51 % 88 % 1010,1 hPa 0,0 l/m² 6,4 km/h (2 Bft) SW 225 ° 1 min 383 W/m² 11,6 °C 13,6 °C 9,7 km/h (2 Bft)
21.04.2025 09:47 23,1 °C 13,7 °C 51 % 88 % 1010,2 hPa 0,0 l/m² 8,0 km/h (2 Bft) S-SW 202 ° 1 min 392 W/m² 11,7 °C 12,7 °C 9,7 km/h (2 Bft)
21.04.2025 09:48 23,1 °C 13,7 °C 51 % 88 % 1010,2 hPa 0,0 l/m² 8,0 km/h (2 Bft) S-SW 202 ° 1 min 325 W/m² 11,7 °C 12,7 °C 9,7 km/h (2 Bft)
21.04.2025 09:49 23,1 °C 13,7 °C 51 % 88 % 1010,2 hPa 0,0 l/m² 8,0 km/h (2 Bft) S 180 ° 1 min 302 W/m² 11,7 °C 12,7 °C 9,7 km/h (2 Bft)
21.04.2025 09:50 23,1 °C 13,7 °C 51 % 88 % 1010,3 hPa 0,0 l/m² 8,0 km/h (2 Bft) S-SW 202 ° 1 min 285 W/m² 11,7 °C 12,7 °C 11,3 km/h (2 Bft)
21.04.2025 09:51 23,1 °C 13,7 °C 51 % 88 % 1010,2 hPa 0,0 l/m² 9,7 km/h (2 Bft) S-SW 202 ° 1 min 265 W/m² 11,7 °C 11,8 °C 12,9 km/h (3 Bft)
21.04.2025 09:52 23,1 °C 13,7 °C 51 % 88 % 1010,3 hPa 0,0 l/m² 9,7 km/h (2 Bft) SW 225 ° 1 min 257 W/m² 11,7 °C 11,8 °C 11,3 km/h (2 Bft)
21.04.2025 09:53 23,1 °C 13,7 °C 51 % 88 % 1010,3 hPa 0,0 l/m² 9,7 km/h (2 Bft) S-SW 202 ° 1 min 251 W/m² 11,7 °C 11,8 °C 11,3 km/h (2 Bft)
21.04.2025 09:54 23,1 °C 13,7 °C 51 % 88 % 1010,3 hPa 0,0 l/m² 11,3 km/h (2 Bft) S-SW 202 ° 1 min 239 W/m² 11,7 °C 11,1 °C 12,9 km/h (3 Bft)
21.04.2025 09:55 23,1 °C 13,7 °C 51 % 87 % 1010,4 hPa 0,0 l/m² 11,3 km/h (2 Bft) SW 225 ° 1 min 236 W/m² 11,6 °C 11,1 °C 12,9 km/h (3 Bft)
21.04.2025 09:56 23,1 °C 13,7 °C 51 % 87 % 1010,5 hPa 0,0 l/m² 8,0 km/h (2 Bft) S-SW 202 ° 1 min 234 W/m² 11,6 °C 12,7 °C 9,7 km/h (2 Bft)
21.04.2025 09:57 23,1 °C 13,7 °C 51 % 88 % 1010,4 hPa 0,0 l/m² 8,0 km/h (2 Bft) S-SW 202 ° 1 min 232 W/m² 11,7 °C 12,7 °C 11,3 km/h (2 Bft)
21.04.2025 09:58 23,1 °C 13,6 °C 51 % 87 % 1010,4 hPa 0,0 l/m² 6,4 km/h (2 Bft) SW 225 ° 1 min 230 W/m² 11,5 °C 13,6 °C 9,7 km/h (2 Bft)
21.04.2025 09:59 23,1 °C 13,6 °C 51 % 88 % 1010,4 hPa 0,0 l/m² 6,4 km/h (2 Bft) SW 225 ° 1 min 229 W/m² 11,6 °C 13,6 °C 9,7 km/h (2 Bft)
21.04.2025 10:00 23,1 °C 13,6 °C 51 % 87 % 1010,4 hPa 0,0 l/m² 8,0 km/h (2 Bft) SW 225 ° 1 min 227 W/m² 11,5 °C 12,6 °C 12,9 km/h (3 Bft)
21.04.2025 10:01 23,1 °C 13,6 °C 51 % 87 % 1010,5 hPa 0,0 l/m² 9,7 km/h (2 Bft) SW 225 ° 1 min 225 W/m² 11,5 °C 11,7 °C 11,3 km/h (2 Bft)
21.04.2025 10:02 23,1 °C 13,6 °C 51 % 88 % 1010,5 hPa 0,0 l/m² 9,7 km/h (2 Bft) SW 225 ° 1 min 221 W/m² 11,6 °C 11,7 °C 12,9 km/h (3 Bft)
21.04.2025 10:03 23,1 °C 13,6 °C 50 % 87 % 1010,6 hPa 0,0 l/m² 11,3 km/h (2 Bft) SW 225 ° 1 min 218 W/m² 11,5 °C 11,0 °C 12,9 km/h (3 Bft)
21.04.2025 10:04 23,1 °C 13,6 °C 50 % 87 % 1010,6 hPa 0,0 l/m² 11,3 km/h (2 Bft) SW 225 ° 1 min 214 W/m² 11,5 °C 11,0 °C 12,9 km/h (3 Bft)
21.04.2025 10:05 23,1 °C 13,5 °C 50 % 87 % 1010,6 hPa 0,0 l/m² 9,7 km/h (2 Bft) S-SW 202 ° 1 min 213 W/m² 11,4 °C 11,6 °C 12,9 km/h (3 Bft)
21.04.2025 10:06 23,1 °C 13,4 °C 50 % 87 % 1010,5 hPa 0,0 l/m² 11,3 km/h (2 Bft) S-SW 202 ° 1 min 209 W/m² 11,3 °C 10,7 °C 14,5 km/h (3 Bft)
21.04.2025 10:07 23,1 °C 13,4 °C 50 % 87 % 1010,6 hPa 0,0 l/m² 8,0 km/h (2 Bft) S-SW 202 ° 1 min 209 W/m² 11,3 °C 12,4 °C 14,5 km/h (3 Bft)
21.04.2025 10:08 23,1 °C 13,4 °C 50 % 87 % 1010,6 hPa 0,0 l/m² 12,9 km/h (3 Bft) SW 225 ° 1 min 211 W/m² 11,3 °C 10,1 °C 16,1 km/h (3 Bft)
21.04.2025 10:09 23,1 °C 13,4 °C 50 % 87 % 1010,6 hPa 0,0 l/m² 11,3 km/h (2 Bft) SW 225 ° 1 min 214 W/m² 11,3 °C 10,7 °C 16,1 km/h (3 Bft)
21.04.2025 10:10 23,1 °C 13,4 °C 50 % 87 % 1010,6 hPa 0,0 l/m² 9,7 km/h (2 Bft) S-SW 202 ° 1 min 214 W/m² 11,3 °C 11,5 °C 12,9 km/h (3 Bft)
21.04.2025 10:11 23,0 °C 13,5 °C 50 % 88 % 1010,6 hPa 0,0 l/m² 9,7 km/h (2 Bft) SW 225 ° 1 min 216 W/m² 11,6 °C 11,6 °C 12,9 km/h (3 Bft)
21.04.2025 10:12 23,1 °C 13,5 °C 50 % 87 % 1010,5 hPa 0,0 l/m² 8,0 km/h (2 Bft) SW 225 ° 1 min 218 W/m² 11,4 °C 12,5 °C 11,3 km/h (2 Bft)
21.04.2025 10:13 23,1 °C 13,6 °C 50 % 87 % 1010,6 hPa 0,0 l/m² 9,7 km/h (2 Bft) SW 225 ° 1 min 221 W/m² 11,5 °C 11,7 °C 11,3 km/h (2 Bft)
21.04.2025 10:14 23,0 °C 13,6 °C 50 % 87 % 1010,6 hPa 0,0 l/m² 8,0 km/h (2 Bft) SW 225 ° 1 min 223 W/m² 11,5 °C 12,6 °C 11,3 km/h (2 Bft)
21.04.2025 10:15 23,1 °C 13,6 °C 50 % 88 % 1010,6 hPa 0,0 l/m² 8,0 km/h (2 Bft) S-SW 202 ° 1 min 234 W/m² 11,6 °C 12,6 °C 9,7 km/h (2 Bft)
21.04.2025 10:16 23,1 °C 13,6 °C 50 % 88 % 1010,6 hPa 0,0 l/m² 11,3 km/h (2 Bft) S-SW 202 ° 1 min 243 W/m² 11,6 °C 11,0 °C 12,9 km/h (3 Bft)
21.04.2025 10:17 23,0 °C 13,6 °C 50 % 87 % 1010,6 hPa 0,0 l/m² 9,7 km/h (2 Bft) S 180 ° 1 min 258 W/m² 11,5 °C 11,7 °C 12,9 km/h (3 Bft)
21.04.2025 10:18 23,0 °C 13,6 °C 50 % 87 % 1010,6 hPa 0,0 l/m² 9,7 km/h (2 Bft) S-SW 202 ° 1 min 258 W/m² 11,5 °C 11,7 °C 12,9 km/h (3 Bft)
21.04.2025 10:19 23,0 °C 13,6 °C 50 % 87 % 1010,7 hPa 0,0 l/m² 11,3 km/h (2 Bft) S-SW 202 ° 1 min 285 W/m² 11,5 °C 11,0 °C 12,9 km/h (3 Bft)
21.04.2025 10:20 23,1 °C 13,6 °C 50 % 87 % 1010,7 hPa 0,0 l/m² 11,3 km/h (2 Bft) S-SW 202 ° 1 min 283 W/m² 11,5 °C 11,0 °C 14,5 km/h (3 Bft)
21.04.2025 10:21 23,0 °C 13,6 °C 50 % 87 % 1010,6 hPa 0,0 l/m² 11,3 km/h (2 Bft) S-SW 202 ° 1 min 288 W/m² 11,5 °C 11,0 °C 12,9 km/h (3 Bft)
21.04.2025 10:22 23,0 °C 13,6 °C 50 % 87 % 1010,7 hPa 0,0 l/m² 11,3 km/h (2 Bft) S-SW 202 ° 1 min 279 W/m² 11,5 °C 11,0 °C 12,9 km/h (3 Bft)
21.04.2025 10:23 23,0 °C 13,6 °C 50 % 86 % 1010,6 hPa 0,0 l/m² 8,0 km/h (2 Bft) S-SW 202 ° 1 min 276 W/m² 11,3 °C 12,6 °C 11,3 km/h (2 Bft)
21.04.2025 10:24 23,0 °C 13,6 °C 50 % 87 % 1010,6 hPa 0,0 l/m² 9,7 km/h (2 Bft) S-SW 202 ° 1 min 279 W/m² 11,5 °C 11,7 °C 14,5 km/h (3 Bft)
21.04.2025 10:25 23,0 °C 13,7 °C 50 % 87 % 1010,6 hPa 0,0 l/m² 9,7 km/h (2 Bft) SW 225 ° 1 min 281 W/m² 11,6 °C 11,8 °C 11,3 km/h (2 Bft)
21.04.2025 10:26 23,0 °C 13,6 °C 50 % 87 % 1010,6 hPa 0,0 l/m² 8,0 km/h (2 Bft) SW 225 ° 1 min 281 W/m² 11,5 °C 12,6 °C 9,7 km/h (2 Bft)
21.04.2025 10:27 23,0 °C 13,7 °C 50 % 87 % 1010,6 hPa 0,0 l/m² 9,7 km/h (2 Bft) S-SW 202 ° 1 min 285 W/m² 11,6 °C 11,8 °C 11,3 km/h (2 Bft)
21.04.2025 10:28 23,0 °C 13,7 °C 50 % 87 % 1010,7 hPa 0,0 l/m² 9,7 km/h (2 Bft) S-SW 202 ° 1 min 281 W/m² 11,6 °C 11,8 °C 12,9 km/h (3 Bft)
21.04.2025 10:29 23,0 °C 13,7 °C 50 % 87 % 1010,7 hPa 0,0 l/m² 9,7 km/h (2 Bft) S-SW 202 ° 1 min 271 W/m² 11,6 °C 11,8 °C 12,9 km/h (3 Bft)
21.04.2025 10:30 23,0 °C 13,7 °C 50 % 87 % 1010,6 hPa 0,0 l/m² 11,3 km/h (2 Bft) S-SW 202 ° 1 min 267 W/m² 11,6 °C 11,1 °C 12,9 km/h (3 Bft)
21.04.2025 10:31 23,0 °C 13,7 °C 50 % 86 % 1010,7 hPa 0,0 l/m² 11,3 km/h (2 Bft) S-SW 202 ° 1 min 262 W/m² 11,4 °C 11,1 °C 14,5 km/h (3 Bft)
21.04.2025 10:32 23,0 °C 13,7 °C 50 % 86 % 1010,6 hPa 0,0 l/m² 9,7 km/h (2 Bft) S-SW 202 ° 1 min 258 W/m² 11,4 °C 11,8 °C 12,9 km/h (3 Bft)
21.04.2025 10:33 23,0 °C 13,6 °C 50 % 86 % 1010,7 hPa 0,0 l/m² 9,7 km/h (2 Bft) S-SW 202 ° 1 min 253 W/m² 11,3 °C 11,7 °C 12,9 km/h (3 Bft)
21.04.2025 10:34 23,0 °C 13,6 °C 50 % 86 % 1010,7 hPa 0,0 l/m² 9,7 km/h (2 Bft) S-SW 202 ° 1 min 250 W/m² 11,3 °C 11,7 °C 14,5 km/h (3 Bft)
21.04.2025 10:35 23,0 °C 13,6 °C 50 % 86 % 1010,7 hPa 0,0 l/m² 11,3 km/h (2 Bft) S-SW 202 ° 1 min 239 W/m² 11,3 °C 11,0 °C 14,5 km/h (3 Bft)
21.04.2025 10:36 22,9 °C 13,6 °C 50 % 86 % 1010,8 hPa 0,0 l/m² 8,0 km/h (2 Bft) S-SW 202 ° 1 min 236 W/m² 11,3 °C 12,6 °C 11,3 km/h (2 Bft)
21.04.2025 10:37 23,0 °C 13,6 °C 50 % 86 % 1010,7 hPa 0,0 l/m² 8,0 km/h (2 Bft) S-SW 202 ° 1 min 232 W/m² 11,3 °C 12,6 °C 9,7 km/h (2 Bft)
21.04.2025 10:38 23,0 °C 13,6 °C 50 % 86 % 1010,8 hPa 0,0 l/m² 8,0 km/h (2 Bft) SW 225 ° 1 min 230 W/m² 11,3 °C 12,6 °C 9,7 km/h (2 Bft)
21.04.2025 10:39 22,9 °C 13,7 °C 50 % 86 % 1010,8 hPa 0,0 l/m² 9,7 km/h (2 Bft) SW 225 ° 1 min 229 W/m² 11,4 °C 11,8 °C 12,9 km/h (3 Bft)
21.04.2025 10:40 22,9 °C 13,6 °C 50 % 86 % 1010,8 hPa 0,0 l/m² 9,7 km/h (2 Bft) SW 225 ° 1 min 230 W/m² 11,3 °C 11,7 °C 12,9 km/h (3 Bft)
21.04.2025 10:41 23,0 °C 13,6 °C 50 % 86 % 1010,8 hPa 0,0 l/m² 9,7 km/h (2 Bft) SW 225 ° 1 min 232 W/m² 11,3 °C 11,7 °C 12,9 km/h (3 Bft)
21.04.2025 10:42 23,0 °C 13,6 °C 50 % 86 % 1010,8 hPa 0,0 l/m² 8,0 km/h (2 Bft) S-SW 202 ° 1 min 236 W/m² 11,3 °C 12,6 °C 11,3 km/h (2 Bft)
21.04.2025 10:43 22,9 °C 13,6 °C 50 % 85 % 1010,9 hPa 0,0 l/m² 9,7 km/h (2 Bft) S-SW 202 ° 1 min 239 W/m² 11,1 °C 11,7 °C 11,3 km/h (2 Bft)
21.04.2025 10:44 22,9 °C 13,4 °C 50 % 85 % 1010,9 hPa 0,0 l/m² 8,0 km/h (2 Bft) S-SW 202 ° 1 min 244 W/m² 10,9 °C 12,4 °C 8,0 km/h (2 Bft)
21.04.2025 10:45 23,0 °C 13,6 °C 50 % 85 % 1010,9 hPa 0,0 l/m² 6,4 km/h (2 Bft) S-SW 202 ° 1 min 248 W/m² 11,1 °C 13,6 °C 9,7 km/h (2 Bft)
21.04.2025 10:46 23,0 °C 13,6 °C 50 % 86 % 1011,0 hPa 0,0 l/m² 8,0 km/h (2 Bft) S 180 ° 1 min 258 W/m² 11,3 °C 12,6 °C 9,7 km/h (2 Bft)
21.04.2025 10:47 22,9 °C 13,6 °C 50 % 86 % 1011,0 hPa 0,0 l/m² 8,0 km/h (2 Bft) S 180 ° 1 min 265 W/m² 11,3 °C 12,6 °C 11,3 km/h (2 Bft)
21.04.2025 10:48 22,9 °C 13,6 °C 50 % 86 % 1011,0 hPa 0,0 l/m² 9,7 km/h (2 Bft) S-SW 202 ° 1 min 278 W/m² 11,3 °C 11,7 °C 12,9 km/h (3 Bft)
21.04.2025 10:49 22,9 °C 13,5 °C 50 % 86 % 1011,0 hPa 0,0 l/m² 9,7 km/h (2 Bft) S-SW 202 ° 1 min 281 W/m² 11,2 °C 11,6 °C 12,9 km/h (3 Bft)
21.04.2025 10:50 22,9 °C 13,6 °C 50 % 86 % 1011,0 hPa 0,0 l/m² 9,7 km/h (2 Bft) SW 225 ° 1 min 285 W/m² 11,3 °C 11,7 °C 11,3 km/h (2 Bft)
21.04.2025 10:51 22,9 °C 13,6 °C 50 % 86 % 1011,1 hPa 0,0 l/m² 9,7 km/h (2 Bft) S-SW 202 ° 1 min 292 W/m² 11,3 °C 11,7 °C 12,9 km/h (3 Bft)
21.04.2025 10:52 22,9 °C 13,6 °C 50 % 86 % 1011,0 hPa 0,0 l/m² 9,7 km/h (2 Bft) S-SW 202 ° 1 min 302 W/m² 11,3 °C 11,7 °C 11,3 km/h (2 Bft)
21.04.2025 10:53 22,9 °C 13,6 °C 50 % 86 % 1011,1 hPa 0,0 l/m² 11,3 km/h (2 Bft) S-SW 202 ° 1 min 309 W/m² 11,3 °C 11,0 °C 14,5 km/h (3 Bft)
21.04.2025 10:54 22,9 °C 13,7 °C 50 % 86 % 1011,2 hPa 0,0 l/m² 12,9 km/h (3 Bft) S-SW 202 ° 1 min 318 W/m² 11,4 °C 10,4 °C 14,5 km/h (3 Bft)
21.04.2025 10:55 22,9 °C 13,6 °C 50 % 86 % 1011,2 hPa 0,0 l/m² 12,9 km/h (3 Bft) S-SW 202 ° 1 min 338 W/m² 11,3 °C 10,3 °C 16,1 km/h (3 Bft)
21.04.2025 10:56 22,9 °C 13,7 °C 50 % 86 % 1011,1 hPa 0,0 l/m² 11,3 km/h (2 Bft) S-SW 202 ° 1 min 366 W/m² 11,4 °C 11,1 °C 14,5 km/h (3 Bft)
21.04.2025 10:57 22,9 °C 13,7 °C 50 % 86 % 1011,1 hPa 0,0 l/m² 11,3 km/h (2 Bft) S-SW 202 ° 1 min 374 W/m² 11,4 °C 11,1 °C 12,9 km/h (3 Bft)
21.04.2025 10:58 22,9 °C 13,7 °C 50 % 86 % 1011,1 hPa 0,0 l/m² 11,3 km/h (2 Bft) S-SW 202 ° 1 min 424 W/m² 11,4 °C 11,1 °C 12,9 km/h (3 Bft)
21.04.2025 10:59 22,9 °C 13,8 °C 50 % 86 % 1011,1 hPa 0,0 l/m² 8,0 km/h (2 Bft) SW 225 ° 1 min 369 W/m² 11,5 °C 12,8 °C 12,9 km/h (3 Bft)
21.04.2025 11:00 22,9 °C 13,9 °C 50 % 86 % 1011,1 hPa 0,0 l/m² 6,4 km/h (2 Bft) S-SW 202 ° 1 min 380 W/m² 11,6 °C 13,9 °C 9,7 km/h (2 Bft)
21.04.2025 11:01 22,9 °C 13,9 °C 50 % 86 % 1011,1 hPa 0,0 l/m² 9,7 km/h (2 Bft) S-SW 202 ° 1 min 381 W/m² 11,6 °C 12,0 °C 12,9 km/h (3 Bft)
21.04.2025 11:02 22,9 °C 14,0 °C 50 % 86 % 1011,1 hPa 0,0 l/m² 11,3 km/h (2 Bft) S-SW 202 ° 1 min 392 W/m² 11,7 °C 11,4 °C 12,9 km/h (3 Bft)
21.04.2025 11:03 22,9 °C 14,0 °C 50 % 85 % 1011,0 hPa 0,0 l/m² 9,7 km/h (2 Bft) S-SW 202 ° 1 min 424 W/m² 11,5 °C 12,2 °C 12,9 km/h (3 Bft)
21.04.2025 11:04 22,9 °C 14,0 °C 50 % 85 % 1011,0 hPa 0,0 l/m² 8,0 km/h (2 Bft) S-SW 202 ° 1 min 424 W/m² 11,5 °C 13,1 °C 11,3 km/h (2 Bft)
21.04.2025 11:05 22,9 °C 14,1 °C 50 % 85 % 1011,1 hPa 0,0 l/m² 8,0 km/h (2 Bft) S-SW 202 ° 1 min 450 W/m² 11,6 °C 13,2 °C 11,3 km/h (2 Bft)
21.04.2025 11:06 22,9 °C 14,2 °C 50 % 86 % 1011,1 hPa 0,0 l/m² 8,0 km/h (2 Bft) SW 225 ° 1 min 441 W/m² 11,9 °C 13,3 °C 11,3 km/h (2 Bft)
21.04.2025 11:07 22,9 °C 14,2 °C 50 % 85 % 1011,2 hPa 0,0 l/m² 9,7 km/h (2 Bft) SW 225 ° 1 min 448 W/m² 11,7 °C 12,4 °C 12,9 km/h (3 Bft)
21.04.2025 11:08 22,9 °C 14,3 °C 50 % 85 % 1011,1 hPa 0,0 l/m² 8,0 km/h (2 Bft) S-SW 202 ° 1 min 483 W/m² 11,8 °C 13,4 °C 11,3 km/h (2 Bft)
21.04.2025 11:09 22,9 °C 14,3 °C 50 % 85 % 1011,2 hPa 0,0 l/m² 9,7 km/h (2 Bft) S-SW 202 ° 1 min 501 W/m² 11,8 °C 12,5 °C 11,3 km/h (2 Bft)
21.04.2025 11:10 22,9 °C 14,4 °C 50 % 85 % 1011,2 hPa 0,0 l/m² 9,7 km/h (2 Bft) S-SW 202 ° 1 min 591 W/m² 11,9 °C 12,6 °C 14,5 km/h (3 Bft)
21.04.2025 11:11 22,9 °C 14,4 °C 50 % 85 % 1011,2 hPa 0,0 l/m² 9,7 km/h (2 Bft) S-SW 202 ° 1 min 519 W/m² 11,9 °C 12,6 °C 14,5 km/h (3 Bft)
21.04.2025 11:12 22,9 °C 14,5 °C 50 % 85 % 1011,2 hPa 0,0 l/m² 9,7 km/h (2 Bft) S-SW 202 ° 1 min 454 W/m² 12,0 °C 12,7 °C 12,9 km/h (3 Bft)
21.04.2025 11:13 22,9 °C 14,5 °C 50 % 84 % 1011,2 hPa 0,0 l/m² 11,3 km/h (2 Bft) S-SW 202 ° 1 min 424 W/m² 11,8 °C 12,0 °C 12,9 km/h (3 Bft)
21.04.2025 11:14 22,9 °C 14,5 °C 50 % 84 % 1011,3 hPa 0,0 l/m² 9,7 km/h (2 Bft) SW 225 ° 1 min 415 W/m² 11,8 °C 12,7 °C 12,9 km/h (3 Bft)
21.04.2025 11:15 22,9 °C 14,6 °C 50 % 84 % 1011,3 hPa 0,0 l/m² 9,7 km/h (2 Bft) S-SW 202 ° 1 min 420 W/m² 11,9 °C 12,8 °C 12,9 km/h (3 Bft)
21.04.2025 11:16 22,9 °C 14,6 °C 50 % 84 % 1011,2 hPa 0,0 l/m² 9,7 km/h (2 Bft) SW 225 ° 1 min 425 W/m² 11,9 °C 12,8 °C 12,9 km/h (3 Bft)
21.04.2025 11:17 22,9 °C 14,6 °C 50 % 84 % 1011,3 hPa 0,0 l/m² 8,0 km/h (2 Bft) W-SW 247 ° 1 min 438 W/m² 11,9 °C 13,7 °C 11,3 km/h (2 Bft)
21.04.2025 11:18 22,9 °C 14,7 °C 50 % 84 % 1011,3 hPa 0,0 l/m² 11,3 km/h (2 Bft) S-SW 202 ° 1 min 468 W/m² 12,0 °C 12,2 °C 14,5 km/h (3 Bft)
21.04.2025 11:19 22,9 °C 14,7 °C 50 % 84 % 1011,3 hPa 0,0 l/m² 9,7 km/h (2 Bft) S-SW 202 ° 1 min 468 W/m² 12,0 °C 12,9 °C 11,3 km/h (2 Bft)
21.04.2025 11:20 22,9 °C 14,8 °C 50 % 84 % 1011,3 hPa 0,0 l/m² 9,7 km/h (2 Bft) S-SW 202 ° 1 min 475 W/m² 12,1 °C 13,0 °C 14,5 km/h (3 Bft)
21.04.2025 11:21 22,9 °C 14,8 °C 50 % 83 % 1011,3 hPa 0,0 l/m² 11,3 km/h (2 Bft) S-SW 202 ° 1 min 459 W/m² 11,9 °C 12,3 °C 14,5 km/h (3 Bft)
21.04.2025 11:22 22,9 °C 14,8 °C 50 % 83 % 1011,2 hPa 0,0 l/m² 8,0 km/h (2 Bft) SW 225 ° 1 min 427 W/m² 11,9 °C 13,9 °C 11,3 km/h (2 Bft)
21.04.2025 11:23 22,9 °C 14,8 °C 50 % 85 % 1011,3 hPa 0,0 l/m² 9,7 km/h (2 Bft) SW 225 ° 1 min 424 W/m² 12,3 °C 13,0 °C 14,5 km/h (3 Bft)
21.04.2025 11:24 22,9 °C 14,8 °C 50 % 84 % 1011,3 hPa 0,0 l/m² 11,3 km/h (2 Bft) SW 225 ° 1 min 436 W/m² 12,1 °C 12,3 °C 16,1 km/h (3 Bft)
21.04.2025 11:25 22,9 °C 14,9 °C 50 % 83 % 1011,2 hPa 0,0 l/m² 11,3 km/h (2 Bft) SW 225 ° 1 min 503 W/m² 12,0 °C 12,4 °C 14,5 km/h (3 Bft)
21.04.2025 11:26 22,9 °C 14,9 °C 49 % 83 % 1011,2 hPa 0,0 l/m² 11,3 km/h (2 Bft) SW 225 ° 1 min 455 W/m² 12,0 °C 12,4 °C 12,9 km/h (3 Bft)
21.04.2025 11:27 22,9 °C 14,9 °C 49 % 83 % 1011,3 hPa 0,0 l/m² 8,0 km/h (2 Bft) SW 225 ° 1 min 515 W/m² 12,0 °C 14,0 °C 11,3 km/h (2 Bft)
21.04.2025 11:28 22,9 °C 14,9 °C 49 % 83 % 1011,3 hPa 0,0 l/m² 9,7 km/h (2 Bft) SW 225 ° 1 min 515 W/m² 12,0 °C 13,1 °C 12,9 km/h (3 Bft)
21.04.2025 11:29 22,9 °C 15,1 °C 49 % 84 % 1011,3 hPa 0,0 l/m² 8,0 km/h (2 Bft) SW 225 ° 1 min 515 W/m² 12,4 °C 14,2 °C 9,7 km/h (2 Bft)
21.04.2025 11:30 22,9 °C 15,2 °C 49 % 84 % 1011,4 hPa 0,0 l/m² 9,7 km/h (2 Bft) SW 225 ° 1 min 482 W/m² 12,5 °C 13,5 °C 12,9 km/h (3 Bft)
21.04.2025 11:31 22,9 °C 15,3 °C 49 % 84 % 1011,4 hPa 0,0 l/m² 8,0 km/h (2 Bft) S-SW 202 ° 1 min 482 W/m² 12,6 °C 14,4 °C 12,9 km/h (3 Bft)
21.04.2025 11:32 22,9 °C 15,4 °C 49 % 85 % 1011,4 hPa 0,0 l/m² 8,0 km/h (2 Bft) S-SW 202 ° 1 min 482 W/m² 12,9 °C 14,5 °C 12,9 km/h (3 Bft)
21.04.2025 11:33 22,9 °C 15,5 °C 49 % 84 % 1011,4 hPa 0,0 l/m² 8,0 km/h (2 Bft) SW 225 ° 1 min 752 W/m² 12,8 °C 14,6 °C 9,7 km/h (2 Bft)
21.04.2025 11:34 22,9 °C 15,6 °C 49 % 84 % 1011,4 hPa 0,0 l/m² 9,7 km/h (2 Bft) S-SW 202 ° 1 min 650 W/m² 12,9 °C 13,9 °C 12,9 km/h (3 Bft)
21.04.2025 11:35 22,9 °C 15,6 °C 49 % 82 % 1011,3 hPa 0,0 l/m² 11,3 km/h (2 Bft) S-SW 202 ° 1 min 654 W/m² 12,5 °C 13,2 °C 14,5 km/h (3 Bft)
21.04.2025 11:36 22,9 °C 15,6 °C 49 % 81 % 1011,4 hPa 0,0 l/m² 9,7 km/h (2 Bft) S-SW 202 ° 1 min 677 W/m² 12,3 °C 13,9 °C 11,3 km/h (2 Bft)
21.04.2025 11:37 22,9 °C 15,6 °C 49 % 82 % 1011,4 hPa 0,0 l/m² 9,7 km/h (2 Bft) W-SW 247 ° 1 min 677 W/m² 12,5 °C 13,9 °C 12,9 km/h (3 Bft)
21.04.2025 11:38 22,9 °C 15,5 °C 49 % 80 % 1011,4 hPa 0,0 l/m² 8,0 km/h (2 Bft) SW 225 ° 1 min 413 W/m² 12,1 °C 14,6 °C 9,7 km/h (2 Bft)
21.04.2025 11:39 22,9 °C 15,4 °C 49 % 81 % 1011,5 hPa 0,0 l/m² 8,0 km/h (2 Bft) SW 225 ° 1 min 492 W/m² 12,2 °C 14,5 °C 9,7 km/h (2 Bft)
21.04.2025 11:40 22,9 °C 15,5 °C 49 % 82 % 1011,4 hPa 0,0 l/m² 9,7 km/h (2 Bft) S-SW 202 ° 1 min 492 W/m² 12,4 °C 13,8 °C 12,9 km/h (3 Bft)
21.04.2025 11:41 22,9 °C 15,4 °C 49 % 80 % 1011,4 hPa 0,0 l/m² 11,3 km/h (2 Bft) S-SW 202 ° 1 min 374 W/m² 12,0 °C 13,0 °C 12,9 km/h (3 Bft)
21.04.2025 11:42 22,9 °C 15,3 °C 49 % 80 % 1011,4 hPa 0,0 l/m² 8,0 km/h (2 Bft) S-SW 202 ° 1 min 431 W/m² 11,9 °C 14,4 °C 9,7 km/h (2 Bft)
21.04.2025 11:43 22,8 °C 15,2 °C 49 % 80 % 1011,4 hPa 0,0 l/m² 6,4 km/h (2 Bft) S 180 ° 1 min 345 W/m² 11,8 °C 15,2 °C 8,0 km/h (2 Bft)
21.04.2025 11:44 22,9 °C 15,2 °C 49 % 81 % 1011,4 hPa 0,0 l/m² 8,0 km/h (2 Bft) S-SW 202 ° 1 min 329 W/m² 12,0 °C 14,3 °C 11,3 km/h (2 Bft)
21.04.2025 11:45 22,9 °C 15,1 °C 49 % 83 % 1011,4 hPa 0,0 l/m² 9,7 km/h (2 Bft) S 180 ° 1 min 360 W/m² 12,2 °C 13,4 °C 11,3 km/h (2 Bft)
21.04.2025 11:46 22,9 °C 15,0 °C 49 % 82 % 1011,4 hPa 0,0 l/m² 8,0 km/h (2 Bft) S 180 ° 1 min 315 W/m² 12,0 °C 14,1 °C 11,3 km/h (2 Bft)
21.04.2025 11:47 22,8 °C 14,9 °C 49 % 80 % 1011,5 hPa 0,0 l/m² 6,4 km/h (2 Bft) S 180 ° 1 min 322 W/m² 11,5 °C 14,9 °C 8,0 km/h (2 Bft)
21.04.2025 11:48 22,8 °C 14,9 °C 49 % 81 % 1011,4 hPa 0,0 l/m² 6,4 km/h (2 Bft) S-SW 202 ° 1 min 306 W/m² 11,7 °C 14,9 °C 9,7 km/h (2 Bft)
21.04.2025 11:49 22,8 °C 14,8 °C 49 % 82 % 1011,5 hPa 0,0 l/m² 6,4 km/h (2 Bft) S-SW 202 ° 1 min 294 W/m² 11,8 °C 14,8 °C 9,7 km/h (2 Bft)
21.04.2025 11:50 22,9 °C 14,8 °C 49 % 82 % 1011,5 hPa 0,0 l/m² 8,0 km/h (2 Bft) S-SW 202 ° 1 min 285 W/m² 11,8 °C 13,9 °C 9,7 km/h (2 Bft)
21.04.2025 11:51 22,8 °C 14,8 °C 49 % 83 % 1011,4 hPa 0,0 l/m² 8,0 km/h (2 Bft) SW 225 ° 1 min 274 W/m² 11,9 °C 13,9 °C 9,7 km/h (2 Bft)
21.04.2025 11:52 22,8 °C 14,8 °C 49 % 82 % 1011,4 hPa 0,0 l/m² 9,7 km/h (2 Bft) S-SW 202 ° 1 min 274 W/m² 11,8 °C 13,0 °C 12,9 km/h (3 Bft)
21.04.2025 11:53 22,8 °C 14,8 °C 49 % 82 % 1011,4 hPa 0,0 l/m² 8,0 km/h (2 Bft) S-SW 202 ° 1 min 272 W/m² 11,8 °C 13,9 °C 9,7 km/h (2 Bft)
21.04.2025 11:54 22,9 °C 14,8 °C 49 % 83 % 1011,4 hPa 0,0 l/m² 8,0 km/h (2 Bft) SW 225 ° 1 min 271 W/m² 11,9 °C 13,9 °C 9,7 km/h (2 Bft)
21.04.2025 11:55 22,8 °C 14,8 °C 49 % 82 % 1011,3 hPa 0,0 l/m² 8,0 km/h (2 Bft) SW 225 ° 1 min 267 W/m² 11,8 °C 13,9 °C 9,7 km/h (2 Bft)
21.04.2025 11:56 22,8 °C 14,7 °C 49 % 82 % 1011,3 hPa 0,0 l/m² 9,7 km/h (2 Bft) S-SW 202 ° 1 min 264 W/m² 11,7 °C 12,9 °C 11,3 km/h (2 Bft)
21.04.2025 11:57 22,8 °C 14,7 °C 49 % 83 % 1011,3 hPa 0,0 l/m² 9,7 km/h (2 Bft) S-SW 202 ° 1 min 255 W/m² 11,8 °C 12,9 °C 11,3 km/h (2 Bft)
21.04.2025 11:58 22,8 °C 14,7 °C 49 % 83 % 1011,3 hPa 0,0 l/m² 8,0 km/h (2 Bft) S-SW 202 ° 1 min 262 W/m² 11,8 °C 13,8 °C 9,7 km/h (2 Bft)
21.04.2025 11:59 22,8 °C 14,7 °C 49 % 84 % 1011,3 hPa 0,0 l/m² 8,0 km/h (2 Bft) S-SW 202 ° 1 min 278 W/m² 12,0 °C 13,8 °C 9,7 km/h (2 Bft)
21.04.2025 12:00 22,8 °C 14,7 °C 49 % 84 % 1011,3 hPa 0,0 l/m² 6,4 km/h (2 Bft) S-SW 202 ° 1 min 294 W/m² 12,0 °C 14,7 °C 8,0 km/h (2 Bft)
21.04.2025 12:01 22,8 °C 14,7 °C 49 % 84 % 1011,2 hPa 0,0 l/m² 6,4 km/h (2 Bft) S-SW 202 ° 1 min 306 W/m² 12,0 °C 14,7 °C 9,7 km/h (2 Bft)
21.04.2025 12:02 22,8 °C 14,7 °C 49 % 85 % 1011,2 hPa 0,0 l/m² 6,4 km/h (2 Bft) SW 225 ° 1 min 332 W/m² 12,2 °C 14,7 °C 9,7 km/h (2 Bft)
21.04.2025 12:03 22,8 °C 14,7 °C 49 % 83 % 1011,2 hPa 0,0 l/m² 4,8 km/h (1 Bft) SW 225 ° 1 min 345 W/m² 11,8 °C 14,7 °C 6,4 km/h (2 Bft)
21.04.2025 12:04 22,8 °C 14,7 °C 49 % 83 % 1011,1 hPa 0,0 l/m² 6,4 km/h (2 Bft) S-SW 202 ° 1 min 357 W/m² 11,8 °C 14,7 °C 8,0 km/h (2 Bft)
21.04.2025 12:05 22,8 °C 14,8 °C 49 % 84 % 1011,2 hPa 0,0 l/m² 8,0 km/h (2 Bft) SW 225 ° 1 min 380 W/m² 12,1 °C 13,9 °C 9,7 km/h (2 Bft)
21.04.2025 12:06 22,8 °C 14,8 °C 49 % 83 % 1011,1 hPa 0,0 l/m² 6,4 km/h (2 Bft) SW 225 ° 1 min 420 W/m² 11,9 °C 14,8 °C 9,7 km/h (2 Bft)
21.04.2025 12:07 22,8 °C 14,8 °C 49 % 83 % 1011,2 hPa 0,0 l/m² 6,4 km/h (2 Bft) S-SW 202 ° 1 min 446 W/m² 11,9 °C 14,8 °C 8,0 km/h (2 Bft)
21.04.2025 12:08 22,8 °C 14,9 °C 49 % 84 % 1011,2 hPa 0,0 l/m² 6,4 km/h (2 Bft) SW 225 ° 1 min 515 W/m² 12,2 °C 14,9 °C 8,0 km/h (2 Bft)
21.04.2025 12:09 22,8 °C 15,1 °C 49 % 84 % 1011,2 hPa 0,0 l/m² 4,8 km/h (1 Bft) S-SW 202 ° 1 min 598 W/m² 12,4 °C 15,1 °C 6,4 km/h (2 Bft)
21.04.2025 12:10 22,8 °C 15,2 °C 49 % 82 % 1011,2 hPa 0,0 l/m² 6,4 km/h (2 Bft) S-SW 202 ° 1 min 636 W/m² 12,1 °C 15,2 °C 8,0 km/h (2 Bft)
21.04.2025 12:11 22,8 °C 15,3 °C 49 % 84 % 1011,2 hPa 0,0 l/m² 4,8 km/h (1 Bft) S-SW 202 ° 1 min 694 W/m² 12,6 °C 15,3 °C 8,0 km/h (2 Bft)
21.04.2025 12:12 22,8 °C 15,4 °C 49 % 83 % 1011,2 hPa 0,0 l/m² 4,8 km/h (1 Bft) SW 225 ° 1 min 740 W/m² 12,5 °C 15,4 °C 6,4 km/h (2 Bft)
21.04.2025 12:13 22,8 °C 15,6 °C 49 % 83 % 1011,2 hPa 0,0 l/m² 4,8 km/h (1 Bft) S-SW 202 ° 1 min 661 W/m² 12,7 °C 15,6 °C 8,0 km/h (2 Bft)
21.04.2025 12:14 22,8 °C 15,7 °C 49 % 83 % 1011,2 hPa 0,0 l/m² 4,8 km/h (1 Bft) W 270 ° 1 min 654 W/m² 12,8 °C 15,7 °C 8,0 km/h (2 Bft)
21.04.2025 12:15 22,8 °C 15,8 °C 49 % 82 % 1011,1 hPa 0,0 l/m² 4,8 km/h (1 Bft) W-SW 247 ° 1 min 596 W/m² 12,7 °C 15,8 °C 6,4 km/h (2 Bft)
21.04.2025 12:16 22,8 °C 15,8 °C 49 % 82 % 1011,3 hPa 0,0 l/m² 3,2 km/h (1 Bft) SW 225 ° 1 min 431 W/m² 12,7 °C 15,8 °C 6,4 km/h (2 Bft)
21.04.2025 12:17 22,8 °C 15,8 °C 49 % 81 % 1011,3 hPa 0,0 l/m² 4,8 km/h (1 Bft) S-SW 202 ° 1 min 396 W/m² 12,5 °C 15,8 °C 6,4 km/h (2 Bft)
21.04.2025 12:18 22,9 °C 15,7 °C 49 % 82 % 1011,2 hPa 0,0 l/m² 4,8 km/h (1 Bft) S 180 ° 1 min 446 W/m² 12,6 °C 15,7 °C 4,8 km/h (1 Bft)
21.04.2025 12:19 22,9 °C 15,7 °C 49 % 83 % 1011,2 hPa 0,0 l/m² 3,2 km/h (1 Bft) S 180 ° 1 min 446 W/m² 12,8 °C 15,7 °C 4,8 km/h (1 Bft)
21.04.2025 12:20 22,8 °C 15,7 °C 49 % 81 % 1011,1 hPa 0,0 l/m² 3,2 km/h (1 Bft) S 180 ° 1 min 656 W/m² 12,4 °C 15,7 °C 4,8 km/h (1 Bft)
21.04.2025 12:21 22,9 °C 15,8 °C 49 % 84 % 1011,2 hPa 0,0 l/m² 4,8 km/h (1 Bft) S-SW 202 ° 1 min 983 W/m² 13,1 °C 15,8 °C 8,0 km/h (2 Bft)
21.04.2025 12:22 22,8 °C 15,9 °C 49 % 82 % 1011,1 hPa 0,0 l/m² 6,4 km/h (2 Bft) W-SW 247 ° 1 min 990 W/m² 12,8 °C 15,9 °C 8,0 km/h (2 Bft)
21.04.2025 12:23 22,9 °C 16,1 °C 49 % 79 % 1011,1 hPa 0,0 l/m² 3,2 km/h (1 Bft) SW 225 ° 1 min 928 W/m² 12,5 °C 16,1 °C 6,4 km/h (2 Bft)
21.04.2025 12:24 22,9 °C 16,2 °C 49 % 79 % 1011,0 hPa 0,0 l/m² 3,2 km/h (1 Bft) SW 225 ° 1 min 928 W/m² 12,6 °C 16,2 °C 4,8 km/h (1 Bft)
21.04.2025 12:25 22,9 °C 16,2 °C 49 % 80 % 1011,0 hPa 0,0 l/m² 1,6 km/h (1 Bft) SW 225 ° 1 min 434 W/m² 12,7 °C 16,2 °C 9,7 km/h (2 Bft)
21.04.2025 12:26 22,9 °C 16,2 °C 49 % 77 % 1011,1 hPa 0,0 l/m² 6,4 km/h (2 Bft) W 270 ° 1 min 420 W/m² 12,2 °C 16,2 °C 9,7 km/h (2 Bft)
21.04.2025 12:27 22,9 °C 16,2 °C 49 % 77 % 1011,0 hPa 0,0 l/m² 3,2 km/h (1 Bft) W 270 ° 1 min 420 W/m² 12,2 °C 16,2 °C 4,8 km/h (1 Bft)
21.04.2025 12:28 22,8 °C 16,3 °C 49 % 79 % 1011,0 hPa 0,0 l/m² 6,4 km/h (2 Bft) W 270 ° 1 min 420 W/m² 12,6 °C 16,3 °C 9,7 km/h (2 Bft)
21.04.2025 12:29 22,8 °C 16,3 °C 49 % 75 % 1011,0 hPa 0,0 l/m² 8,0 km/h (2 Bft) W 270 ° 1 min 420 W/m² 11,9 °C 15,5 °C 11,3 km/h (2 Bft)
21.04.2025 12:30 22,9 °C 16,3 °C 49 % 75 % 1011,0 hPa 0,0 l/m² 8,0 km/h (2 Bft) SW 225 ° 1 min 420 W/m² 11,9 °C 15,5 °C 11,3 km/h (2 Bft)
21.04.2025 12:31 22,8 °C 16,3 °C 49 % 74 % 1011,0 hPa 0,0 l/m² 8,0 km/h (2 Bft) W-SW 247 ° 1 min 819 W/m² 11,7 °C 15,5 °C 9,7 km/h (2 Bft)
21.04.2025 12:32 22,9 °C 16,3 °C 49 % 75 % 1011,1 hPa 0,0 l/m² 6,4 km/h (2 Bft) W 270 ° 1 min 772 W/m² 11,9 °C 16,3 °C 11,3 km/h (2 Bft)
21.04.2025 12:33 22,8 °C 16,4 °C 49 % 77 % 1011,0 hPa 0,0 l/m² 4,8 km/h (1 Bft) W-SW 247 ° 1 min 404 W/m² 12,4 °C 16,4 °C 8,0 km/h (2 Bft)
21.04.2025 12:34 22,9 °C 16,4 °C 49 % 79 % 1011,1 hPa 0,0 l/m² 4,8 km/h (1 Bft) W 270 ° 1 min 485 W/m² 12,7 °C 16,4 °C 6,4 km/h (2 Bft)
21.04.2025 12:35 22,9 °C 16,5 °C 49 % 80 % 1011,0 hPa 0,0 l/m² 9,7 km/h (2 Bft) SW 225 ° 1 min 519 W/m² 13,0 °C 14,9 °C 11,3 km/h (2 Bft)
21.04.2025 12:36 22,9 °C 16,4 °C 49 % 79 % 1011,0 hPa 0,0 l/m² 9,7 km/h (2 Bft) SW 225 ° 1 min 425 W/m² 12,7 °C 14,8 °C 11,3 km/h (2 Bft)
21.04.2025 12:37 22,9 °C 16,2 °C 49 % 78 % 1011,1 hPa 0,0 l/m² 6,4 km/h (2 Bft) SW 225 ° 1 min 425 W/m² 12,4 °C 16,2 °C 9,7 km/h (2 Bft)
21.04.2025 12:38 22,9 °C 16,2 °C 49 % 78 % 1011,1 hPa 0,0 l/m² 4,8 km/h (1 Bft) W-SW 247 ° 1 min 390 W/m² 12,4 °C 16,2 °C 6,4 km/h (2 Bft)
21.04.2025 12:39 22,8 °C 16,2 °C 49 % 79 % 1011,1 hPa 0,0 l/m² 4,8 km/h (1 Bft) W-SW 247 ° 1 min 381 W/m² 12,6 °C 16,2 °C 6,4 km/h (2 Bft)
21.04.2025 12:40 22,8 °C 16,3 °C 49 % 79 % 1011,2 hPa 0,0 l/m² 4,8 km/h (1 Bft) W-SW 247 ° 1 min 413 W/m² 12,6 °C 16,3 °C 6,4 km/h (2 Bft)
21.04.2025 12:41 22,9 °C 16,3 °C 49 % 80 % 1011,1 hPa 0,0 l/m² 9,7 km/h (2 Bft) SW 225 ° 1 min 415 W/m² 12,8 °C 14,7 °C 12,9 km/h (3 Bft)
21.04.2025 12:42 22,9 °C 16,3 °C 49 % 78 % 1011,2 hPa 0,0 l/m² 9,7 km/h (2 Bft) SW 225 ° 1 min 394 W/m² 12,5 °C 14,7 °C 11,3 km/h (2 Bft)
21.04.2025 12:43 22,8 °C 16,3 °C 49 % 80 % 1011,2 hPa 0,0 l/m² 6,4 km/h (2 Bft) W-SW 247 ° 1 min 396 W/m² 12,8 °C 16,3 °C 9,7 km/h (2 Bft)
21.04.2025 12:44 22,9 °C 16,3 °C 49 % 78 % 1011,1 hPa 0,0 l/m² 6,4 km/h (2 Bft) SW 225 ° 1 min 396 W/m² 12,5 °C 16,3 °C 8,0 km/h (2 Bft)
21.04.2025 12:45 22,9 °C 16,3 °C 50 % 79 % 1011,1 hPa 0,0 l/m² 6,4 km/h (2 Bft) SW 225 ° 1 min 401 W/m² 12,6 °C 16,3 °C 8,0 km/h (2 Bft)
21.04.2025 12:46 22,9 °C 16,1 °C 50 % 77 % 1011,1 hPa 0,0 l/m² 3,2 km/h (1 Bft) SW 225 ° 1 min 397 W/m² 12,1 °C 16,1 °C 6,4 km/h (2 Bft)
21.04.2025 12:47 22,9 °C 16,1 °C 50 % 78 % 1011,0 hPa 0,0 l/m² 6,4 km/h (2 Bft) SW 225 ° 1 min 403 W/m² 12,3 °C 16,1 °C 9,7 km/h (2 Bft)
21.04.2025 12:48 22,9 °C 16,2 °C 50 % 78 % 1011,1 hPa 0,0 l/m² 8,0 km/h (2 Bft) W-SW 247 ° 1 min 420 W/m² 12,4 °C 15,4 °C 12,9 km/h (3 Bft)
21.04.2025 12:49 22,9 °C 16,3 °C 50 % 77 % 1011,0 hPa 0,0 l/m² 6,4 km/h (2 Bft) W-SW 247 ° 1 min 418 W/m² 12,3 °C 16,3 °C 12,9 km/h (3 Bft)
21.04.2025 12:50 22,9 °C 16,4 °C 49 % 77 % 1011,1 hPa 0,0 l/m² 9,7 km/h (2 Bft) W-SW 247 ° 1 min 392 W/m² 12,4 °C 14,8 °C 12,9 km/h (3 Bft)
21.04.2025 12:51 22,9 °C 16,4 °C 49 % 74 % 1011,1 hPa 0,0 l/m² 6,4 km/h (2 Bft) W-SW 247 ° 1 min 385 W/m² 11,8 °C 16,4 °C 8,0 km/h (2 Bft)
21.04.2025 12:52 22,9 °C 16,6 °C 49 % 77 % 1011,1 hPa 0,0 l/m² 6,4 km/h (2 Bft) W-SW 247 ° 1 min 380 W/m² 12,5 °C 16,6 °C 9,7 km/h (2 Bft)
21.04.2025 12:53 22,9 °C 16,6 °C 49 % 76 % 1011,1 hPa 0,0 l/m² 6,4 km/h (2 Bft) W-SW 247 ° 1 min 376 W/m² 12,3 °C 16,6 °C 11,3 km/h (2 Bft)
21.04.2025 12:54 22,9 °C 16,7 °C 49 % 77 % 1011,2 hPa 0,0 l/m² 8,0 km/h (2 Bft) W-SW 247 ° 1 min 380 W/m² 12,6 °C 15,9 °C 14,5 km/h (3 Bft)
21.04.2025 12:55 22,9 °C 16,7 °C 49 % 72 % 1011,2 hPa 0,0 l/m² 11,3 km/h (2 Bft) W-SW 247 ° 1 min 387 W/m² 11,6 °C 14,5 °C 14,5 km/h (3 Bft)
21.04.2025 12:56 22,9 °C 16,7 °C 49 % 72 % 1011,2 hPa 0,0 l/m² 9,7 km/h (2 Bft) W-SW 247 ° 1 min 401 W/m² 11,6 °C 15,1 °C 12,9 km/h (3 Bft)
21.04.2025 12:57 22,9 °C 16,8 °C 49 % 73 % 1011,1 hPa 0,0 l/m² 9,7 km/h (2 Bft) SW 225 ° 1 min 401 W/m² 11,9 °C 15,2 °C 14,5 km/h (3 Bft)
21.04.2025 12:58 22,9 °C 16,8 °C 49 % 73 % 1011,1 hPa 0,0 l/m² 11,3 km/h (2 Bft) W-SW 247 ° 1 min 404 W/m² 11,9 °C 14,6 °C 16,1 km/h (3 Bft)
21.04.2025 12:59 22,8 °C 16,8 °C 49 % 72 % 1011,1 hPa 0,0 l/m² 8,0 km/h (2 Bft) W-SW 247 ° 1 min 418 W/m² 11,7 °C 16,0 °C 14,5 km/h (3 Bft)
21.04.2025 13:00 22,8 °C 16,9 °C 48 % 73 % 1011,1 hPa 0,0 l/m² 11,3 km/h (2 Bft) SW 225 ° 1 min 418 W/m² 12,0 °C 14,7 °C 17,7 km/h (3 Bft)
21.04.2025 13:01 22,8 °C 16,9 °C 48 % 72 % 1011,1 hPa 0,0 l/m² 9,7 km/h (2 Bft) SW 225 ° 1 min 434 W/m² 11,8 °C 15,3 °C 17,7 km/h (3 Bft)
21.04.2025 13:02 22,8 °C 16,9 °C 48 % 74 % 1011,1 hPa 0,0 l/m² 8,0 km/h (2 Bft) W-SW 247 ° 1 min 454 W/m² 12,2 °C 16,1 °C 11,3 km/h (2 Bft)
21.04.2025 13:03 22,8 °C 16,9 °C 48 % 75 % 1011,1 hPa 0,0 l/m² 6,4 km/h (2 Bft) SW 225 ° 1 min 438 W/m² 12,4 °C 16,9 °C 8,0 km/h (2 Bft)
21.04.2025 13:04 22,8 °C 17,0 °C 48 % 73 % 1011,1 hPa 0,0 l/m² 8,0 km/h (2 Bft) W-SW 247 ° 1 min 473 W/m² 12,1 °C 16,2 °C 12,9 km/h (3 Bft)
21.04.2025 13:05 22,8 °C 16,9 °C 48 % 69 % 1011,0 hPa 0,0 l/m² 9,7 km/h (2 Bft) W 270 ° 1 min 468 W/m² 11,2 °C 15,3 °C 12,9 km/h (3 Bft)
21.04.2025 13:06 22,8 °C 16,9 °C 49 % 70 % 1011,2 hPa 0,0 l/m² 6,4 km/h (2 Bft) W 270 ° 1 min 988 W/m² 11,4 °C 16,9 °C 11,3 km/h (2 Bft)
21.04.2025 13:07 22,8 °C 17,1 °C 49 % 68 % 1011,1 hPa 0,0 l/m² 6,4 km/h (2 Bft) W 270 ° 1 min 888 W/m² 11,1 °C 17,1 °C 11,3 km/h (2 Bft)
21.04.2025 13:08 22,8 °C 17,2 °C 49 % 68 % 1011,1 hPa 0,0 l/m² 11,3 km/h (2 Bft) W 270 ° 1 min 888 W/m² 11,2 °C 15,1 °C 14,5 km/h (3 Bft)
21.04.2025 13:09 22,8 °C 17,4 °C 49 % 68 % 1011,1 hPa 0,0 l/m² 6,4 km/h (2 Bft) W-SW 247 ° 1 min 888 W/m² 11,4 °C 17,4 °C 11,3 km/h (2 Bft)
21.04.2025 13:10 22,8 °C 17,6 °C 49 % 69 % 1011,1 hPa 0,0 l/m² 9,7 km/h (2 Bft) W 270 ° 1 min 1037 W/m² 11,8 °C 16,1 °C 12,9 km/h (3 Bft)
21.04.2025 13:11 22,8 °C 17,8 °C 49 % 69 % 1011,1 hPa 0,0 l/m² 6,4 km/h (2 Bft) W-SW 247 ° 1 min 1018 W/m² 12,0 °C 17,8 °C 11,3 km/h (2 Bft)
21.04.2025 13:12 22,8 °C 18,0 °C 49 % 69 % 1011,1 hPa 0,0 l/m² 9,7 km/h (2 Bft) W-SW 247 ° 1 min 990 W/m² 12,2 °C 16,5 °C 12,9 km/h (3 Bft)
21.04.2025 13:13 22,8 °C 18,2 °C 49 % 69 % 1011,1 hPa 0,0 l/m² 11,3 km/h (2 Bft) W 270 ° 1 min 998 W/m² 12,4 °C 16,2 °C 14,5 km/h (3 Bft)
21.04.2025 13:14 22,9 °C 18,3 °C 49 % 69 % 1011,0 hPa 0,0 l/m² 8,0 km/h (2 Bft) SW 225 ° 1 min 998 W/m² 12,5 °C 17,6 °C 12,9 km/h (3 Bft)
21.04.2025 13:15 22,8 °C 18,3 °C 49 % 74 % 1011,1 hPa 0,0 l/m² 8,0 km/h (2 Bft) S-SW 202 ° 1 min 998 W/m² 13,6 °C 17,6 °C 9,7 km/h (2 Bft)
21.04.2025 13:16 22,9 °C 18,3 °C 49 % 75 % 1011,1 hPa 0,0 l/m² 4,8 km/h (1 Bft) S-SW 202 ° 1 min 1007 W/m² 13,8 °C 18,3 °C 6,4 km/h (2 Bft)
21.04.2025 13:17 22,8 °C 18,4 °C 49 % 72 % 1011,2 hPa 0,0 l/m² 8,0 km/h (2 Bft) SW 225 ° 1 min 1041 W/m² 13,3 °C 17,7 °C 12,9 km/h (3 Bft)
21.04.2025 13:18 22,9 °C 18,6 °C 49 % 75 % 1011,1 hPa 0,0 l/m² 6,4 km/h (2 Bft) SW 225 ° 1 min 1041 W/m² 14,1 °C 18,6 °C 8,0 km/h (2 Bft)
21.04.2025 13:19 22,9 °C 18,6 °C 49 % 71 % 1011,1 hPa 0,0 l/m² 4,8 km/h (1 Bft) W 270 ° 1 min 515 W/m² 13,2 °C 18,6 °C 11,3 km/h (2 Bft)
21.04.2025 13:20 22,9 °C 18,6 °C 49 % 72 % 1011,1 hPa 0,0 l/m² 9,7 km/h (2 Bft) SW 225 ° 1 min 515 W/m² 13,4 °C 17,2 °C 14,5 km/h (3 Bft)
21.04.2025 13:21 22,9 °C 18,4 °C 49 % 71 % 1011,1 hPa 0,0 l/m² 11,3 km/h (2 Bft) SW 225 ° 1 min 515 W/m² 13,0 °C 16,4 °C 16,1 km/h (3 Bft)
21.04.2025 13:22 22,9 °C 18,2 °C 49 % 73 % 1011,1 hPa 0,0 l/m² 9,7 km/h (2 Bft) SW 225 ° 1 min 515 W/m² 13,3 °C 16,8 °C 12,9 km/h (3 Bft)
21.04.2025 13:23 22,9 °C 18,1 °C 49 % 69 % 1011,0 hPa 0,0 l/m² 11,3 km/h (2 Bft) W-SW 247 ° 1 min 640 W/m² 12,3 °C 16,1 °C 17,7 km/h (3 Bft)
21.04.2025 13:24 22,9 °C 18,2 °C 49 % 74 % 1011,1 hPa 0,0 l/m² 11,3 km/h (2 Bft) W-SW 247 ° 1 min 640 W/m² 13,5 °C 16,2 °C 16,1 km/h (3 Bft)
21.04.2025 13:25 22,9 °C 18,2 °C 49 % 68 % 1011,1 hPa 0,0 l/m² 11,3 km/h (2 Bft) SW 225 ° 1 min 965 W/m² 12,2 °C 16,2 °C 14,5 km/h (3 Bft)
21.04.2025 13:26 22,9 °C 18,3 °C 49 % 72 % 1011,1 hPa 0,0 l/m² 11,3 km/h (2 Bft) SW 225 ° 1 min 977 W/m² 13,2 °C 16,3 °C 17,7 km/h (3 Bft)
21.04.2025 13:27 22,9 °C 18,4 °C 49 % 72 % 1011,0 hPa 0,0 l/m² 9,7 km/h (2 Bft) SW 225 ° 1 min 949 W/m² 13,3 °C 17,0 °C 14,5 km/h (3 Bft)
21.04.2025 13:28 22,9 °C 18,4 °C 49 % 69 % 1011,1 hPa 0,0 l/m² 9,7 km/h (2 Bft) S-SW 202 ° 1 min 940 W/m² 12,6 °C 17,0 °C 11,3 km/h (2 Bft)
21.04.2025 13:29 22,9 °C 18,4 °C 49 % 72 % 1011,0 hPa 0,0 l/m² 9,7 km/h (2 Bft) SW 225 ° 1 min 942 W/m² 13,3 °C 17,0 °C 11,3 km/h (2 Bft)
21.04.2025 13:30 22,9 °C 18,4 °C 49 % 70 % 1011,1 hPa 0,0 l/m² 8,0 km/h (2 Bft) SW 225 ° 1 min 754 W/m² 12,8 °C 17,7 °C 11,3 km/h (2 Bft)
21.04.2025 13:31 22,9 °C 18,6 °C 49 % 70 % 1011,1 hPa 0,0 l/m² 8,0 km/h (2 Bft) SW 225 ° 1 min 810 W/m² 13,0 °C 17,9 °C 11,3 km/h (2 Bft)
21.04.2025 13:32 22,9 °C 18,6 °C 49 % 73 % 1011,1 hPa 0,0 l/m² 8,0 km/h (2 Bft) SW 225 ° 1 min 823 W/m² 13,7 °C 17,9 °C 11,3 km/h (2 Bft)
21.04.2025 13:33 22,9 °C 18,4 °C 49 % 69 % 1011,1 hPa 0,0 l/m² 4,8 km/h (1 Bft) SW 225 ° 1 min 823 W/m² 12,6 °C 18,4 °C 8,0 km/h (2 Bft)
21.04.2025 13:34 22,9 °C 18,3 °C 49 % 69 % 1011,1 hPa 0,0 l/m² 14,5 km/h (3 Bft) S-SW 202 ° 1 min 823 W/m² 12,5 °C 15,3 °C 17,7 km/h (3 Bft)
21.04.2025 13:35 22,9 °C 18,3 °C 49 % 65 % 1011,1 hPa 0,0 l/m² 12,9 km/h (3 Bft) W-SW 247 ° 1 min 823 W/m² 11,6 °C 15,8 °C 17,7 km/h (3 Bft)
21.04.2025 13:36 22,9 °C 18,3 °C 49 % 68 % 1011,1 hPa 0,0 l/m² 12,9 km/h (3 Bft) SW 225 ° 1 min 823 W/m² 12,3 °C 15,8 °C 17,7 km/h (3 Bft)
21.04.2025 13:37 22,9 °C 18,3 °C 49 % 66 % 1011,2 hPa 0,0 l/m² 11,3 km/h (2 Bft) SW 225 ° 1 min 928 W/m² 11,8 °C 16,3 °C 14,5 km/h (3 Bft)
21.04.2025 13:38 22,9 °C 18,4 °C 49 % 66 % 1011,1 hPa 0,0 l/m² 8,0 km/h (2 Bft) S-SW 202 ° 1 min 921 W/m² 11,9 °C 17,7 °C 14,5 km/h (3 Bft)
21.04.2025 13:39 22,9 °C 18,6 °C 49 % 72 % 1011,2 hPa 0,0 l/m² 9,7 km/h (2 Bft) S-SW 202 ° 1 min 898 W/m² 13,4 °C 17,2 °C 12,9 km/h (3 Bft)
21.04.2025 13:40 22,9 °C 18,6 °C 49 % 72 % 1011,1 hPa 0,0 l/m² 9,7 km/h (2 Bft) S-SW 202 ° 1 min 898 W/m² 13,4 °C 17,2 °C 14,5 km/h (3 Bft)
21.04.2025 13:41 22,9 °C 18,7 °C 49 % 69 % 1011,2 hPa 0,0 l/m² 6,4 km/h (2 Bft) W-SW 247 ° 1 min 745 W/m² 12,9 °C 18,7 °C 8,0 km/h (2 Bft)
21.04.2025 13:42 22,9 °C 18,8 °C 49 % 63 % 1011,1 hPa 0,0 l/m² 4,8 km/h (1 Bft) W 270 ° 1 min 853 W/m² 11,6 °C 18,8 °C 6,4 km/h (2 Bft)
21.04.2025 13:43 22,9 °C 18,9 °C 49 % 62 % 1011,2 hPa 0,0 l/m² 6,4 km/h (2 Bft) W 270 ° 1 min 853 W/m² 11,5 °C 18,9 °C 11,3 km/h (2 Bft)
21.04.2025 13:44 22,9 °C 19,1 °C 49 % 61 % 1011,1 hPa 0,0 l/m² 6,4 km/h (2 Bft) W 270 ° 1 min 696 W/m² 11,4 °C 19,1 °C 11,3 km/h (2 Bft)
21.04.2025 13:45 22,9 °C 18,9 °C 49 % 64 % 1011,1 hPa 0,0 l/m² 11,3 km/h (2 Bft) S 180 ° 1 min 696 W/m² 11,9 °C 17,0 °C 16,1 km/h (3 Bft)
21.04.2025 13:46 22,9 °C 18,8 °C 49 % 67 % 1011,2 hPa 0,0 l/m² 14,5 km/h (3 Bft) S-SW 202 ° 1 min 696 W/m² 12,5 °C 15,9 °C 16,1 km/h (3 Bft)
21.04.2025 13:47 22,9 °C 18,6 °C 49 % 67 % 1011,2 hPa 0,0 l/m² 14,5 km/h (3 Bft) SW 225 ° 1 min 889 W/m² 12,3 °C 15,7 °C 17,7 km/h (3 Bft)
21.04.2025 13:48 22,9 °C 18,4 °C 49 % 67 % 1011,2 hPa 0,0 l/m² 11,3 km/h (2 Bft) SW 225 ° 1 min 851 W/m² 12,2 °C 16,4 °C 14,5 km/h (3 Bft)
21.04.2025 13:49 23,0 °C 18,5 °C 49 % 70 % 1011,2 hPa 0,0 l/m² 9,7 km/h (2 Bft) S-SW 202 ° 1 min 838 W/m² 12,9 °C 17,1 °C 11,3 km/h (2 Bft)
21.04.2025 13:50 22,9 °C 18,5 °C 49 % 70 % 1011,2 hPa 0,0 l/m² 9,7 km/h (2 Bft) SW 225 ° 1 min 828 W/m² 12,9 °C 17,1 °C 12,9 km/h (3 Bft)
21.04.2025 13:51 22,9 °C 18,7 °C 49 % 70 % 1011,2 hPa 0,0 l/m² 6,4 km/h (2 Bft) W-SW 247 ° 1 min 828 W/m² 13,1 °C 18,7 °C 11,3 km/h (2 Bft)
21.04.2025 13:52 22,9 °C 18,8 °C 49 % 68 % 1011,2 hPa 0,0 l/m² 4,8 km/h (1 Bft) W-SW 247 ° 1 min 828 W/m² 12,8 °C 18,8 °C 6,4 km/h (2 Bft)
21.04.2025 13:53 22,9 °C 18,9 °C 49 % 65 % 1011,2 hPa 0,0 l/m² 6,4 km/h (2 Bft) SW 225 ° 1 min 821 W/m² 12,2 °C 18,9 °C 8,0 km/h (2 Bft)
21.04.2025 13:54 22,9 °C 18,9 °C 49 % 65 % 1011,2 hPa 0,0 l/m² 9,7 km/h (2 Bft) SW 225 ° 1 min 816 W/m² 12,2 °C 17,5 °C 12,9 km/h (3 Bft)
21.04.2025 13:55 22,9 °C 18,9 °C 49 % 61 % 1011,2 hPa 0,0 l/m² 9,7 km/h (2 Bft) W-SW 247 ° 1 min 802 W/m² 11,2 °C 17,5 °C 12,9 km/h (3 Bft)
21.04.2025 13:56 23,0 °C 19,1 °C 49 % 62 % 1011,3 hPa 0,0 l/m² 9,7 km/h (2 Bft) W-SW 247 ° 1 min 708 W/m² 11,6 °C 17,8 °C 12,9 km/h (3 Bft)
21.04.2025 13:57 22,9 °C 19,1 °C 49 % 64 % 1011,2 hPa 0,0 l/m² 11,3 km/h (2 Bft) SW 225 ° 1 min 708 W/m² 12,1 °C 17,2 °C 14,5 km/h (3 Bft)
21.04.2025 13:58 23,0 °C 19,0 °C 49 % 65 % 1011,2 hPa 0,0 l/m² 12,9 km/h (3 Bft) S 180 ° 1 min 814 W/m² 12,3 °C 16,6 °C 14,5 km/h (3 Bft)
21.04.2025 13:59 22,9 °C 18,8 °C 49 % 65 % 1011,3 hPa 0,0 l/m² 9,7 km/h (2 Bft) S 180 ° 1 min 809 W/m² 12,1 °C 17,4 °C 12,9 km/h (3 Bft)
21.04.2025 14:00 23,0 °C 18,7 °C 49 % 67 % 1011,2 hPa 0,0 l/m² 11,3 km/h (2 Bft) S-SW 202 ° 1 min 805 W/m² 12,4 °C 16,8 °C 12,9 km/h (3 Bft)
21.04.2025 14:01 23,0 °C 18,6 °C 49 % 64 % 1011,2 hPa 0,0 l/m² 6,4 km/h (2 Bft) S-SW 202 ° 1 min 803 W/m² 11,7 °C 18,6 °C 9,7 km/h (2 Bft)
21.04.2025 14:02 23,0 °C 18,6 °C 49 % 66 % 1011,2 hPa 0,0 l/m² 6,4 km/h (2 Bft) S 180 ° 1 min 803 W/m² 12,1 °C 18,6 °C 9,7 km/h (2 Bft)
21.04.2025 14:03 23,0 °C 18,5 °C 49 % 65 % 1011,2 hPa 0,0 l/m² 8,0 km/h (2 Bft) S 180 ° 1 min 803 W/m² 11,8 °C 17,8 °C 9,7 km/h (2 Bft)
21.04.2025 14:04 23,0 °C 18,6 °C 49 % 65 % 1011,1 hPa 0,0 l/m² 11,3 km/h (2 Bft) W 270 ° 1 min 805 W/m² 11,9 °C 16,6 °C 16,1 km/h (3 Bft)
21.04.2025 14:05 22,9 °C 18,8 °C 49 % 65 % 1011,2 hPa 0,0 l/m² 4,8 km/h (1 Bft) W-SW 247 ° 1 min 802 W/m² 12,1 °C 18,8 °C 9,7 km/h (2 Bft)
21.04.2025 14:06 23,0 °C 19,1 °C 49 % 64 % 1011,1 hPa 0,0 l/m² 9,7 km/h (2 Bft) W-SW 247 ° 1 min 708 W/m² 12,1 °C 17,8 °C 16,1 km/h (3 Bft)
21.04.2025 14:07 23,0 °C 19,2 °C 49 % 63 % 1011,2 hPa 0,0 l/m² 11,3 km/h (2 Bft) SW 225 ° 1 min 731 W/m² 12,0 °C 17,3 °C 16,1 km/h (3 Bft)
21.04.2025 14:08 22,9 °C 19,3 °C 49 % 62 % 1011,2 hPa 0,0 l/m² 9,7 km/h (2 Bft) W-SW 247 ° 1 min 724 W/m² 11,8 °C 18,0 °C 14,5 km/h (3 Bft)
21.04.2025 14:09 23,0 °C 19,4 °C 49 % 60 % 1011,2 hPa 0,0 l/m² 8,0 km/h (2 Bft) W-SW 247 ° 1 min 758 W/m² 11,4 °C 18,7 °C 11,3 km/h (2 Bft)
21.04.2025 14:10 22,9 °C 19,4 °C 49 % 65 % 1011,2 hPa 0,0 l/m² 8,0 km/h (2 Bft) SW 225 ° 1 min 779 W/m² 12,6 °C 18,7 °C 12,9 km/h (3 Bft)
21.04.2025 14:11 23,0 °C 19,3 °C 49 % 68 % 1011,2 hPa 0,0 l/m² 8,0 km/h (2 Bft) SW 225 ° 1 min 803 W/m² 13,2 °C 18,6 °C 9,7 km/h (2 Bft)
21.04.2025 14:12 22,9 °C 19,2 °C 49 % 61 % 1011,2 hPa 0,0 l/m² 6,4 km/h (2 Bft) SW 225 ° 1 min 802 W/m² 11,5 °C 19,2 °C 9,7 km/h (2 Bft)
21.04.2025 14:13 22,9 °C 19,1 °C 49 % 66 % 1011,1 hPa 0,0 l/m² 6,4 km/h (2 Bft) S-SW 202 ° 1 min 800 W/m² 12,6 °C 19,1 °C 8,0 km/h (2 Bft)
21.04.2025 14:14 22,9 °C 18,9 °C 49 % 62 % 1011,2 hPa 0,0 l/m² 4,8 km/h (1 Bft) S 180 ° 1 min 798 W/m² 11,5 °C 18,9 °C 6,4 km/h (2 Bft)
21.04.2025 14:15 22,9 °C 18,7 °C 49 % 63 % 1011,2 hPa 0,0 l/m² 1,6 km/h (1 Bft) S 180 ° 1 min 798 W/m² 11,5 °C 18,7 °C 3,2 km/h (1 Bft)
21.04.2025 14:16 22,9 °C 18,8 °C 49 % 65 % 1011,2 hPa 0,0 l/m² 1,6 km/h (1 Bft) S-SW 202 ° 1 min 701 W/m² 12,1 °C 18,8 °C 3,2 km/h (1 Bft)
21.04.2025 14:17 22,9 °C 18,9 °C 49 % 65 % 1011,3 hPa 0,0 l/m² 6,4 km/h (2 Bft) SW 225 ° 1 min 800 W/m² 12,2 °C 18,9 °C 8,0 km/h (2 Bft)
21.04.2025 14:18 22,9 °C 19,1 °C 49 % 64 % 1011,2 hPa 0,0 l/m² 11,3 km/h (2 Bft) W-SW 247 ° 1 min 796 W/m² 12,1 °C 17,2 °C 14,5 km/h (3 Bft)
21.04.2025 14:19 22,9 °C 19,2 °C 49 % 58 % 1011,2 hPa 0,0 l/m² 6,4 km/h (2 Bft) W-SW 247 ° 1 min 770 W/m² 10,7 °C 19,2 °C 11,3 km/h (2 Bft)
21.04.2025 14:20 22,9 °C 19,0 °C 49 % 58 % 1011,3 hPa 0,0 l/m² 4,8 km/h (1 Bft) S-SW 202 ° 1 min 789 W/m² 10,5 °C 19,0 °C 8,0 km/h (2 Bft)
21.04.2025 14:21 22,9 °C 18,9 °C 49 % 63 % 1011,2 hPa 0,0 l/m² 6,4 km/h (2 Bft) SW 225 ° 1 min 784 W/m² 11,7 °C 18,9 °C 11,3 km/h (2 Bft)
21.04.2025 14:22 22,9 °C 19,0 °C 49 % 65 % 1011,2 hPa 0,0 l/m² 8,0 km/h (2 Bft) S-SW 202 ° 1 min 779 W/m² 12,3 °C 18,3 °C 9,7 km/h (2 Bft)
21.04.2025 14:23 22,9 °C 18,9 °C 49 % 63 % 1011,3 hPa 0,0 l/m² 4,8 km/h (1 Bft) S-SW 202 ° 1 min 777 W/m² 11,7 °C 18,9 °C 6,4 km/h (2 Bft)
21.04.2025 14:24 22,9 °C 18,9 °C 49 % 65 % 1011,2 hPa 0,0 l/m² 4,8 km/h (1 Bft) S-SW 202 ° 1 min 773 W/m² 12,2 °C 18,9 °C 6,4 km/h (2 Bft)
21.04.2025 14:25 22,9 °C 18,9 °C 49 % 63 % 1011,2 hPa 0,0 l/m² 4,8 km/h (1 Bft) SW 225 ° 1 min 772 W/m² 11,7 °C 18,9 °C 6,4 km/h (2 Bft)
21.04.2025 14:26 22,9 °C 18,9 °C 49 % 64 % 1011,2 hPa 0,0 l/m² 4,8 km/h (1 Bft) SW 225 ° 1 min 772 W/m² 11,9 °C 18,9 °C 6,4 km/h (2 Bft)
21.04.2025 14:27 22,9 °C 18,9 °C 49 % 61 % 1011,3 hPa 0,0 l/m² 9,7 km/h (2 Bft) W 270 ° 1 min 772 W/m² 11,2 °C 17,5 °C 14,5 km/h (3 Bft)
21.04.2025 14:28 22,9 °C 19,0 °C 49 % 55 % 1011,3 hPa 0,0 l/m² 3,2 km/h (1 Bft) SW 225 ° 1 min 770 W/m² 9,8 °C 19,0 °C 9,7 km/h (2 Bft)
21.04.2025 14:29 22,9 °C 19,0 °C 49 % 58 % 1011,2 hPa 0,0 l/m² 0,0 km/h (0 Bft) SW 225 ° 1 min 768 W/m² 10,5 °C 19,0 °C 4,8 km/h (1 Bft)
21.04.2025 14:30 22,9 °C 19,1 °C 49 % 61 % 1011,2 hPa 0,0 l/m² 4,8 km/h (1 Bft) SW 225 ° 1 min 766 W/m² 11,4 °C 19,1 °C 6,4 km/h (2 Bft)
21.04.2025 14:31 22,9 °C 19,1 °C 49 % 60 % 1011,3 hPa 0,0 l/m² 8,0 km/h (2 Bft) S 180 ° 1 min 766 W/m² 11,1 °C 18,4 °C 11,3 km/h (2 Bft)
21.04.2025 14:32 22,9 °C 19,1 °C 49 % 63 % 1011,3 hPa 0,0 l/m² 8,0 km/h (2 Bft) S 180 ° 1 min 765 W/m² 11,9 °C 18,4 °C 11,3 km/h (2 Bft)
21.04.2025 14:33 22,9 °C 18,9 °C 49 % 59 % 1011,2 hPa 0,0 l/m² 8,0 km/h (2 Bft) S-SW 202 ° 1 min 765 W/m² 10,7 °C 18,2 °C 9,7 km/h (2 Bft)
21.04.2025 14:34 22,9 °C 18,8 °C 49 % 57 % 1011,2 hPa 0,0 l/m² 6,4 km/h (2 Bft) S 180 ° 1 min 765 W/m² 10,1 °C 18,8 °C 8,0 km/h (2 Bft)
21.04.2025 14:35 22,9 °C 18,8 °C 49 % 61 % 1011,1 hPa 0,0 l/m² 4,8 km/h (1 Bft) S-SW 202 ° 1 min 744 W/m² 11,1 °C 18,8 °C 6,4 km/h (2 Bft)
21.04.2025 14:36 22,9 °C 18,9 °C 49 % 61 % 1011,2 hPa 0,0 l/m² 6,4 km/h (2 Bft) S-SW 202 ° 1 min 765 W/m² 11,2 °C 18,9 °C 6,4 km/h (2 Bft)
21.04.2025 14:37 22,9 °C 19,1 °C 49 % 67 % 1011,2 hPa 0,0 l/m² 4,8 km/h (1 Bft) S-SW 202 ° 1 min 763 W/m² 12,8 °C 19,1 °C 9,7 km/h (2 Bft)
21.04.2025 14:38 22,9 °C 19,3 °C 49 % 62 % 1011,1 hPa 0,0 l/m² 4,8 km/h (1 Bft) W-SW 247 ° 1 min 765 W/m² 11,8 °C 19,3 °C 9,7 km/h (2 Bft)
21.04.2025 14:39 22,9 °C 19,4 °C 49 % 63 % 1011,2 hPa 0,0 l/m² 9,7 km/h (2 Bft) SW 225 ° 1 min 763 W/m² 12,2 °C 18,1 °C 12,9 km/h (3 Bft)
21.04.2025 14:40 22,9 °C 19,6 °C 49 % 60 % 1011,2 hPa 0,0 l/m² 11,3 km/h (2 Bft) W-SW 247 ° 1 min 763 W/m² 11,6 °C 17,8 °C 12,9 km/h (3 Bft)
21.04.2025 14:41 22,9 °C 19,7 °C 49 % 57 % 1011,1 hPa 0,0 l/m² 6,4 km/h (2 Bft) W-SW 247 ° 1 min 763 W/m² 10,9 °C 19,7 °C 9,7 km/h (2 Bft)
21.04.2025 14:42 22,9 °C 19,7 °C 49 % 59 % 1011,1 hPa 0,0 l/m² 6,4 km/h (2 Bft) SW 225 ° 1 min 763 W/m² 11,5 °C 19,7 °C 9,7 km/h (2 Bft)
21.04.2025 14:43 22,9 °C 19,6 °C 49 % 57 % 1011,1 hPa 0,0 l/m² 6,4 km/h (2 Bft) SW 225 ° 1 min 763 W/m² 10,8 °C 19,6 °C 8,0 km/h (2 Bft)
21.04.2025 14:44 22,9 °C 19,4 °C 49 % 60 % 1011,0 hPa 0,0 l/m² 6,4 km/h (2 Bft) SW 225 ° 1 min 761 W/m² 11,4 °C 19,4 °C 8,0 km/h (2 Bft)
21.04.2025 14:45 22,9 °C 19,3 °C 49 % 59 % 1011,1 hPa 0,0 l/m² 6,4 km/h (2 Bft) W-NW 292 ° 1 min 761 W/m² 11,1 °C 19,3 °C 11,3 km/h (2 Bft)
21.04.2025 14:46 22,9 °C 19,4 °C 49 % 58 % 1011,0 hPa 0,0 l/m² 4,8 km/h (1 Bft) W 270 ° 1 min 759 W/m² 10,9 °C 19,4 °C 6,4 km/h (2 Bft)
21.04.2025 14:47 22,9 °C 19,6 °C 48 % 57 % 1011,0 hPa 0,0 l/m² 3,2 km/h (1 Bft) W-NW 292 ° 1 min 759 W/m² 10,8 °C 19,6 °C 6,4 km/h (2 Bft)
21.04.2025 14:48 22,9 °C 19,7 °C 48 % 56 % 1011,0 hPa 0,0 l/m² 4,8 km/h (1 Bft) W 270 ° 1 min 758 W/m² 10,7 °C 19,7 °C 6,4 km/h (2 Bft)
21.04.2025 14:49 22,9 °C 19,7 °C 48 % 59 % 1011,0 hPa 0,0 l/m² 3,2 km/h (1 Bft) SW 225 ° 1 min 758 W/m² 11,5 °C 19,7 °C 4,8 km/h (1 Bft)
21.04.2025 14:50 22,9 °C 19,7 °C 48 % 62 % 1011,0 hPa 0,0 l/m² 6,4 km/h (2 Bft) W 270 ° 1 min 758 W/m² 12,2 °C 19,7 °C 12,9 km/h (3 Bft)
21.04.2025 14:51 22,9 °C 19,8 °C 48 % 57 % 1011,0 hPa 0,0 l/m² 4,8 km/h (1 Bft) W 270 ° 1 min 758 W/m² 11,0 °C 19,8 °C 6,4 km/h (2 Bft)
21.04.2025 14:52 22,9 °C 19,7 °C 48 % 55 % 1011,0 hPa 0,0 l/m² 4,8 km/h (1 Bft) SW 225 ° 1 min 756 W/m² 10,4 °C 19,7 °C 6,4 km/h (2 Bft)
21.04.2025 14:53 22,9 °C 19,6 °C 48 % 53 % 1011,1 hPa 0,0 l/m² 1,6 km/h (1 Bft) SW 225 ° 1 min 756 W/m² 9,8 °C 19,6 °C 3,2 km/h (1 Bft)
21.04.2025 14:54 22,9 °C 19,5 °C 48 % 56 % 1011,1 hPa 0,0 l/m² 3,2 km/h (1 Bft) W 270 ° 1 min 756 W/m² 10,5 °C 19,5 °C 4,8 km/h (1 Bft)
21.04.2025 14:55 22,9 °C 19,5 °C 48 % 57 % 1011,0 hPa 0,0 l/m² 1,6 km/h (1 Bft) W 270 ° 1 min 756 W/m² 10,8 °C 19,5 °C 3,2 km/h (1 Bft)
21.04.2025 14:56 22,9 °C 19,6 °C 48 % 61 % 1011,0 hPa 0,0 l/m² 0,0 km/h (0 Bft) W 270 ° 1 min 754 W/m² 11,9 °C 19,6 °C 1,6 km/h (1 Bft)
21.04.2025 14:57 22,9 °C 19,7 °C 48 % 61 % 1011,0 hPa 0,0 l/m² 3,2 km/h (1 Bft) SW 225 ° 1 min 752 W/m² 12,0 °C 19,7 °C 4,8 km/h (1 Bft)
21.04.2025 14:58 22,9 °C 19,7 °C 48 % 60 % 1011,0 hPa 0,0 l/m² 4,8 km/h (1 Bft) SW 225 ° 1 min 751 W/m² 11,7 °C 19,7 °C 6,4 km/h (2 Bft)
21.04.2025 14:59 22,9 °C 19,4 °C 48 % 59 % 1010,9 hPa 0,0 l/m² 3,2 km/h (1 Bft) SW 225 ° 1 min 749 W/m² 11,2 °C 19,4 °C 4,8 km/h (1 Bft)
21.04.2025 15:00 22,9 °C 19,3 °C 48 % 55 % 1011,0 hPa 0,0 l/m² 1,6 km/h (1 Bft) SW 225 ° 1 min 747 W/m² 10,0 °C 19,3 °C 4,8 km/h (1 Bft)
21.04.2025 15:01 22,9 °C 19,3 °C 48 % 64 % 1010,9 hPa 0,0 l/m² 3,2 km/h (1 Bft) SW 225 ° 1 min 745 W/m² 12,3 °C 19,3 °C 6,4 km/h (2 Bft)
21.04.2025 15:02 22,9 °C 19,3 °C 48 % 58 % 1010,9 hPa 0,0 l/m² 4,8 km/h (1 Bft) S-SW 202 ° 1 min 744 W/m² 10,8 °C 19,3 °C 8,0 km/h (2 Bft)
21.04.2025 15:03 22,9 °C 19,3 °C 48 % 60 % 1010,9 hPa 0,0 l/m² 8,0 km/h (2 Bft) S 180 ° 1 min 742 W/m² 11,3 °C 18,6 °C 16,1 km/h (3 Bft)
21.04.2025 15:04 22,9 °C 19,3 °C 48 % 62 % 1010,8 hPa 0,0 l/m² 8,0 km/h (2 Bft) S 180 ° 1 min 740 W/m² 11,8 °C 18,6 °C 9,7 km/h (2 Bft)
21.04.2025 15:05 22,9 °C 19,3 °C 48 % 63 % 1010,9 hPa 0,0 l/m² 6,4 km/h (2 Bft) S-SW 202 ° 1 min 737 W/m² 12,1 °C 19,3 °C 9,7 km/h (2 Bft)
21.04.2025 15:06 22,9 °C 19,3 °C 48 % 68 % 1011,0 hPa 0,0 l/m² 8,0 km/h (2 Bft) S-SW 202 ° 1 min 735 W/m² 13,2 °C 18,6 °C 9,7 km/h (2 Bft)
21.04.2025 15:07 22,9 °C 19,3 °C 48 % 57 % 1010,9 hPa 0,0 l/m² 4,8 km/h (1 Bft) S-SW 202 ° 1 min 733 W/m² 10,6 °C 19,3 °C 6,4 km/h (2 Bft)
21.04.2025 15:08 22,9 °C 19,3 °C 48 % 62 % 1010,9 hPa 0,0 l/m² 4,8 km/h (1 Bft) S-SW 202 ° 1 min 731 W/m² 11,8 °C 19,3 °C 6,4 km/h (2 Bft)
21.04.2025 15:09 22,9 °C 19,3 °C 48 % 56 % 1010,8 hPa 0,0 l/m² 4,8 km/h (1 Bft) S-SW 202 ° 1 min 729 W/m² 10,3 °C 19,3 °C 6,4 km/h (2 Bft)
21.04.2025 15:10 22,9 °C 19,3 °C 48 % 59 % 1010,9 hPa 0,0 l/m² 4,8 km/h (1 Bft) S-SW 202 ° 1 min 726 W/m² 11,1 °C 19,3 °C 6,4 km/h (2 Bft)
21.04.2025 15:11 22,9 °C 19,4 °C 48 % 62 % 1010,9 hPa 0,0 l/m² 3,2 km/h (1 Bft) S-SW 202 ° 1 min 724 W/m² 11,9 °C 19,4 °C 6,4 km/h (2 Bft)
21.04.2025 15:12 22,9 °C 19,5 °C 48 % 66 % 1010,9 hPa 0,0 l/m² 4,8 km/h (1 Bft) SW 225 ° 1 min 722 W/m² 13,0 °C 19,5 °C 6,4 km/h (2 Bft)
21.04.2025 15:13 22,9 °C 19,7 °C 48 % 54 % 1011,0 hPa 0,0 l/m² 3,2 km/h (1 Bft) SW 225 ° 1 min 722 W/m² 10,1 °C 19,7 °C 4,8 km/h (1 Bft)
21.04.2025 15:14 22,9 °C 19,8 °C 48 % 50 % 1010,9 hPa 0,0 l/m² 1,6 km/h (1 Bft) SW 225 ° 1 min 719 W/m² 9,1 °C 19,8 °C 4,8 km/h (1 Bft)
21.04.2025 15:15 22,9 °C 19,9 °C 48 % 55 % 1010,9 hPa 0,0 l/m² 1,6 km/h (1 Bft) SW 225 ° 1 min 715 W/m² 10,6 °C 19,9 °C 3,2 km/h (1 Bft)
21.04.2025 15:16 22,9 °C 19,9 °C 48 % 53 % 1011,0 hPa 0,0 l/m² 0,0 km/h (0 Bft) SW 225 ° 1 min 712 W/m² 10,0 °C 19,9 °C 1,6 km/h (1 Bft)
21.04.2025 15:17 22,9 °C 20,1 °C 48 % 56 % 1010,9 hPa 0,0 l/m² 3,2 km/h (1 Bft) S-SO 157 ° 1 min 708 W/m² 11,0 °C 20,1 °C 8,0 km/h (2 Bft)
21.04.2025 15:18 22,9 °C 20,0 °C 48 % 64 % 1011,0 hPa 0,0 l/m² 6,4 km/h (2 Bft) SW 225 ° 1 min 708 W/m² 13,0 °C 20,0 °C 8,0 km/h (2 Bft)
21.04.2025 15:19 22,9 °C 19,9 °C 48 % 56 % 1010,8 hPa 0,0 l/m² 4,8 km/h (1 Bft) S-SW 202 ° 1 min 707 W/m² 10,9 °C 19,9 °C 6,4 km/h (2 Bft)
21.04.2025 15:20 22,9 °C 19,7 °C 48 % 58 % 1011,0 hPa 0,0 l/m² 3,2 km/h (1 Bft) S-SW 202 ° 1 min 703 W/m² 11,2 °C 19,7 °C 4,8 km/h (1 Bft)
21.04.2025 15:21 22,9 °C 19,6 °C 48 % 54 % 1010,9 hPa 0,0 l/m² 3,2 km/h (1 Bft) S-SW 202 ° 1 min 701 W/m² 10,0 °C 19,6 °C 4,8 km/h (1 Bft)
21.04.2025 15:22 22,9 °C 19,6 °C 48 % 60 % 1011,0 hPa 0,0 l/m² 3,2 km/h (1 Bft) W 270 ° 1 min 698 W/m² 11,6 °C 19,6 °C 4,8 km/h (1 Bft)
21.04.2025 15:23 22,9 °C 19,7 °C 48 % 52 % 1011,0 hPa 0,0 l/m² 3,2 km/h (1 Bft) W 270 ° 1 min 696 W/m² 9,6 °C 19,7 °C 4,8 km/h (1 Bft)
21.04.2025 15:24 22,9 °C 19,7 °C 48 % 57 % 1011,0 hPa 0,0 l/m² 1,6 km/h (1 Bft) W 270 ° 1 min 694 W/m² 10,9 °C 19,7 °C 6,4 km/h (2 Bft)
21.04.2025 15:25 22,9 °C 19,9 °C 48 % 52 % 1010,9 hPa 0,0 l/m² 4,8 km/h (1 Bft) NW 315 ° 1 min 693 W/m² 9,7 °C 19,9 °C 6,4 km/h (2 Bft)
21.04.2025 15:26 22,9 °C 19,9 °C 48 % 50 % 1011,0 hPa 0,0 l/m² 3,2 km/h (1 Bft) NW 315 ° 1 min 689 W/m² 9,2 °C 19,9 °C 4,8 km/h (1 Bft)
21.04.2025 15:27 22,9 °C 19,9 °C 48 % 52 % 1010,9 hPa 0,0 l/m² 1,6 km/h (1 Bft) NW 315 ° 1 min 687 W/m² 9,7 °C 19,9 °C 1,6 km/h (1 Bft)
21.04.2025 15:28 22,9 °C 19,9 °C 48 % 53 % 1010,9 hPa 0,0 l/m² 0,0 km/h (0 Bft) NW 315 ° 1 min 684 W/m² 10,0 °C 19,9 °C 1,6 km/h (1 Bft)
21.04.2025 15:29 22,9 °C 20,1 °C 48 % 53 % 1010,9 hPa 0,0 l/m² 4,8 km/h (1 Bft) NW 315 ° 1 min 680 W/m² 10,2 °C 20,1 °C 8,0 km/h (2 Bft)
21.04.2025 15:30 22,9 °C 20,2 °C 48 % 52 % 1010,9 hPa 0,0 l/m² 4,8 km/h (1 Bft) NW 315 ° 1 min 680 W/m² 10,0 °C 20,2 °C 6,4 km/h (2 Bft)
21.04.2025 15:31 22,9 °C 20,1 °C 48 % 50 % 1010,9 hPa 0,0 l/m² 3,2 km/h (1 Bft) N-NW 337 ° 1 min 680 W/m² 9,3 °C 20,1 °C 6,4 km/h (2 Bft)
21.04.2025 15:32 22,9 °C 20,2 °C 48 % 53 % 1010,8 hPa 0,0 l/m² 3,2 km/h (1 Bft) N-NW 337 ° 1 min 677 W/m² 10,3 °C 20,2 °C 4,8 km/h (1 Bft)
21.04.2025 15:33 22,9 °C 20,4 °C 48 % 54 % 1010,9 hPa 0,0 l/m² 3,2 km/h (1 Bft) NW 315 ° 1 min 673 W/m² 10,8 °C 20,4 °C 4,8 km/h (1 Bft)
21.04.2025 15:34 22,9 °C 20,6 °C 48 % 52 % 1010,9 hPa 0,0 l/m² 3,2 km/h (1 Bft) W-NW 292 ° 1 min 673 W/m² 10,4 °C 20,6 °C 6,4 km/h (2 Bft)
21.04.2025 15:35 22,9 °C 20,4 °C 48 % 48 % 1010,8 hPa 0,0 l/m² 1,6 km/h (1 Bft) W-NW 292 ° 1 min 671 W/m² 9,0 °C 20,4 °C 3,2 km/h (1 Bft)
21.04.2025 15:36 22,9 °C 20,3 °C 48 % 49 % 1010,8 hPa 0,0 l/m² 1,6 km/h (1 Bft) W-NW 292 ° 1 min 670 W/m² 9,2 °C 20,3 °C 4,8 km/h (1 Bft)
21.04.2025 15:37 22,9 °C 20,4 °C 48 % 53 % 1010,8 hPa 0,0 l/m² 3,2 km/h (1 Bft) W 270 ° 1 min 668 W/m² 10,5 °C 20,4 °C 6,4 km/h (2 Bft)
21.04.2025 15:38 22,9 °C 20,4 °C 48 % 53 % 1010,9 hPa 0,0 l/m² 1,6 km/h (1 Bft) W 270 ° 1 min 666 W/m² 10,5 °C 20,4 °C 4,8 km/h (1 Bft)
21.04.2025 15:39 22,9 °C 20,6 °C 48 % 52 % 1010,9 hPa 0,0 l/m² 1,6 km/h (1 Bft) W 270 ° 1 min 663 W/m² 10,4 °C 20,6 °C 3,2 km/h (1 Bft)
21.04.2025 15:40 22,9 °C 20,6 °C 48 % 52 % 1010,9 hPa 0,0 l/m² 3,2 km/h (1 Bft) W 270 ° 1 min 661 W/m² 10,4 °C 20,6 °C 4,8 km/h (1 Bft)
21.04.2025 15:41 22,9 °C 20,4 °C 48 % 52 % 1010,8 hPa 0,0 l/m² 4,8 km/h (1 Bft) W 270 ° 1 min 661 W/m² 10,2 °C 20,4 °C 6,4 km/h (2 Bft)
21.04.2025 15:42 22,9 °C 20,3 °C 48 % 51 % 1010,8 hPa 0,0 l/m² 0,0 km/h (0 Bft) W 270 ° 1 min 659 W/m² 9,8 °C 20,3 °C 1,6 km/h (1 Bft)
21.04.2025 15:43 23,0 °C 20,1 °C 48 % 57 % 1010,8 hPa 0,0 l/m² 0,0 km/h (0 Bft) N 0 ° 1 min 657 W/m² 11,3 °C 20,1 °C 0,0 km/h (0 Bft)
21.04.2025 15:44 22,9 °C 20,0 °C 48 % 60 % 1010,8 hPa 0,0 l/m² 0,0 km/h (0 Bft) W 270 ° 1 min 656 W/m² 12,0 °C 20,0 °C 1,6 km/h (1 Bft)
21.04.2025 15:45 22,9 °C 19,9 °C 48 % 61 % 1010,8 hPa 0,0 l/m² 0,0 km/h (0 Bft) W 270 ° 1 min 654 W/m² 12,2 °C 19,9 °C 3,2 km/h (1 Bft)
21.04.2025 15:46 22,9 °C 19,8 °C 48 % 60 % 1010,8 hPa 0,0 l/m² 1,6 km/h (1 Bft) W 270 ° 1 min 649 W/m² 11,8 °C 19,8 °C 3,2 km/h (1 Bft)
21.04.2025 15:47 22,9 °C 19,7 °C 48 % 59 % 1010,8 hPa 0,0 l/m² 0,0 km/h (0 Bft) W 270 ° 1 min 649 W/m² 11,5 °C 19,7 °C 1,6 km/h (1 Bft)
21.04.2025 15:48 22,9 °C 19,6 °C 48 % 54 % 1010,7 hPa 0,0 l/m² 0,0 km/h (0 Bft) N 0 ° 1 min 647 W/m² 10,0 °C 19,6 °C 0,0 km/h (0 Bft)
21.04.2025 15:49 22,9 °C 19,6 °C 48 % 53 % 1010,7 hPa 0,0 l/m² 0,0 km/h (0 Bft) N 0 ° 1 min 645 W/m² 9,8 °C 19,6 °C 0,0 km/h (0 Bft)
21.04.2025 15:50 22,9 °C 19,7 °C 48 % 59 % 1010,6 hPa 0,0 l/m² 0,0 km/h (0 Bft) N 0 ° 1 min 642 W/m² 11,5 °C 19,7 °C 0,0 km/h (0 Bft)
21.04.2025 15:51 22,9 °C 19,8 °C 48 % 55 % 1010,7 hPa 0,0 l/m² 0,0 km/h (0 Bft) W 270 ° 1 min 638 W/m² 10,5 °C 19,8 °C 1,6 km/h (1 Bft)
21.04.2025 15:52 22,9 °C 19,8 °C 48 % 57 % 1010,7 hPa 0,0 l/m² 0,0 km/h (0 Bft) N 0 ° 1 min 636 W/m² 11,0 °C 19,8 °C 0,0 km/h (0 Bft)
21.04.2025 15:53 22,9 °C 19,9 °C 48 % 54 % 1010,7 hPa 0,0 l/m² 0,0 km/h (0 Bft) W 270 ° 1 min 635 W/m² 10,3 °C 19,9 °C 1,6 km/h (1 Bft)
21.04.2025 15:54 22,9 °C 19,8 °C 48 % 55 % 1010,7 hPa 0,0 l/m² 1,6 km/h (1 Bft) W 270 ° 1 min 635 W/m² 10,5 °C 19,8 °C 1,6 km/h (1 Bft)
21.04.2025 15:55 22,9 °C 19,8 °C 48 % 52 % 1010,7 hPa 0,0 l/m² 0,0 km/h (0 Bft) N 0 ° 1 min 633 W/m² 9,7 °C 19,8 °C 0,0 km/h (0 Bft)
21.04.2025 15:56 22,9 °C 19,7 °C 48 % 54 % 1010,6 hPa 0,0 l/m² 0,0 km/h (0 Bft) N 0 ° 1 min 631 W/m² 10,1 °C 19,7 °C 0,0 km/h (0 Bft)
21.04.2025 15:57 22,9 °C 19,7 °C 48 % 56 % 1010,7 hPa 0,0 l/m² 0,0 km/h (0 Bft) N 0 ° 1 min 628 W/m² 10,7 °C 19,7 °C 0,0 km/h (0 Bft)
21.04.2025 15:58 22,9 °C 19,6 °C 48 % 51 % 1010,7 hPa 0,0 l/m² 0,0 km/h (0 Bft) N 0 ° 1 min 626 W/m² 9,2 °C 19,6 °C 0,0 km/h (0 Bft)
21.04.2025 15:59 22,9 °C 19,6 °C 48 % 56 % 1010,7 hPa 0,0 l/m² 0,0 km/h (0 Bft) N 0 ° 1 min 624 W/m² 10,6 °C 19,6 °C 0,0 km/h (0 Bft)
21.04.2025 16:00 22,9 °C 19,7 °C 47 % 57 % 1010,6 hPa 0,0 l/m² 0,0 km/h (0 Bft) N 0 ° 1 min 622 W/m² 10,9 °C 19,7 °C 0,0 km/h (0 Bft)
21.04.2025 16:01 22,9 °C 19,6 °C 47 % 54 % 1010,6 hPa 0,0 l/m² 0,0 km/h (0 Bft) N 0 ° 1 min 621 W/m² 10,0 °C 19,6 °C 0,0 km/h (0 Bft)
21.04.2025 16:02 22,9 °C 19,8 °C 47 % 62 % 1010,7 hPa 0,0 l/m² 0,0 km/h (0 Bft) N 0 ° 1 min 619 W/m² 12,3 °C 19,8 °C 0,0 km/h (0 Bft)
21.04.2025 16:03 22,9 °C 20,0 °C 47 % 55 % 1010,7 hPa 0,0 l/m² 0,0 km/h (0 Bft) N 0 ° 1 min 617 W/m² 10,7 °C 20,0 °C 0,0 km/h (0 Bft)
21.04.2025 16:04 22,9 °C 20,2 °C 47 % 55 % 1010,6 hPa 0,0 l/m² 1,6 km/h (1 Bft) W 270 ° 1 min 615 W/m² 10,9 °C 20,2 °C 3,2 km/h (1 Bft)
21.04.2025 16:05 22,9 °C 20,5 °C 47 % 55 % 1010,7 hPa 0,0 l/m² 0,0 km/h (0 Bft) N 0 ° 1 min 612 W/m² 11,1 °C 20,5 °C 0,0 km/h (0 Bft)
21.04.2025 16:06 22,9 °C 20,5 °C 47 % 53 % 1010,7 hPa 0,0 l/m² 0,0 km/h (0 Bft) N 0 ° 1 min 612 W/m² 10,6 °C 20,5 °C 0,0 km/h (0 Bft)
21.04.2025 16:07 22,9 °C 20,4 °C 47 % 55 % 1010,7 hPa 0,0 l/m² 1,6 km/h (1 Bft) W 270 ° 1 min 610 W/m² 11,1 °C 20,4 °C 3,2 km/h (1 Bft)
21.04.2025 16:08 22,9 °C 20,4 °C 47 % 56 % 1010,7 hPa 0,0 l/m² 4,8 km/h (1 Bft) O-SO 112 ° 1 min 608 W/m² 11,3 °C 20,4 °C 6,4 km/h (2 Bft)
21.04.2025 16:09 22,9 °C 20,3 °C 47 % 54 % 1010,7 hPa 0,0 l/m² 4,8 km/h (1 Bft) S 180 ° 1 min 605 W/m² 10,7 °C 20,3 °C 8,0 km/h (2 Bft)
21.04.2025 16:10 22,9 °C 20,2 °C 47 % 54 % 1010,7 hPa 0,0 l/m² 4,8 km/h (1 Bft) S 180 ° 1 min 603 W/m² 10,6 °C 20,2 °C 6,4 km/h (2 Bft)
21.04.2025 16:11 22,9 °C 20,1 °C 47 % 55 % 1010,7 hPa 0,0 l/m² 4,8 km/h (1 Bft) S 180 ° 1 min 599 W/m² 10,8 °C 20,1 °C 6,4 km/h (2 Bft)
21.04.2025 16:12 22,9 °C 19,9 °C 47 % 55 % 1010,7 hPa 0,0 l/m² 3,2 km/h (1 Bft) S 180 ° 1 min 598 W/m² 10,6 °C 19,9 °C 4,8 km/h (1 Bft)
21.04.2025 16:13 22,9 °C 19,8 °C 47 % 57 % 1010,6 hPa 0,0 l/m² 1,6 km/h (1 Bft) S 180 ° 1 min 596 W/m² 11,0 °C 19,8 °C 3,2 km/h (1 Bft)
21.04.2025 16:14 22,9 °C 19,8 °C 46 % 49 % 1010,7 hPa 0,0 l/m² 0,0 km/h (0 Bft) S 180 ° 1 min 594 W/m² 8,8 °C 19,8 °C 1,6 km/h (1 Bft)
21.04.2025 16:15 22,9 °C 19,7 °C 46 % 51 % 1010,6 hPa 0,0 l/m² 0,0 km/h (0 Bft) N 0 ° 1 min 591 W/m² 9,3 °C 19,7 °C 0,0 km/h (0 Bft)
21.04.2025 16:16 22,9 °C 19,8 °C 46 % 51 % 1010,6 hPa 0,0 l/m² 3,2 km/h (1 Bft) S-SW 202 ° 1 min 589 W/m² 9,4 °C 19,8 °C 4,8 km/h (1 Bft)
21.04.2025 16:17 22,9 °C 19,8 °C 46 % 50 % 1010,6 hPa 0,0 l/m² 3,2 km/h (1 Bft) SW 225 ° 1 min 587 W/m² 9,1 °C 19,8 °C 6,4 km/h (2 Bft)
21.04.2025 16:18 22,9 °C 19,8 °C 46 % 48 % 1010,6 hPa 0,0 l/m² 0,0 km/h (0 Bft) SW 225 ° 1 min 584 W/m² 8,5 °C 19,8 °C 3,2 km/h (1 Bft)
21.04.2025 16:19 22,9 °C 19,9 °C 46 % 57 % 1010,6 hPa 0,0 l/m² 4,8 km/h (1 Bft) SW 225 ° 1 min 582 W/m² 11,1 °C 19,9 °C 6,4 km/h (2 Bft)
21.04.2025 16:20 22,9 °C 19,9 °C 46 % 50 % 1010,6 hPa 0,0 l/m² 4,8 km/h (1 Bft) SW 225 ° 1 min 580 W/m² 9,2 °C 19,9 °C 4,8 km/h (1 Bft)
21.04.2025 16:21 22,9 °C 19,8 °C 46 % 54 % 1010,7 hPa 0,0 l/m² 1,6 km/h (1 Bft) SW 225 ° 1 min 577 W/m² 10,2 °C 19,8 °C 4,8 km/h (1 Bft)
21.04.2025 16:22 22,8 °C 19,8 °C 46 % 45 % 1010,6 hPa 0,0 l/m² 0,0 km/h (0 Bft) N 0 ° 1 min 575 W/m² 7,5 °C 19,8 °C 0,0 km/h (0 Bft)
21.04.2025 16:23 22,8 °C 19,9 °C 45 % 50 % 1010,6 hPa 0,0 l/m² 0,0 km/h (0 Bft) N 0 ° 1 min 571 W/m² 9,2 °C 19,9 °C 0,0 km/h (0 Bft)
21.04.2025 16:24 22,8 °C 19,9 °C 45 % 47 % 1010,7 hPa 0,0 l/m² 1,6 km/h (1 Bft) SW 225 ° 1 min 570 W/m² 8,3 °C 19,9 °C 3,2 km/h (1 Bft)
21.04.2025 16:25 22,8 °C 20,1 °C 45 % 45 % 1010,7 hPa 0,0 l/m² 0,0 km/h (0 Bft) SW 225 ° 1 min 568 W/m² 7,8 °C 20,1 °C 1,6 km/h (1 Bft)
21.04.2025 16:26 22,8 °C 20,2 °C 45 % 47 % 1010,6 hPa 0,0 l/m² 0,0 km/h (0 Bft) N 0 ° 1 min 564 W/m² 8,5 °C 20,2 °C 0,0 km/h (0 Bft)
21.04.2025 16:27 22,8 °C 20,4 °C 45 % 47 % 1010,6 hPa 0,0 l/m² 0,0 km/h (0 Bft) N 0 ° 1 min 563 W/m² 8,7 °C 20,4 °C 0,0 km/h (0 Bft)
21.04.2025 16:28 22,8 °C 20,4 °C 44 % 43 % 1010,6 hPa 0,0 l/m² 0,0 km/h (0 Bft) N 0 ° 1 min 559 W/m² 7,4 °C 20,4 °C 0,0 km/h (0 Bft)
21.04.2025 16:29 22,8 °C 20,4 °C 44 % 46 % 1010,6 hPa 0,0 l/m² 0,0 km/h (0 Bft) N 0 ° 1 min 557 W/m² 8,4 °C 20,4 °C 0,0 km/h (0 Bft)
21.04.2025 16:30 22,8 °C 20,4 °C 44 % 46 % 1010,6 hPa 0,0 l/m² 3,2 km/h (1 Bft) W-SW 247 ° 1 min 554 W/m² 8,4 °C 20,4 °C 4,8 km/h (1 Bft)
21.04.2025 16:31 22,8 °C 20,5 °C 44 % 43 % 1010,7 hPa 0,0 l/m² 1,6 km/h (1 Bft) W-SW 247 ° 1 min 554 W/m² 7,5 °C 20,5 °C 3,2 km/h (1 Bft)
21.04.2025 16:32 22,8 °C 20,6 °C 44 % 45 % 1010,6 hPa 0,0 l/m² 1,6 km/h (1 Bft) W-SW 247 ° 1 min 548 W/m² 8,2 °C 20,6 °C 3,2 km/h (1 Bft)
21.04.2025 16:33 22,8 °C 20,6 °C 44 % 44 % 1010,7 hPa 0,0 l/m² 1,6 km/h (1 Bft) W-SW 247 ° 1 min 547 W/m² 7,9 °C 20,6 °C 3,2 km/h (1 Bft)
21.04.2025 16:34 22,8 °C 20,7 °C 44 % 45 % 1010,6 hPa 0,0 l/m² 1,6 km/h (1 Bft) W-SW 247 ° 1 min 545 W/m² 8,3 °C 20,7 °C 1,6 km/h (1 Bft)
21.04.2025 16:35 22,8 °C 20,7 °C 45 % 43 % 1010,7 hPa 0,0 l/m² 0,0 km/h (0 Bft) N 0 ° 1 min 541 W/m² 7,7 °C 20,7 °C 0,0 km/h (0 Bft)
21.04.2025 16:36 22,8 °C 20,8 °C 44 % 47 % 1010,7 hPa 0,0 l/m² 0,0 km/h (0 Bft) N 0 ° 1 min 538 W/m² 9,1 °C 20,8 °C 0,0 km/h (0 Bft)
21.04.2025 16:37 22,8 °C 20,8 °C 44 % 46 % 1010,7 hPa 0,0 l/m² 1,6 km/h (1 Bft) W-SW 247 ° 1 min 538 W/m² 8,8 °C 20,8 °C 3,2 km/h (1 Bft)
21.04.2025 16:38 22,8 °C 20,9 °C 44 % 48 % 1010,7 hPa 0,0 l/m² 1,6 km/h (1 Bft) W-NW 292 ° 1 min 533 W/m² 9,5 °C 20,9 °C 4,8 km/h (1 Bft)
21.04.2025 16:39 22,8 °C 20,9 °C 44 % 47 % 1010,7 hPa 0,0 l/m² 0,0 km/h (0 Bft) W-NW 292 ° 1 min 533 W/m² 9,2 °C 20,9 °C 1,6 km/h (1 Bft)
21.04.2025 16:40 22,8 °C 20,8 °C 44 % 46 % 1010,6 hPa 0,0 l/m² 0,0 km/h (0 Bft) N 0 ° 1 min 529 W/m² 8,8 °C 20,8 °C 0,0 km/h (0 Bft)
21.04.2025 16:41 22,8 °C 20,6 °C 44 % 45 % 1010,7 hPa 0,0 l/m² 0,0 km/h (0 Bft) N 0 ° 1 min 527 W/m² 8,2 °C 20,6 °C 0,0 km/h (0 Bft)
21.04.2025 16:42 22,8 °C 20,4 °C 44 % 47 % 1010,7 hPa 0,0 l/m² 0,0 km/h (0 Bft) N 0 ° 1 min 526 W/m² 8,7 °C 20,4 °C 0,0 km/h (0 Bft)
21.04.2025 16:43 22,8 °C 20,3 °C 44 % 46 % 1010,7 hPa 0,0 l/m² 0,0 km/h (0 Bft) N 0 ° 1 min 522 W/m² 8,3 °C 20,3 °C 0,0 km/h (0 Bft)
21.04.2025 16:44 22,8 °C 20,4 °C 44 % 43 % 1010,6 hPa 0,0 l/m² 0,0 km/h (0 Bft) N 0 ° 1 min 519 W/m² 7,4 °C 20,4 °C 0,0 km/h (0 Bft)
21.04.2025 16:45 22,8 °C 20,4 °C 44 % 43 % 1010,7 hPa 0,0 l/m² 0,0 km/h (0 Bft) N 0 ° 1 min 517 W/m² 7,4 °C 20,4 °C 0,0 km/h (0 Bft)
21.04.2025 16:46 22,8 °C 20,3 °C 44 % 43 % 1010,7 hPa 0,0 l/m² 0,0 km/h (0 Bft) W-NW 292 ° 1 min 515 W/m² 7,3 °C 20,3 °C 1,6 km/h (1 Bft)
21.04.2025 16:47 22,8 °C 20,3 °C 44 % 47 % 1010,7 hPa 0,0 l/m² 1,6 km/h (1 Bft) W-NW 292 ° 1 min 512 W/m² 8,6 °C 20,3 °C 4,8 km/h (1 Bft)
21.04.2025 16:48 22,8 °C 20,3 °C 44 % 57 % 1010,7 hPa 0,0 l/m² 4,8 km/h (1 Bft) S-SW 202 ° 1 min 510 W/m² 11,5 °C 20,3 °C 6,4 km/h (2 Bft)
21.04.2025 16:49 22,8 °C 20,2 °C 44 % 53 % 1010,7 hPa 0,0 l/m² 4,8 km/h (1 Bft) S-SW 202 ° 1 min 508 W/m² 10,3 °C 20,2 °C 6,4 km/h (2 Bft)
21.04.2025 16:50 22,8 °C 20,1 °C 43 % 57 % 1010,7 hPa 0,0 l/m² 6,4 km/h (2 Bft) S-SW 202 ° 1 min 503 W/m² 11,3 °C 20,1 °C 8,0 km/h (2 Bft)
21.04.2025 16:51 22,7 °C 20,1 °C 43 % 50 % 1010,8 hPa 0,0 l/m² 4,8 km/h (1 Bft) SW 225 ° 1 min 499 W/m² 9,3 °C 20,1 °C 6,4 km/h (2 Bft)
21.04.2025 16:52 22,7 °C 20,1 °C 43 % 54 % 1010,7 hPa 0,0 l/m² 6,4 km/h (2 Bft) SW 225 ° 1 min 496 W/m² 10,5 °C 20,1 °C 8,0 km/h (2 Bft)
21.04.2025 16:53 22,7 °C 19,9 °C 43 % 56 % 1010,8 hPa 0,0 l/m² 6,4 km/h (2 Bft) S-SW 202 ° 1 min 494 W/m² 10,9 °C 19,9 °C 9,7 km/h (2 Bft)
21.04.2025 16:54 22,7 °C 19,9 °C 42 % 54 % 1010,7 hPa 0,0 l/m² 6,4 km/h (2 Bft) SW 225 ° 1 min 490 W/m² 10,3 °C 19,9 °C 9,7 km/h (2 Bft)
21.04.2025 16:55 22,7 °C 19,8 °C 42 % 55 % 1010,7 hPa 0,0 l/m² 4,8 km/h (1 Bft) SW 225 ° 1 min 489 W/m² 10,5 °C 19,8 °C 4,8 km/h (1 Bft)
21.04.2025 16:56 22,7 °C 19,8 °C 42 % 55 % 1010,8 hPa 0,0 l/m² 3,2 km/h (1 Bft) SW 225 ° 1 min 483 W/m² 10,5 °C 19,8 °C 4,8 km/h (1 Bft)
21.04.2025 16:57 22,7 °C 19,8 °C 42 % 56 % 1010,7 hPa 0,0 l/m² 4,8 km/h (1 Bft) S-SW 202 ° 1 min 482 W/m² 10,8 °C 19,8 °C 6,4 km/h (2 Bft)
21.04.2025 16:58 22,7 °C 19,8 °C 42 % 58 % 1010,7 hPa 0,0 l/m² 3,2 km/h (1 Bft) S-SW 202 ° 1 min 480 W/m² 11,3 °C 19,8 °C 4,8 km/h (1 Bft)
21.04.2025 16:59 22,7 °C 19,8 °C 42 % 49 % 1010,8 hPa 0,0 l/m² 4,8 km/h (1 Bft) SW 225 ° 1 min 476 W/m² 8,8 °C 19,8 °C 6,4 km/h (2 Bft)
21.04.2025 17:00 22,7 °C 19,8 °C 42 % 55 % 1010,8 hPa 0,0 l/m² 0,0 km/h (0 Bft) SW 225 ° 1 min 475 W/m² 10,5 °C 19,8 °C 1,6 km/h (1 Bft)
21.04.2025 17:01 22,7 °C 19,8 °C 42 % 54 % 1010,8 hPa 0,0 l/m² 0,0 km/h (0 Bft) N 0 ° 1 min 471 W/m² 10,2 °C 19,8 °C 0,0 km/h (0 Bft)
21.04.2025 17:02 22,7 °C 19,8 °C 42 % 47 % 1010,7 hPa 0,0 l/m² 0,0 km/h (0 Bft) N 0 ° 1 min 468 W/m² 8,2 °C 19,8 °C 0,0 km/h (0 Bft)
21.04.2025 17:03 22,7 °C 19,9 °C 42 % 51 % 1010,8 hPa 0,0 l/m² 0,0 km/h (0 Bft) SW 225 ° 1 min 466 W/m² 9,5 °C 19,9 °C 1,6 km/h (1 Bft)
21.04.2025 17:04 22,7 °C 20,0 °C 42 % 48 % 1010,7 hPa 0,0 l/m² 3,2 km/h (1 Bft) SW 225 ° 1 min 464 W/m² 8,7 °C 20,0 °C 6,4 km/h (2 Bft)
21.04.2025 17:05 22,7 °C 20,1 °C 42 % 49 % 1010,7 hPa 0,0 l/m² 1,6 km/h (1 Bft) SW 225 ° 1 min 462 W/m² 9,0 °C 20,1 °C 3,2 km/h (1 Bft)
21.04.2025 17:06 22,7 °C 20,0 °C 42 % 46 % 1010,7 hPa 0,0 l/m² 0,0 km/h (0 Bft) SW 225 ° 1 min 459 W/m² 8,0 °C 20,0 °C 1,6 km/h (1 Bft)
21.04.2025 17:07 22,7 °C 20,1 °C 42 % 49 % 1010,7 hPa 0,0 l/m² 0,0 km/h (0 Bft) N 0 ° 1 min 457 W/m² 9,0 °C 20,1 °C 0,0 km/h (0 Bft)
21.04.2025 17:08 22,7 °C 20,2 °C 42 % 54 % 1010,8 hPa 0,0 l/m² 0,0 km/h (0 Bft) N 0 ° 1 min 454 W/m² 10,6 °C 20,2 °C 0,0 km/h (0 Bft)
21.04.2025 17:09 22,7 °C 20,3 °C 42 % 53 % 1010,8 hPa 0,0 l/m² 0,0 km/h (0 Bft) SW 225 ° 1 min 452 W/m² 10,4 °C 20,3 °C 1,6 km/h (1 Bft)
21.04.2025 17:10 22,7 °C 20,2 °C 42 % 48 % 1010,8 hPa 0,0 l/m² 0,0 km/h (0 Bft) SW 225 ° 1 min 448 W/m² 8,8 °C 20,2 °C 1,6 km/h (1 Bft)
21.04.2025 17:11 22,7 °C 20,1 °C 43 % 48 % 1010,8 hPa 0,0 l/m² 0,0 km/h (0 Bft) N 0 ° 1 min 446 W/m² 8,7 °C 20,1 °C 0,0 km/h (0 Bft)
21.04.2025 17:12 22,7 °C 20,0 °C 43 % 50 % 1010,7 hPa 0,0 l/m² 0,0 km/h (0 Bft) N 0 ° 1 min 443 W/m² 9,3 °C 20,0 °C 0,0 km/h (0 Bft)
21.04.2025 17:13 22,7 °C 19,9 °C 43 % 48 % 1010,8 hPa 0,0 l/m² 0,0 km/h (0 Bft) N 0 ° 1 min 439 W/m² 8,6 °C 19,9 °C 0,0 km/h (0 Bft)
21.04.2025 17:14 22,7 °C 19,9 °C 43 % 46 % 1010,8 hPa 0,0 l/m² 0,0 km/h (0 Bft) N 0 ° 1 min 436 W/m² 7,9 °C 19,9 °C 0,0 km/h (0 Bft)
21.04.2025 17:15 22,7 °C 20,2 °C 43 % 52 % 1010,7 hPa 0,0 l/m² 0,0 km/h (0 Bft) N 0 ° 1 min 434 W/m² 10,0 °C 20,2 °C 0,0 km/h (0 Bft)
21.04.2025 17:16 22,7 °C 20,2 °C 43 % 53 % 1010,7 hPa 0,0 l/m² 1,6 km/h (1 Bft) SW 225 ° 1 min 432 W/m² 10,3 °C 20,2 °C 3,2 km/h (1 Bft)
21.04.2025 17:17 22,7 °C 20,1 °C 43 % 50 % 1010,7 hPa 0,0 l/m² 3,2 km/h (1 Bft) O 90 ° 1 min 429 W/m² 9,3 °C 20,1 °C 4,8 km/h (1 Bft)
21.04.2025 17:18 22,7 °C 20,2 °C 43 % 52 % 1010,7 hPa 0,0 l/m² 3,2 km/h (1 Bft) SO 135 ° 1 min 427 W/m² 10,0 °C 20,2 °C 4,8 km/h (1 Bft)
21.04.2025 17:19 22,7 °C 20,1 °C 43 % 54 % 1010,7 hPa 0,0 l/m² 1,6 km/h (1 Bft) SO 135 ° 1 min 422 W/m² 10,5 °C 20,1 °C 3,2 km/h (1 Bft)
21.04.2025 17:20 22,7 °C 20,1 °C 43 % 50 % 1010,6 hPa 0,0 l/m² 4,8 km/h (1 Bft) S-SO 157 ° 1 min 420 W/m² 9,3 °C 20,1 °C 6,4 km/h (2 Bft)
21.04.2025 17:21 22,7 °C 19,9 °C 43 % 52 % 1010,7 hPa 0,0 l/m² 6,4 km/h (2 Bft) S-SO 157 ° 1 min 418 W/m² 9,7 °C 19,9 °C 8,0 km/h (2 Bft)
21.04.2025 17:22 22,7 °C 19,9 °C 43 % 52 % 1010,6 hPa 0,0 l/m² 6,4 km/h (2 Bft) S-SO 157 ° 1 min 415 W/m² 9,7 °C 19,9 °C 11,3 km/h (2 Bft)
21.04.2025 17:23 22,7 °C 19,8 °C 43 % 59 % 1010,7 hPa 0,0 l/m² 6,4 km/h (2 Bft) S 180 ° 1 min 413 W/m² 11,6 °C 19,8 °C 8,0 km/h (2 Bft)
21.04.2025 17:24 22,7 °C 19,7 °C 43 % 59 % 1010,6 hPa 0,0 l/m² 6,4 km/h (2 Bft) S 180 ° 1 min 411 W/m² 11,5 °C 19,7 °C 8,0 km/h (2 Bft)
21.04.2025 17:25 22,7 °C 19,7 °C 43 % 62 % 1010,7 hPa 0,0 l/m² 6,4 km/h (2 Bft) S 180 ° 1 min 406 W/m² 12,2 °C 19,7 °C 8,0 km/h (2 Bft)
21.04.2025 17:26 22,7 °C 19,7 °C 43 % 57 % 1010,7 hPa 0,0 l/m² 4,8 km/h (1 Bft) S 180 ° 1 min 403 W/m² 10,9 °C 19,7 °C 6,4 km/h (2 Bft)
21.04.2025 17:27 22,7 °C 19,6 °C 43 % 60 % 1010,7 hPa 0,0 l/m² 4,8 km/h (1 Bft) S-SO 157 ° 1 min 401 W/m² 11,6 °C 19,6 °C 6,4 km/h (2 Bft)
21.04.2025 17:28 22,7 °C 19,6 °C 43 % 51 % 1010,6 hPa 0,0 l/m² 1,6 km/h (1 Bft) S-SO 157 ° 1 min 399 W/m² 9,2 °C 19,6 °C 3,2 km/h (1 Bft)
21.04.2025 17:29 22,7 °C 19,7 °C 43 % 51 % 1010,6 hPa 0,0 l/m² 3,2 km/h (1 Bft) S-SO 157 ° 1 min 397 W/m² 9,3 °C 19,7 °C 6,4 km/h (2 Bft)
21.04.2025 17:30 22,7 °C 19,7 °C 43 % 49 % 1010,6 hPa 0,0 l/m² 1,6 km/h (1 Bft) S-SO 157 ° 1 min 394 W/m² 8,7 °C 19,7 °C 3,2 km/h (1 Bft)
21.04.2025 17:31 22,7 °C 19,7 °C 43 % 54 % 1010,6 hPa 0,0 l/m² 4,8 km/h (1 Bft) S-SO 157 ° 1 min 388 W/m² 10,1 °C 19,7 °C 6,4 km/h (2 Bft)
21.04.2025 17:32 22,7 °C 19,7 °C 43 % 58 % 1010,6 hPa 0,0 l/m² 6,4 km/h (2 Bft) S-SO 157 ° 1 min 387 W/m² 11,2 °C 19,7 °C 9,7 km/h (2 Bft)
21.04.2025 17:33 22,7 °C 19,7 °C 43 % 56 % 1010,6 hPa 0,0 l/m² 8,0 km/h (2 Bft) SO 135 ° 1 min 385 W/m² 10,7 °C 19,0 °C 11,3 km/h (2 Bft)
21.04.2025 17:34 22,7 °C 19,7 °C 43 % 55 % 1010,6 hPa 0,0 l/m² 8,0 km/h (2 Bft) O-SO 112 ° 1 min 383 W/m² 10,4 °C 19,0 °C 11,3 km/h (2 Bft)
21.04.2025 17:35 22,7 °C 19,6 °C 43 % 55 % 1010,6 hPa 0,0 l/m² 8,0 km/h (2 Bft) O-SO 112 ° 1 min 380 W/m² 10,3 °C 18,9 °C 11,3 km/h (2 Bft)
21.04.2025 17:36 22,7 °C 19,4 °C 43 % 55 % 1010,6 hPa 0,0 l/m² 8,0 km/h (2 Bft) O-SO 112 ° 1 min 378 W/m² 10,1 °C 18,7 °C 11,3 km/h (2 Bft)
21.04.2025 17:37 22,7 °C 19,3 °C 43 % 52 % 1010,6 hPa 0,0 l/m² 6,4 km/h (2 Bft) SO 135 ° 1 min 373 W/m² 9,2 °C 19,3 °C 8,0 km/h (2 Bft)
21.04.2025 17:38 22,7 °C 19,3 °C 43 % 49 % 1010,6 hPa 0,0 l/m² 3,2 km/h (1 Bft) O-SO 112 ° 1 min 371 W/m² 8,3 °C 19,3 °C 6,4 km/h (2 Bft)
21.04.2025 17:39 22,7 °C 19,4 °C 43 % 51 % 1010,6 hPa 0,0 l/m² 3,2 km/h (1 Bft) O-SO 112 ° 1 min 367 W/m² 9,0 °C 19,4 °C 4,8 km/h (1 Bft)
21.04.2025 17:40 22,7 °C 19,4 °C 43 % 58 % 1010,6 hPa 0,0 l/m² 1,6 km/h (1 Bft) O-SO 112 ° 1 min 366 W/m² 10,9 °C 19,4 °C 4,8 km/h (1 Bft)
21.04.2025 17:41 22,7 °C 19,4 °C 43 % 54 % 1010,6 hPa 0,0 l/m² 0,0 km/h (0 Bft) O-SO 112 ° 1 min 362 W/m² 9,8 °C 19,4 °C 1,6 km/h (1 Bft)
21.04.2025 17:42 22,7 °C 19,4 °C 43 % 51 % 1010,6 hPa 0,0 l/m² 1,6 km/h (1 Bft) O-SO 112 ° 1 min 360 W/m² 9,0 °C 19,4 °C 3,2 km/h (1 Bft)
21.04.2025 17:43 22,7 °C 19,5 °C 43 % 52 % 1010,6 hPa 0,0 l/m² 0,0 km/h (0 Bft) N 0 ° 1 min 355 W/m² 9,4 °C 19,5 °C 0,0 km/h (0 Bft)
21.04.2025 17:44 22,7 °C 19,6 °C 43 % 52 % 1010,6 hPa 0,0 l/m² 0,0 km/h (0 Bft) O-SO 112 ° 1 min 353 W/m² 9,5 °C 19,6 °C 3,2 km/h (1 Bft)
21.04.2025 17:45 22,7 °C 19,7 °C 43 % 54 % 1010,6 hPa 0,0 l/m² 3,2 km/h (1 Bft) O-SO 112 ° 1 min 352 W/m² 10,1 °C 19,7 °C 4,8 km/h (1 Bft)
21.04.2025 17:46 22,7 °C 19,6 °C 43 % 53 % 1010,6 hPa 0,0 l/m² 1,6 km/h (1 Bft) O-SO 112 ° 1 min 350 W/m² 9,8 °C 19,6 °C 1,6 km/h (1 Bft)
21.04.2025 17:47 22,7 °C 19,6 °C 43 % 48 % 1010,6 hPa 0,0 l/m² 4,8 km/h (1 Bft) O-SO 112 ° 1 min 346 W/m² 8,3 °C 19,6 °C 9,7 km/h (2 Bft)
21.04.2025 17:48 22,7 °C 19,6 °C 43 % 51 % 1010,6 hPa 0,0 l/m² 6,4 km/h (2 Bft) S-SO 157 ° 1 min 343 W/m² 9,2 °C 19,6 °C 9,7 km/h (2 Bft)
21.04.2025 17:49 22,7 °C 19,6 °C 43 % 54 % 1010,6 hPa 0,0 l/m² 6,4 km/h (2 Bft) S-SO 157 ° 1 min 339 W/m² 10,0 °C 19,6 °C 8,0 km/h (2 Bft)
21.04.2025 17:50 22,7 °C 19,5 °C 43 % 56 % 1010,7 hPa 0,0 l/m² 4,8 km/h (1 Bft) S-SO 157 ° 1 min 338 W/m² 10,5 °C 19,5 °C 8,0 km/h (2 Bft)
21.04.2025 17:51 22,7 °C 19,4 °C 43 % 53 % 1010,6 hPa 0,0 l/m² 3,2 km/h (1 Bft) S-SO 157 ° 1 min 336 W/m² 9,6 °C 19,4 °C 6,4 km/h (2 Bft)
21.04.2025 17:52 22,7 °C 19,5 °C 43 % 50 % 1010,7 hPa 0,0 l/m² 0,0 km/h (0 Bft) N 0 ° 1 min 332 W/m² 8,8 °C 19,5 °C 0,0 km/h (0 Bft)
21.04.2025 17:53 22,7 °C 19,5 °C 43 % 54 % 1010,6 hPa 0,0 l/m² 0,0 km/h (0 Bft) N 0 ° 1 min 330 W/m² 9,9 °C 19,5 °C 0,0 km/h (0 Bft)
21.04.2025 17:54 22,7 °C 19,6 °C 43 % 48 % 1010,6 hPa 0,0 l/m² 0,0 km/h (0 Bft) N 0 ° 1 min 329 W/m² 8,3 °C 19,6 °C 0,0 km/h (0 Bft)
21.04.2025 17:55 22,7 °C 19,8 °C 43 % 48 % 1010,6 hPa 0,0 l/m² 0,0 km/h (0 Bft) N 0 ° 1 min 323 W/m² 8,5 °C 19,8 °C 0,0 km/h (0 Bft)
21.04.2025 17:56 22,7 °C 19,9 °C 43 % 46 % 1010,6 hPa 0,0 l/m² 0,0 km/h (0 Bft) S-SO 157 ° 1 min 320 W/m² 7,9 °C 19,9 °C 1,6 km/h (1 Bft)
21.04.2025 17:57 22,7 °C 20,1 °C 43 % 45 % 1010,6 hPa 0,0 l/m² 0,0 km/h (0 Bft) N 0 ° 1 min 318 W/m² 7,8 °C 20,1 °C 0,0 km/h (0 Bft)
21.04.2025 17:58 22,7 °C 20,1 °C 43 % 45 % 1010,6 hPa 0,0 l/m² 0,0 km/h (0 Bft) N 0 ° 1 min 315 W/m² 7,8 °C 20,1 °C 0,0 km/h (0 Bft)
21.04.2025 17:59 22,7 °C 20,1 °C 43 % 47 % 1010,6 hPa 0,0 l/m² 0,0 km/h (0 Bft) N 0 ° 1 min 313 W/m² 8,4 °C 20,1 °C 0,0 km/h (0 Bft)
21.04.2025 18:00 22,7 °C 20,0 °C 43 % 46 % 1010,6 hPa 0,0 l/m² 0,0 km/h (0 Bft) N 0 ° 1 min 309 W/m² 8,0 °C 20,0 °C 0,0 km/h (0 Bft)
21.04.2025 18:01 22,7 °C 19,9 °C 43 % 45 % 1010,5 hPa 0,0 l/m² 0,0 km/h (0 Bft) S-SO 157 ° 1 min 308 W/m² 7,6 °C 19,9 °C 1,6 km/h (1 Bft)
21.04.2025 18:02 22,7 °C 19,9 °C 43 % 47 % 1010,6 hPa 0,0 l/m² 1,6 km/h (1 Bft) S-SO 157 ° 1 min 304 W/m² 8,3 °C 19,9 °C 3,2 km/h (1 Bft)
21.04.2025 18:03 22,7 °C 19,8 °C 43 % 51 % 1010,7 hPa 0,0 l/m² 3,2 km/h (1 Bft) S-SO 157 ° 1 min 302 W/m² 9,4 °C 19,8 °C 6,4 km/h (2 Bft)
21.04.2025 18:04 22,7 °C 19,8 °C 44 % 50 % 1010,6 hPa 0,0 l/m² 3,2 km/h (1 Bft) S-SO 157 ° 1 min 299 W/m² 9,1 °C 19,8 °C 3,2 km/h (1 Bft)
21.04.2025 18:05 22,7 °C 19,7 °C 44 % 53 % 1010,6 hPa 0,0 l/m² 3,2 km/h (1 Bft) S-SO 157 ° 1 min 297 W/m² 9,8 °C 19,7 °C 3,2 km/h (1 Bft)
21.04.2025 18:06 22,7 °C 19,7 °C 44 % 55 % 1010,6 hPa 0,0 l/m² 0,0 km/h (0 Bft) S-SO 157 ° 1 min 292 W/m² 10,4 °C 19,7 °C 1,6 km/h (1 Bft)
21.04.2025 18:07 22,7 °C 19,6 °C 44 % 59 % 1010,6 hPa 0,0 l/m² 3,2 km/h (1 Bft) S-SO 157 ° 1 min 290 W/m² 11,4 °C 19,6 °C 3,2 km/h (1 Bft)
21.04.2025 18:08 22,7 °C 19,6 °C 44 % 56 % 1010,7 hPa 0,0 l/m² 3,2 km/h (1 Bft) S-SO 157 ° 1 min 288 W/m² 10,6 °C 19,6 °C 6,4 km/h (2 Bft)
21.04.2025 18:09 22,7 °C 19,6 °C 44 % 58 % 1010,6 hPa 0,0 l/m² 4,8 km/h (1 Bft) S-SO 157 ° 1 min 285 W/m² 11,1 °C 19,6 °C 8,0 km/h (2 Bft)
21.04.2025 18:10 22,7 °C 19,5 °C 44 % 58 % 1010,6 hPa 0,0 l/m² 0,0 km/h (0 Bft) N 0 ° 1 min 283 W/m² 11,0 °C 19,5 °C 0,0 km/h (0 Bft)
21.04.2025 18:11 22,7 °C 19,4 °C 44 % 58 % 1010,7 hPa 0,0 l/m² 0,0 km/h (0 Bft) S-SO 157 ° 1 min 281 W/m² 10,9 °C 19,4 °C 1,6 km/h (1 Bft)
21.04.2025 18:12 22,7 °C 19,4 °C 44 % 57 % 1010,6 hPa 0,0 l/m² 0,0 km/h (0 Bft) S-SO 157 ° 1 min 276 W/m² 10,7 °C 19,4 °C 1,6 km/h (1 Bft)
21.04.2025 18:13 22,7 °C 19,4 °C 44 % 53 % 1010,6 hPa 0,0 l/m² 1,6 km/h (1 Bft) S-SO 157 ° 1 min 264 W/m² 9,6 °C 19,4 °C 4,8 km/h (1 Bft)
21.04.2025 18:14 22,7 °C 19,4 °C 44 % 51 % 1010,6 hPa 0,0 l/m² 1,6 km/h (1 Bft) S-SO 157 ° 1 min 234 W/m² 9,0 °C 19,4 °C 4,8 km/h (1 Bft)
21.04.2025 18:15 22,7 °C 19,4 °C 44 % 49 % 1010,7 hPa 0,0 l/m² 0,0 km/h (0 Bft) S-SO 157 ° 1 min 220 W/m² 8,4 °C 19,4 °C 1,6 km/h (1 Bft)
21.04.2025 18:16 22,7 °C 19,4 °C 44 % 53 % 1010,7 hPa 0,0 l/m² 3,2 km/h (1 Bft) S-SO 157 ° 1 min 223 W/m² 9,6 °C 19,4 °C 6,4 km/h (2 Bft)
21.04.2025 18:17 22,7 °C 19,4 °C 44 % 53 % 1010,7 hPa 0,0 l/m² 4,8 km/h (1 Bft) O 90 ° 1 min 223 W/m² 9,6 °C 19,4 °C 6,4 km/h (2 Bft)
21.04.2025 18:18 22,7 °C 19,4 °C 44 % 57 % 1010,7 hPa 0,0 l/m² 4,8 km/h (1 Bft) O 90 ° 1 min 234 W/m² 10,7 °C 19,4 °C 9,7 km/h (2 Bft)
21.04.2025 18:19 22,7 °C 19,3 °C 44 % 60 % 1010,7 hPa 0,0 l/m² 3,2 km/h (1 Bft) O 90 ° 1 min 165 W/m² 11,3 °C 19,3 °C 6,4 km/h (2 Bft)
21.04.2025 18:20 22,7 °C 19,3 °C 44 % 60 % 1010,7 hPa 0,0 l/m² 3,2 km/h (1 Bft) O 90 ° 1 min 183 W/m² 11,3 °C 19,3 °C 4,8 km/h (1 Bft)
21.04.2025 18:21 22,7 °C 19,2 °C 44 % 61 % 1010,7 hPa 0,0 l/m² 6,4 km/h (2 Bft) O-NO 67 ° 1 min 209 W/m² 11,5 °C 19,2 °C 8,0 km/h (2 Bft)
21.04.2025 18:22 22,7 °C 19,2 °C 44 % 60 % 1010,7 hPa 0,0 l/m² 8,0 km/h (2 Bft) O-NO 67 ° 1 min 232 W/m² 11,2 °C 18,5 °C 12,9 km/h (3 Bft)
21.04.2025 18:23 22,7 °C 19,2 °C 44 % 62 % 1010,7 hPa 0,0 l/m² 4,8 km/h (1 Bft) O-NO 67 ° 1 min 244 W/m² 11,7 °C 19,2 °C 6,4 km/h (2 Bft)
21.04.2025 18:24 22,7 °C 19,3 °C 44 % 62 % 1010,7 hPa 0,0 l/m² 3,2 km/h (1 Bft) O-NO 67 ° 1 min 237 W/m² 11,8 °C 19,3 °C 4,8 km/h (1 Bft)
21.04.2025 18:25 22,7 °C 19,4 °C 44 % 62 % 1010,7 hPa 0,0 l/m² 3,2 km/h (1 Bft) O-NO 67 ° 1 min 236 W/m² 11,9 °C 19,4 °C 8,0 km/h (2 Bft)
21.04.2025 18:26 22,7 °C 19,5 °C 44 % 61 % 1010,7 hPa 0,0 l/m² 3,2 km/h (1 Bft) N-NO 22 ° 1 min 234 W/m² 11,8 °C 19,5 °C 6,4 km/h (2 Bft)
21.04.2025 18:27 22,7 °C 19,6 °C 44 % 62 % 1010,6 hPa 0,0 l/m² 3,2 km/h (1 Bft) O-NO 67 ° 1 min 230 W/m² 12,1 °C 19,6 °C 6,4 km/h (2 Bft)
21.04.2025 18:28 22,7 °C 19,6 °C 44 % 62 % 1010,6 hPa 0,0 l/m² 4,8 km/h (1 Bft) O-NO 67 ° 1 min 227 W/m² 12,1 °C 19,6 °C 11,3 km/h (2 Bft)
21.04.2025 18:29 22,7 °C 19,6 °C 44 % 62 % 1010,6 hPa 0,0 l/m² 11,3 km/h (2 Bft) O 90 ° 1 min 221 W/m² 12,1 °C 17,8 °C 14,5 km/h (3 Bft)
21.04.2025 18:30 22,7 °C 19,5 °C 44 % 61 % 1010,6 hPa 0,0 l/m² 11,3 km/h (2 Bft) NO 45 ° 1 min 220 W/m² 11,8 °C 17,7 °C 14,5 km/h (3 Bft)
21.04.2025 18:31 22,7 °C 19,5 °C 44 % 61 % 1010,7 hPa 0,0 l/m² 12,9 km/h (3 Bft) O-NO 67 ° 1 min 216 W/m² 11,8 °C 17,2 °C 17,7 km/h (3 Bft)
21.04.2025 18:32 22,7 °C 19,4 °C 44 % 61 % 1010,7 hPa 0,0 l/m² 16,1 km/h (3 Bft) O 90 ° 1 min 213 W/m² 11,7 °C 16,3 °C 19,3 km/h (3 Bft)
21.04.2025 18:33 22,7 °C 19,3 °C 44 % 61 % 1010,8 hPa 0,0 l/m² 12,9 km/h (3 Bft) O-SO 112 ° 1 min 211 W/m² 11,6 °C 17,0 °C 19,3 km/h (3 Bft)
21.04.2025 18:34 22,7 °C 19,2 °C 45 % 60 % 1010,7 hPa 0,0 l/m² 11,3 km/h (2 Bft) O-SO 112 ° 1 min 207 W/m² 11,2 °C 17,3 °C 12,9 km/h (3 Bft)
21.04.2025 18:35 22,7 °C 19,1 °C 45 % 60 % 1010,8 hPa 0,0 l/m² 8,0 km/h (2 Bft) O-SO 112 ° 1 min 156 W/m² 11,1 °C 18,4 °C 9,7 km/h (2 Bft)
21.04.2025 18:36 22,7 °C 18,9 °C 45 % 60 % 1010,8 hPa 0,0 l/m² 6,4 km/h (2 Bft) O-SO 112 ° 1 min 116 W/m² 11,0 °C 18,9 °C 9,7 km/h (2 Bft)
21.04.2025 18:37 22,7 °C 18,8 °C 45 % 60 % 1010,7 hPa 0,0 l/m² 4,8 km/h (1 Bft) O-SO 112 ° 1 min 139 W/m² 10,9 °C 18,8 °C 6,4 km/h (2 Bft)
21.04.2025 18:38 22,7 °C 18,8 °C 45 % 61 % 1010,7 hPa 0,0 l/m² 4,8 km/h (1 Bft) SO 135 ° 1 min 105 W/m² 11,1 °C 18,8 °C 8,0 km/h (2 Bft)
21.04.2025 18:39 22,7 °C 18,7 °C 45 % 61 % 1010,7 hPa 0,0 l/m² 3,2 km/h (1 Bft) O-SO 112 ° 1 min 69 W/m² 11,0 °C 18,7 °C 6,4 km/h (2 Bft)
21.04.2025 18:40 22,7 °C 18,7 °C 45 % 62 % 1010,7 hPa 0,0 l/m² 4,8 km/h (1 Bft) O-SO 112 ° 1 min 113 W/m² 11,3 °C 18,7 °C 6,4 km/h (2 Bft)
21.04.2025 18:41 22,7 °C 18,7 °C 45 % 63 % 1010,8 hPa 0,0 l/m² 3,2 km/h (1 Bft) O-SO 112 ° 1 min 84 W/m² 11,5 °C 18,7 °C 4,8 km/h (1 Bft)
21.04.2025 18:42 22,7 °C 18,7 °C 45 % 62 % 1010,7 hPa 0,0 l/m² 6,4 km/h (2 Bft) O 90 ° 1 min 91 W/m² 11,3 °C 18,7 °C 9,7 km/h (2 Bft)
21.04.2025 18:43 22,7 °C 18,8 °C 45 % 63 % 1010,7 hPa 0,0 l/m² 6,4 km/h (2 Bft) O 90 ° 1 min 86 W/m² 11,6 °C 18,8 °C 9,7 km/h (2 Bft)
21.04.2025 18:44 22,7 °C 18,8 °C 45 % 63 % 1010,7 hPa 0,0 l/m² 11,3 km/h (2 Bft) O-NO 67 ° 1 min 58 W/m² 11,6 °C 16,9 °C 16,1 km/h (3 Bft)
21.04.2025 18:45 22,7 °C 18,8 °C 45 % 63 % 1010,8 hPa 0,0 l/m² 11,3 km/h (2 Bft) O 90 ° 0 min 49 W/m² 11,6 °C 16,9 °C 14,5 km/h (3 Bft)
21.04.2025 18:46 22,7 °C 18,7 °C 45 % 64 % 1010,8 hPa 0,0 l/m² 11,3 km/h (2 Bft) O 90 ° 0 min 40 W/m² 11,7 °C 16,8 °C 14,5 km/h (3 Bft)
21.04.2025 18:47 22,7 °C 18,7 °C 45 % 64 % 1010,8 hPa 0,0 l/m² 8,0 km/h (2 Bft) O 90 ° 1 min 70 W/m² 11,7 °C 18,0 °C 11,3 km/h (2 Bft)
21.04.2025 18:48 22,7 °C 18,6 °C 45 % 64 % 1010,8 hPa 0,0 l/m² 9,7 km/h (2 Bft) O 90 ° 1 min 69 W/m² 11,7 °C 17,2 °C 14,5 km/h (3 Bft)
21.04.2025 18:49 22,7 °C 18,5 °C 45 % 65 % 1010,8 hPa 0,0 l/m² 9,7 km/h (2 Bft) O-NO 67 ° 1 min 70 W/m² 11,8 °C 17,1 °C 12,9 km/h (3 Bft)
21.04.2025 18:50 22,7 °C 18,6 °C 45 % 63 % 1010,8 hPa 0,0 l/m² 9,7 km/h (2 Bft) O-NO 67 ° 1 min 88 W/m² 11,4 °C 17,2 °C 14,5 km/h (3 Bft)
21.04.2025 18:51 22,7 °C 18,6 °C 45 % 62 % 1010,8 hPa 0,0 l/m² 12,9 km/h (3 Bft) O-NO 67 ° 1 min 86 W/m² 11,2 °C 16,1 °C 17,7 km/h (3 Bft)
21.04.2025 18:52 22,7 °C 18,6 °C 45 % 62 % 1010,8 hPa 0,0 l/m² 6,4 km/h (2 Bft) O-NO 67 ° 1 min 107 W/m² 11,2 °C 18,6 °C 9,7 km/h (2 Bft)
21.04.2025 18:53 22,7 °C 18,6 °C 45 % 63 % 1010,7 hPa 0,0 l/m² 12,9 km/h (3 Bft) O 90 ° 1 min 79 W/m² 11,4 °C 16,1 °C 16,1 km/h (3 Bft)
21.04.2025 18:54 22,7 °C 18,6 °C 45 % 62 % 1010,9 hPa 0,0 l/m² 12,9 km/h (3 Bft) O 90 ° 1 min 74 W/m² 11,2 °C 16,1 °C 16,1 km/h (3 Bft)
21.04.2025 18:55 22,7 °C 18,6 °C 45 % 63 % 1010,8 hPa 0,0 l/m² 16,1 km/h (3 Bft) O 90 ° 1 min 53 W/m² 11,4 °C 15,3 °C 19,3 km/h (3 Bft)
21.04.2025 18:56 22,7 °C 18,5 °C 45 % 63 % 1010,9 hPa 0,0 l/m² 14,5 km/h (3 Bft) O 90 ° 1 min 95 W/m² 11,3 °C 15,6 °C 17,7 km/h (3 Bft)
21.04.2025 18:57 22,7 °C 18,4 °C 45 % 62 % 1010,9 hPa 0,0 l/m² 9,7 km/h (2 Bft) O 90 ° 1 min 128 W/m² 11,0 °C 17,0 °C 11,3 km/h (2 Bft)
21.04.2025 18:58 22,7 °C 18,4 °C 45 % 62 % 1010,9 hPa 0,0 l/m² 9,7 km/h (2 Bft) O 90 ° 1 min 105 W/m² 11,0 °C 17,0 °C 12,9 km/h (3 Bft)
21.04.2025 18:59 22,7 °C 18,4 °C 45 % 61 % 1010,9 hPa 0,0 l/m² 4,8 km/h (1 Bft) O 90 ° 1 min 95 W/m² 10,7 °C 18,4 °C 6,4 km/h (2 Bft)
21.04.2025 19:00 22,7 °C 18,3 °C 45 % 61 % 1011,0 hPa 0,0 l/m² 4,8 km/h (1 Bft) O 90 ° 1 min 100 W/m² 10,6 °C 18,3 °C 6,4 km/h (2 Bft)
21.04.2025 19:01 22,7 °C 18,3 °C 45 % 64 % 1010,9 hPa 0,0 l/m² 3,2 km/h (1 Bft) O-SO 112 ° 1 min 100 W/m² 11,4 °C 18,3 °C 4,8 km/h (1 Bft)
21.04.2025 19:02 22,7 °C 18,2 °C 45 % 63 % 1011,0 hPa 0,0 l/m² 1,6 km/h (1 Bft) O-SO 112 ° 1 min 90 W/m² 11,0 °C 18,2 °C 4,8 km/h (1 Bft)
21.04.2025 19:03 22,6 °C 18,2 °C 45 % 65 % 1011,0 hPa 0,0 l/m² 3,2 km/h (1 Bft) S-SO 157 ° 1 min 69 W/m² 11,5 °C 18,2 °C 6,4 km/h (2 Bft)
21.04.2025 19:04 22,7 °C 18,2 °C 45 % 65 % 1011,1 hPa 0,0 l/m² 4,8 km/h (1 Bft) S-SO 157 ° 0 min 51 W/m² 11,5 °C 18,2 °C 6,4 km/h (2 Bft)
21.04.2025 19:05 22,7 °C 18,1 °C 45 % 63 % 1011,1 hPa 0,0 l/m² 4,8 km/h (1 Bft) S-SO 157 ° 0 min 32 W/m² 10,9 °C 18,1 °C 6,4 km/h (2 Bft)
21.04.2025 19:06 22,6 °C 18,1 °C 45 % 62 % 1011,1 hPa 0,0 l/m² 4,8 km/h (1 Bft) S-SO 157 ° 0 min 28 W/m² 10,7 °C 18,1 °C 9,7 km/h (2 Bft)
21.04.2025 19:07 22,6 °C 18,1 °C 45 % 62 % 1011,1 hPa 0,0 l/m² 6,4 km/h (2 Bft) S-SO 157 ° 0 min 35 W/m² 10,7 °C 18,1 °C 9,7 km/h (2 Bft)
21.04.2025 19:08 22,6 °C 18,1 °C 45 % 62 % 1011,0 hPa 0,0 l/m² 6,4 km/h (2 Bft) S-SO 157 ° 0 min 35 W/m² 10,7 °C 18,1 °C 8,0 km/h (2 Bft)
21.04.2025 19:09 22,6 °C 18,0 °C 45 % 63 % 1011,1 hPa 0,0 l/m² 6,4 km/h (2 Bft) S-SO 157 ° 0 min 35 W/m² 10,8 °C 18,0 °C 9,7 km/h (2 Bft)
21.04.2025 19:10 22,6 °C 17,9 °C 45 % 63 % 1011,1 hPa 0,0 l/m² 6,4 km/h (2 Bft) S-SO 157 ° 0 min 32 W/m² 10,8 °C 17,9 °C 8,0 km/h (2 Bft)
21.04.2025 19:11 22,6 °C 17,8 °C 45 % 63 % 1011,1 hPa 0,0 l/m² 6,4 km/h (2 Bft) S-SO 157 ° 0 min 30 W/m² 10,7 °C 17,8 °C 8,0 km/h (2 Bft)
21.04.2025 19:12 22,6 °C 17,7 °C 45 % 64 % 1011,1 hPa 0,0 l/m² 4,8 km/h (1 Bft) S-SO 157 ° 0 min 40 W/m² 10,8 °C 17,7 °C 8,0 km/h (2 Bft)
21.04.2025 19:13 22,6 °C 17,6 °C 45 % 65 % 1011,2 hPa 0,0 l/m² 6,4 km/h (2 Bft) S-SO 157 ° 0 min 44 W/m² 10,9 °C 17,6 °C 8,0 km/h (2 Bft)
21.04.2025 19:14 22,6 °C 17,5 °C 45 % 65 % 1011,1 hPa 0,0 l/m² 8,0 km/h (2 Bft) SO 135 ° 0 min 47 W/m² 10,8 °C 16,7 °C 8,0 km/h (2 Bft)
21.04.2025 19:15 22,6 °C 17,4 °C 45 % 65 % 1011,2 hPa 0,0 l/m² 4,8 km/h (1 Bft) SO 135 ° 0 min 42 W/m² 10,8 °C 17,4 °C 6,4 km/h (2 Bft)
21.04.2025 19:16 22,6 °C 17,4 °C 45 % 66 % 1011,2 hPa 0,0 l/m² 6,4 km/h (2 Bft) SO 135 ° 0 min 42 W/m² 11,0 °C 17,4 °C 11,3 km/h (2 Bft)
21.04.2025 19:17 22,6 °C 17,4 °C 45 % 65 % 1011,2 hPa 0,0 l/m² 12,9 km/h (3 Bft) SO 135 ° 0 min 33 W/m² 10,8 °C 14,7 °C 17,7 km/h (3 Bft)
21.04.2025 19:18 22,6 °C 17,3 °C 45 % 65 % 1011,2 hPa 0,0 l/m² 9,7 km/h (2 Bft) SO 135 ° 0 min 40 W/m² 10,7 °C 15,8 °C 16,1 km/h (3 Bft)
21.04.2025 19:19 22,6 °C 17,3 °C 45 % 66 % 1011,3 hPa 0,0 l/m² 9,7 km/h (2 Bft) O-SO 112 ° 0 min 35 W/m² 10,9 °C 15,8 °C 14,5 km/h (3 Bft)
21.04.2025 19:20 22,6 °C 17,3 °C 46 % 66 % 1011,2 hPa 0,0 l/m² 11,3 km/h (2 Bft) O-SO 112 ° 0 min 33 W/m² 10,9 °C 15,2 °C 14,5 km/h (3 Bft)
21.04.2025 19:21 22,6 °C 17,3 °C 46 % 66 % 1011,2 hPa 0,0 l/m² 11,3 km/h (2 Bft) O-SO 112 ° 0 min 42 W/m² 10,9 °C 15,2 °C 12,9 km/h (3 Bft)
21.04.2025 19:22 22,6 °C 17,3 °C 46 % 66 % 1011,2 hPa 0,0 l/m² 11,3 km/h (2 Bft) O-SO 112 ° 0 min 42 W/m² 10,9 °C 15,2 °C 14,5 km/h (3 Bft)
21.04.2025 19:23 22,6 °C 17,2 °C 46 % 66 % 1011,1 hPa 0,0 l/m² 11,3 km/h (2 Bft) O-SO 112 ° 0 min 28 W/m² 10,8 °C 15,1 °C 14,5 km/h (3 Bft)
21.04.2025 19:24 22,6 °C 17,2 °C 46 % 66 % 1011,2 hPa 0,0 l/m² 9,7 km/h (2 Bft) O-SO 112 ° 0 min 19 W/m² 10,8 °C 15,7 °C 12,9 km/h (3 Bft)
21.04.2025 19:25 22,6 °C 17,2 °C 46 % 67 % 1011,2 hPa 0,0 l/m² 9,7 km/h (2 Bft) O-SO 112 ° 0 min 18 W/m² 11,0 °C 15,7 °C 12,9 km/h (3 Bft)
21.04.2025 19:26 22,6 °C 17,1 °C 46 % 66 % 1011,3 hPa 0,0 l/m² 11,3 km/h (2 Bft) O-SO 112 ° 0 min 16 W/m² 10,7 °C 14,9 °C 16,1 km/h (3 Bft)
21.04.2025 19:27 22,6 °C 17,1 °C 46 % 67 % 1011,2 hPa 0,0 l/m² 9,7 km/h (2 Bft) O-SO 112 ° 0 min 16 W/m² 10,9 °C 15,6 °C 16,1 km/h (3 Bft)
21.04.2025 19:28 22,6 °C 16,9 °C 46 % 67 % 1011,2 hPa 0,0 l/m² 9,7 km/h (2 Bft) O-SO 112 ° 0 min 16 W/m² 10,7 °C 15,3 °C 12,9 km/h (3 Bft)
21.04.2025 19:29 22,7 °C 16,8 °C 46 % 67 % 1011,3 hPa 0,0 l/m² 11,3 km/h (2 Bft) O-SO 112 ° 0 min 18 W/m² 10,6 °C 14,6 °C 14,5 km/h (3 Bft)
21.04.2025 19:30 22,7 °C 16,8 °C 46 % 67 % 1011,3 hPa 0,0 l/m² 8,0 km/h (2 Bft) O-SO 112 ° 0 min 16 W/m² 10,6 °C 16,0 °C 12,9 km/h (3 Bft)
21.04.2025 19:31 22,6 °C 16,7 °C 46 % 67 % 1011,2 hPa 0,0 l/m² 8,0 km/h (2 Bft) O-SO 112 ° 0 min 14 W/m² 10,5 °C 15,9 °C 11,3 km/h (2 Bft)
21.04.2025 19:32 22,7 °C 16,6 °C 46 % 68 % 1011,2 hPa 0,0 l/m² 9,7 km/h (2 Bft) O-SO 112 ° 0 min 14 W/m² 10,7 °C 15,0 °C 11,3 km/h (2 Bft)
21.04.2025 19:33 22,7 °C 16,6 °C 46 % 68 % 1011,3 hPa 0,0 l/m² 11,3 km/h (2 Bft) O-SO 112 ° 0 min 14 W/m² 10,7 °C 14,4 °C 12,9 km/h (3 Bft)
21.04.2025 19:34 22,7 °C 16,4 °C 46 % 68 % 1011,3 hPa 0,0 l/m² 11,3 km/h (2 Bft) O-SO 112 ° 0 min 12 W/m² 10,5 °C 14,1 °C 12,9 km/h (3 Bft)
21.04.2025 19:35 22,7 °C 16,4 °C 46 % 68 % 1011,3 hPa 0,0 l/m² 11,3 km/h (2 Bft) O-SO 112 ° 0 min 12 W/m² 10,5 °C 14,1 °C 12,9 km/h (3 Bft)
21.04.2025 19:36 22,7 °C 16,3 °C 46 % 68 % 1011,3 hPa 0,0 l/m² 6,4 km/h (2 Bft) O-SO 112 ° 0 min 12 W/m² 10,4 °C 16,3 °C 11,3 km/h (2 Bft)
21.04.2025 19:37 22,7 °C 16,3 °C 46 % 68 % 1011,3 hPa 0,0 l/m² 6,4 km/h (2 Bft) O-SO 112 ° 0 min 12 W/m² 10,4 °C 16,3 °C 9,7 km/h (2 Bft)
21.04.2025 19:38 22,7 °C 16,2 °C 46 % 69 % 1011,4 hPa 0,0 l/m² 8,0 km/h (2 Bft) O-SO 112 ° 0 min 12 W/m² 10,5 °C 15,4 °C 9,7 km/h (2 Bft)
21.04.2025 19:39 22,7 °C 16,0 °C 46 % 70 % 1011,3 hPa 0,0 l/m² 6,4 km/h (2 Bft) O-SO 112 ° 0 min 12 W/m² 10,5 °C 16,0 °C 11,3 km/h (2 Bft)
21.04.2025 19:40 22,7 °C 15,9 °C 46 % 70 % 1011,3 hPa 0,0 l/m² 8,0 km/h (2 Bft) O-SO 112 ° 0 min 12 W/m² 10,4 °C 15,0 °C 9,7 km/h (2 Bft)
21.04.2025 19:41 22,7 °C 15,8 °C 46 % 70 % 1011,3 hPa 0,0 l/m² 6,4 km/h (2 Bft) O-SO 112 ° 0 min 11 W/m² 10,3 °C 15,8 °C 9,7 km/h (2 Bft)
21.04.2025 19:42 22,7 °C 15,7 °C 46 % 71 % 1011,3 hPa 0,0 l/m² 6,4 km/h (2 Bft) O-SO 112 ° 0 min 11 W/m² 10,5 °C 15,7 °C 9,7 km/h (2 Bft)
21.04.2025 19:43 22,7 °C 15,6 °C 46 % 71 % 1011,4 hPa 0,0 l/m² 8,0 km/h (2 Bft) O-SO 112 ° 0 min 11 W/m² 10,4 °C 14,7 °C 9,7 km/h (2 Bft)
21.04.2025 19:44 22,7 °C 15,5 °C 46 % 71 % 1011,4 hPa 0,0 l/m² 6,4 km/h (2 Bft) O-SO 112 ° 0 min 11 W/m² 10,3 °C 15,5 °C 9,7 km/h (2 Bft)
21.04.2025 19:45 22,7 °C 15,4 °C 46 % 71 % 1011,4 hPa 0,0 l/m² 8,0 km/h (2 Bft) O-SO 112 ° 0 min 11 W/m² 10,2 °C 14,5 °C 11,3 km/h (2 Bft)
21.04.2025 19:46 22,7 °C 15,3 °C 46 % 72 % 1011,4 hPa 0,0 l/m² 6,4 km/h (2 Bft) O-SO 112 ° 0 min 11 W/m² 10,3 °C 15,3 °C 9,7 km/h (2 Bft)
21.04.2025 19:47 22,7 °C 15,3 °C 46 % 72 % 1011,4 hPa 0,0 l/m² 4,8 km/h (1 Bft) O-SO 112 ° 0 min 9 W/m² 10,3 °C 15,3 °C 6,4 km/h (2 Bft)
21.04.2025 19:48 22,7 °C 15,2 °C 46 % 72 % 1011,4 hPa 0,0 l/m² 4,8 km/h (1 Bft) O-SO 112 ° 0 min 9 W/m² 10,2 °C 15,2 °C 9,7 km/h (2 Bft)
21.04.2025 19:49 22,7 °C 15,2 °C 46 % 72 % 1011,4 hPa 0,0 l/m² 4,8 km/h (1 Bft) O-SO 112 ° 0 min 9 W/m² 10,2 °C 15,2 °C 6,4 km/h (2 Bft)
21.04.2025 19:50 22,7 °C 15,2 °C 46 % 73 % 1011,5 hPa 0,0 l/m² 4,8 km/h (1 Bft) O-SO 112 ° 0 min 9 W/m² 10,4 °C 15,2 °C 6,4 km/h (2 Bft)
21.04.2025 19:51 22,7 °C 15,1 °C 47 % 73 % 1011,4 hPa 0,0 l/m² 3,2 km/h (1 Bft) O-SO 112 ° 0 min 9 W/m² 10,3 °C 15,1 °C 4,8 km/h (1 Bft)
21.04.2025 19:52 22,7 °C 15,1 °C 47 % 73 % 1011,5 hPa 0,0 l/m² 4,8 km/h (1 Bft) O-SO 112 ° 0 min 9 W/m² 10,3 °C 15,1 °C 9,7 km/h (2 Bft)
21.04.2025 19:53 22,7 °C 15,0 °C 47 % 73 % 1011,5 hPa 0,0 l/m² 4,8 km/h (1 Bft) O-SO 112 ° 0 min 9 W/m² 10,2 °C 15,0 °C 6,4 km/h (2 Bft)
21.04.2025 19:54 22,7 °C 15,0 °C 47 % 73 % 1011,5 hPa 0,0 l/m² 6,4 km/h (2 Bft) O-SO 112 ° 0 min 9 W/m² 10,2 °C 15,0 °C 11,3 km/h (2 Bft)
21.04.2025 19:55 22,7 °C 14,9 °C 47 % 73 % 1011,4 hPa 0,0 l/m² 4,8 km/h (1 Bft) O-SO 112 ° 0 min 7 W/m² 10,1 °C 14,9 °C 6,4 km/h (2 Bft)
21.04.2025 19:56 22,7 °C 14,9 °C 47 % 73 % 1011,5 hPa 0,0 l/m² 4,8 km/h (1 Bft) O-SO 112 ° 0 min 7 W/m² 10,1 °C 14,9 °C 6,4 km/h (2 Bft)
21.04.2025 19:57 22,7 °C 14,9 °C 47 % 73 % 1011,5 hPa 0,0 l/m² 4,8 km/h (1 Bft) O-SO 112 ° 0 min 7 W/m² 10,1 °C 14,9 °C 6,4 km/h (2 Bft)
21.04.2025 19:58 22,7 °C 14,9 °C 47 % 73 % 1011,4 hPa 0,0 l/m² 6,4 km/h (2 Bft) O-SO 112 ° 0 min 7 W/m² 10,1 °C 14,9 °C 9,7 km/h (2 Bft)
21.04.2025 19:59 22,7 °C 14,8 °C 47 % 73 % 1011,5 hPa 0,0 l/m² 6,4 km/h (2 Bft) O-SO 112 ° 0 min 7 W/m² 10,0 °C 14,8 °C 9,7 km/h (2 Bft)
21.04.2025 20:00 22,7 °C 14,8 °C 47 % 73 % 1011,5 hPa 0,0 l/m² 6,4 km/h (2 Bft) O-SO 112 ° 0 min 7 W/m² 10,0 °C 14,8 °C 9,7 km/h (2 Bft)
21.04.2025 20:01 22,7 °C 14,8 °C 47 % 73 % 1011,5 hPa 0,0 l/m² 6,4 km/h (2 Bft) O-SO 112 ° 0 min 7 W/m² 10,0 °C 14,8 °C 9,7 km/h (2 Bft)
21.04.2025 20:02 22,7 °C 14,7 °C 47 % 72 % 1011,5 hPa 0,0 l/m² 4,8 km/h (1 Bft) O-SO 112 ° 0 min 7 W/m² 9,7 °C 14,7 °C 6,4 km/h (2 Bft)
21.04.2025 20:03 22,7 °C 14,8 °C 47 % 73 % 1011,5 hPa 0,0 l/m² 4,8 km/h (1 Bft) O-SO 112 ° 0 min 5 W/m² 10,0 °C 14,8 °C 6,4 km/h (2 Bft)
21.04.2025 20:04 22,7 °C 14,8 °C 47 % 72 % 1011,6 hPa 0,0 l/m² 4,8 km/h (1 Bft) O-SO 112 ° 0 min 5 W/m² 9,8 °C 14,8 °C 6,4 km/h (2 Bft)
21.04.2025 20:05 22,8 °C 14,8 °C 47 % 72 % 1011,5 hPa 0,0 l/m² 4,8 km/h (1 Bft) O-SO 112 ° 0 min 5 W/m² 9,8 °C 14,8 °C 6,4 km/h (2 Bft)
21.04.2025 20:06 22,7 °C 14,8 °C 47 % 72 % 1011,5 hPa 0,0 l/m² 4,8 km/h (1 Bft) O-SO 112 ° 0 min 5 W/m² 9,8 °C 14,8 °C 6,4 km/h (2 Bft)
21.04.2025 20:07 22,7 °C 14,8 °C 47 % 72 % 1011,6 hPa 0,0 l/m² 4,8 km/h (1 Bft) O-SO 112 ° 0 min 5 W/m² 9,8 °C 14,8 °C 4,8 km/h (1 Bft)
21.04.2025 20:08 22,7 °C 14,8 °C 47 % 73 % 1011,6 hPa 0,0 l/m² 3,2 km/h (1 Bft) O-SO 112 ° 0 min 5 W/m² 10,0 °C 14,8 °C 4,8 km/h (1 Bft)
21.04.2025 20:09 22,7 °C 14,8 °C 47 % 73 % 1011,6 hPa 0,0 l/m² 3,2 km/h (1 Bft) O-SO 112 ° 0 min 5 W/m² 10,0 °C 14,8 °C 4,8 km/h (1 Bft)
21.04.2025 20:10 22,8 °C 14,8 °C 48 % 73 % 1011,6 hPa 0,0 l/m² 4,8 km/h (1 Bft) O-SO 112 ° 0 min 5 W/m² 10,0 °C 14,8 °C 6,4 km/h (2 Bft)
21.04.2025 20:11 22,8 °C 14,8 °C 48 % 73 % 1011,5 hPa 0,0 l/m² 3,2 km/h (1 Bft) O-SO 112 ° 0 min 5 W/m² 10,0 °C 14,8 °C 4,8 km/h (1 Bft)
21.04.2025 20:12 22,8 °C 14,8 °C 48 % 73 % 1011,6 hPa 0,0 l/m² 3,2 km/h (1 Bft) O-SO 112 ° 0 min 5 W/m² 10,0 °C 14,8 °C 4,8 km/h (1 Bft)
21.04.2025 20:13 22,8 °C 14,7 °C 48 % 73 % 1011,5 hPa 0,0 l/m² 3,2 km/h (1 Bft) O-SO 112 ° 0 min 0 W/m² 9,9 °C 14,7 °C 4,8 km/h (1 Bft)
21.04.2025 20:14 22,8 °C 14,6 °C 48 % 74 % 1011,6 hPa 0,0 l/m² 1,6 km/h (1 Bft) O-SO 112 ° 0 min 0 W/m² 10,0 °C 14,6 °C 3,2 km/h (1 Bft)
21.04.2025 20:15 22,8 °C 14,6 °C 48 % 74 % 1011,5 hPa 0,0 l/m² 1,6 km/h (1 Bft) O-SO 112 ° 0 min 0 W/m² 10,0 °C 14,6 °C 1,6 km/h (1 Bft)
21.04.2025 20:16 22,8 °C 14,4 °C 48 % 75 % 1011,5 hPa 0,0 l/m² 3,2 km/h (1 Bft) O-SO 112 ° 0 min 0 W/m² 10,0 °C 14,4 °C 3,2 km/h (1 Bft)
21.04.2025 20:17 22,8 °C 14,3 °C 49 % 76 % 1011,5 hPa 0,0 l/m² 3,2 km/h (1 Bft) O-SO 112 ° 0 min 0 W/m² 10,1 °C 14,3 °C 3,2 km/h (1 Bft)
21.04.2025 20:18 22,8 °C 14,2 °C 49 % 77 % 1011,6 hPa 0,0 l/m² 3,2 km/h (1 Bft) O-SO 112 ° 0 min 0 W/m² 10,2 °C 14,2 °C 3,2 km/h (1 Bft)
21.04.2025 20:19 22,8 °C 14,2 °C 49 % 78 % 1011,6 hPa 0,0 l/m² 3,2 km/h (1 Bft) O-SO 112 ° 0 min 0 W/m² 10,4 °C 14,2 °C 4,8 km/h (1 Bft)
21.04.2025 20:20 22,8 °C 14,1 °C 49 % 78 % 1011,6 hPa 0,0 l/m² 3,2 km/h (1 Bft) O-SO 112 ° 0 min 0 W/m² 10,3 °C 14,1 °C 3,2 km/h (1 Bft)
21.04.2025 20:21 22,8 °C 13,9 °C 49 % 78 % 1011,7 hPa 0,0 l/m² 1,6 km/h (1 Bft) O-SO 112 ° 0 min 0 W/m² 10,1 °C 13,9 °C 3,2 km/h (1 Bft)
21.04.2025 20:22 22,8 °C 13,9 °C 49 % 79 % 1011,6 hPa 0,0 l/m² 1,6 km/h (1 Bft) O-SO 112 ° 0 min 0 W/m² 10,3 °C 13,9 °C 3,2 km/h (1 Bft)
21.04.2025 20:23 22,8 °C 13,8 °C 49 % 79 % 1011,6 hPa 0,0 l/m² 1,6 km/h (1 Bft) O-SO 112 ° 0 min 0 W/m² 10,2 °C 13,8 °C 3,2 km/h (1 Bft)
21.04.2025 20:24 22,9 °C 13,7 °C 49 % 80 % 1011,6 hPa 0,0 l/m² 1,6 km/h (1 Bft) O-SO 112 ° 0 min 0 W/m² 10,3 °C 13,7 °C 3,2 km/h (1 Bft)
21.04.2025 20:25 22,9 °C 13,7 °C 49 % 80 % 1011,6 hPa 0,0 l/m² 1,6 km/h (1 Bft) O-SO 112 ° 0 min 0 W/m² 10,3 °C 13,7 °C 3,2 km/h (1 Bft)
21.04.2025 20:26 22,9 °C 13,6 °C 49 % 80 % 1011,6 hPa 0,0 l/m² 1,6 km/h (1 Bft) O-SO 112 ° 0 min 0 W/m² 10,2 °C 13,6 °C 3,2 km/h (1 Bft)
21.04.2025 20:27 22,9 °C 13,5 °C 49 % 80 % 1011,6 hPa 0,0 l/m² 1,6 km/h (1 Bft) O-SO 112 ° 0 min 0 W/m² 10,1 °C 13,5 °C 3,2 km/h (1 Bft)
21.04.2025 20:28 22,9 °C 13,4 °C 50 % 81 % 1011,7 hPa 0,0 l/m² 1,6 km/h (1 Bft) O-SO 112 ° 0 min 0 W/m² 10,2 °C 13,4 °C 3,2 km/h (1 Bft)
21.04.2025 20:29 22,9 °C 13,3 °C 50 % 81 % 1011,7 hPa 0,0 l/m² 1,6 km/h (1 Bft) O-SO 112 ° 0 min 0 W/m² 10,1 °C 13,3 °C 3,2 km/h (1 Bft)
21.04.2025 20:30 22,9 °C 13,3 °C 50 % 81 % 1011,8 hPa 0,0 l/m² 1,6 km/h (1 Bft) O-SO 112 ° 0 min 0 W/m² 10,1 °C 13,3 °C 1,6 km/h (1 Bft)
21.04.2025 20:31 22,9 °C 13,2 °C 50 % 81 % 1011,8 hPa 0,0 l/m² 0,0 km/h (0 Bft) O-SO 112 ° 0 min 0 W/m² 10,0 °C 13,2 °C 1,6 km/h (1 Bft)
21.04.2025 20:32 22,9 °C 13,1 °C 50 % 82 % 1011,9 hPa 0,0 l/m² 0,0 km/h (0 Bft) N 0 ° 0 min 0 W/m² 10,1 °C 13,1 °C 0,0 km/h (0 Bft)
21.04.2025 20:33 22,9 °C 13,1 °C 51 % 82 % 1011,9 hPa 0,0 l/m² 3,2 km/h (1 Bft) S-SO 157 ° 0 min 0 W/m² 10,1 °C 13,1 °C 6,4 km/h (2 Bft)
21.04.2025 20:34 23,0 °C 13,0 °C 51 % 82 % 1012,0 hPa 0,0 l/m² 9,7 km/h (2 Bft) SW 225 ° 0 min 0 W/m² 10,0 °C 11,1 °C 14,5 km/h (3 Bft)
21.04.2025 20:35 22,9 °C 12,9 °C 51 % 81 % 1012,2 hPa 0,0 l/m² 8,0 km/h (2 Bft) SW 225 ° 0 min 0 W/m² 9,7 °C 11,9 °C 12,9 km/h (3 Bft)
21.04.2025 20:36 23,0 °C 12,8 °C 51 % 81 % 1012,1 hPa 0,0 l/m² 3,2 km/h (1 Bft) W-SW 247 ° 0 min 0 W/m² 9,6 °C 12,8 °C 6,4 km/h (2 Bft)
21.04.2025 20:37 23,0 °C 12,8 °C 51 % 81 % 1012,1 hPa 0,0 l/m² 6,4 km/h (2 Bft) W-SW 247 ° 0 min 0 W/m² 9,6 °C 12,8 °C 9,7 km/h (2 Bft)
21.04.2025 20:38 23,0 °C 12,8 °C 51 % 81 % 1012,2 hPa 0,0 l/m² 4,8 km/h (1 Bft) W-SW 247 ° 0 min 0 W/m² 9,6 °C 12,8 °C 6,4 km/h (2 Bft)
21.04.2025 20:39 23,0 °C 12,9 °C 51 % 81 % 1012,1 hPa 0,0 l/m² 3,2 km/h (1 Bft) W-SW 247 ° 0 min 0 W/m² 9,7 °C 12,9 °C 4,8 km/h (1 Bft)
21.04.2025 20:40 23,1 °C 12,9 °C 51 % 81 % 1012,2 hPa 0,0 l/m² 3,2 km/h (1 Bft) W-SW 247 ° 0 min 0 W/m² 9,7 °C 12,9 °C 4,8 km/h (1 Bft)
21.04.2025 20:41 23,1 °C 13,0 °C 51 % 80 % 1012,2 hPa 0,0 l/m² 3,2 km/h (1 Bft) W-SW 247 ° 0 min 0 W/m² 9,6 °C 13,0 °C 6,4 km/h (2 Bft)
21.04.2025 20:42 23,1 °C 13,1 °C 51 % 80 % 1012,2 hPa 0,0 l/m² 3,2 km/h (1 Bft) W-SW 247 ° 0 min 0 W/m² 9,7 °C 13,1 °C 4,8 km/h (1 Bft)
21.04.2025 20:43 23,1 °C 13,1 °C 52 % 80 % 1012,2 hPa 0,0 l/m² 4,8 km/h (1 Bft) W-SW 247 ° 0 min 0 W/m² 9,7 °C 13,1 °C 6,4 km/h (2 Bft)
21.04.2025 20:44 23,1 °C 13,1 °C 52 % 80 % 1012,3 hPa 0,0 l/m² 3,2 km/h (1 Bft) W-SW 247 ° 0 min 0 W/m² 9,7 °C 13,1 °C 4,8 km/h (1 Bft)
21.04.2025 20:45 23,1 °C 13,2 °C 52 % 79 % 1012,1 hPa 0,0 l/m² 1,6 km/h (1 Bft) W-SW 247 ° 0 min 0 W/m² 9,6 °C 13,2 °C 4,8 km/h (1 Bft)
21.04.2025 20:46 23,1 °C 13,2 °C 52 % 79 % 1012,1 hPa 0,0 l/m² 3,2 km/h (1 Bft) W-SW 247 ° 0 min 0 W/m² 9,6 °C 13,2 °C 4,8 km/h (1 Bft)
21.04.2025 20:47 23,1 °C 13,2 °C 52 % 79 % 1012,2 hPa 0,0 l/m² 4,8 km/h (1 Bft) W-SW 247 ° 0 min 0 W/m² 9,6 °C 13,2 °C 4,8 km/h (1 Bft)
21.04.2025 20:48 23,1 °C 13,3 °C 52 % 79 % 1012,4 hPa 0,0 l/m² 6,4 km/h (2 Bft) W-SW 247 ° 0 min 0 W/m² 9,7 °C 13,3 °C 6,4 km/h (2 Bft)
21.04.2025 20:49 23,1 °C 13,3 °C 52 % 79 % 1012,3 hPa 0,0 l/m² 6,4 km/h (2 Bft) W-SW 247 ° 0 min 0 W/m² 9,7 °C 13,3 °C 6,4 km/h (2 Bft)
21.04.2025 20:50 23,1 °C 13,3 °C 52 % 79 % 1012,4 hPa 0,0 l/m² 4,8 km/h (1 Bft) W-SW 247 ° 0 min 0 W/m² 9,7 °C 13,3 °C 8,0 km/h (2 Bft)
21.04.2025 20:51 23,1 °C 13,4 °C 52 % 79 % 1012,3 hPa 0,0 l/m² 4,8 km/h (1 Bft) W-SW 247 ° 0 min 0 W/m² 9,8 °C 13,4 °C 6,4 km/h (2 Bft)
21.04.2025 20:52 23,2 °C 13,4 °C 52 % 79 % 1012,3 hPa 0,0 l/m² 1,6 km/h (1 Bft) W-SW 247 ° 0 min 0 W/m² 9,8 °C 13,4 °C 3,2 km/h (1 Bft)
21.04.2025 20:53 23,1 °C 13,3 °C 52 % 78 % 1012,4 hPa 0,0 l/m² 0,0 km/h (0 Bft) W-SW 247 ° 0 min 0 W/m² 9,5 °C 13,3 °C 1,6 km/h (1 Bft)
21.04.2025 20:54 23,2 °C 13,2 °C 52 % 78 % 1012,4 hPa 0,0 l/m² 0,0 km/h (0 Bft) N 0 ° 0 min 0 W/m² 9,4 °C 13,2 °C 0,0 km/h (0 Bft)
21.04.2025 20:55 23,1 °C 13,1 °C 52 % 78 % 1012,4 hPa 0,0 l/m² 0,0 km/h (0 Bft) N 0 ° 0 min 0 W/m² 9,4 °C 13,1 °C 0,0 km/h (0 Bft)
21.04.2025 20:56 23,2 °C 13,1 °C 52 % 79 % 1012,4 hPa 0,0 l/m² 0,0 km/h (0 Bft) W-SW 247 ° 0 min 0 W/m² 9,5 °C 13,1 °C 1,6 km/h (1 Bft)
21.04.2025 20:57 23,2 °C 13,1 °C 52 % 79 % 1012,4 hPa 0,0 l/m² 0,0 km/h (0 Bft) W-SW 247 ° 0 min 0 W/m² 9,5 °C 13,1 °C 1,6 km/h (1 Bft)
21.04.2025 20:58 23,2 °C 13,2 °C 52 % 80 % 1012,4 hPa 0,0 l/m² 0,0 km/h (0 Bft) N 0 ° 0 min 0 W/m² 9,8 °C 13,2 °C 0,0 km/h (0 Bft)
21.04.2025 20:59 23,2 °C 13,3 °C 52 % 79 % 1012,3 hPa 0,0 l/m² 0,0 km/h (0 Bft) N 0 ° 0 min 0 W/m² 9,7 °C 13,3 °C 0,0 km/h (0 Bft)
21.04.2025 21:00 23,2 °C 13,3 °C 52 % 79 % 1012,5 hPa 0,0 l/m² 0,0 km/h (0 Bft) N 0 ° 0 min 0 W/m² 9,7 °C 13,3 °C 0,0 km/h (0 Bft)
21.04.2025 21:01 23,2 °C 13,4 °C 52 % 79 % 1012,5 hPa 0,0 l/m² 0,0 km/h (0 Bft) N 0 ° 0 min 0 W/m² 9,8 °C 13,4 °C 0,0 km/h (0 Bft)
21.04.2025 21:02 23,2 °C 13,4 °C 52 % 79 % 1012,5 hPa 0,0 l/m² 0,0 km/h (0 Bft) N 0 ° 0 min 0 W/m² 9,8 °C 13,4 °C 0,0 km/h (0 Bft)
21.04.2025 21:03 23,2 °C 13,4 °C 52 % 79 % 1012,5 hPa 0,0 l/m² 0,0 km/h (0 Bft) W-SW 247 ° 0 min 0 W/m² 9,8 °C 13,4 °C 1,6 km/h (1 Bft)
21.04.2025 21:04 23,2 °C 13,4 °C 52 % 79 % 1012,5 hPa 0,0 l/m² 0,0 km/h (0 Bft) W-SW 247 ° 0 min 0 W/m² 9,8 °C 13,4 °C 1,6 km/h (1 Bft)
21.04.2025 21:05 23,2 °C 13,4 °C 52 % 79 % 1012,5 hPa 0,0 l/m² 0,0 km/h (0 Bft) W-SW 247 ° 0 min 0 W/m² 9,8 °C 13,4 °C 1,6 km/h (1 Bft)
21.04.2025 21:06 23,2 °C 13,4 °C 52 % 79 % 1012,5 hPa 0,0 l/m² 1,6 km/h (1 Bft) W-SW 247 ° 0 min 0 W/m² 9,8 °C 13,4 °C 3,2 km/h (1 Bft)
21.04.2025 21:07 23,2 °C 13,6 °C 52 % 79 % 1012,6 hPa 0,0 l/m² 0,0 km/h (0 Bft) W-SW 247 ° 0 min 0 W/m² 10,0 °C 13,6 °C 1,6 km/h (1 Bft)
21.04.2025 21:08 23,2 °C 13,6 °C 52 % 79 % 1012,5 hPa 0,0 l/m² 0,0 km/h (0 Bft) N 0 ° 0 min 0 W/m² 10,0 °C 13,6 °C 0,0 km/h (0 Bft)
21.04.2025 21:09 23,2 °C 13,6 °C 52 % 79 % 1012,5 hPa 0,0 l/m² 0,0 km/h (0 Bft) W-SW 247 ° 0 min 0 W/m² 10,0 °C 13,6 °C 3,2 km/h (1 Bft)
21.04.2025 21:10 23,2 °C 13,6 °C 52 % 78 % 1012,6 hPa 0,0 l/m² 0,0 km/h (0 Bft) W-SW 247 ° 0 min 0 W/m² 9,8 °C 13,6 °C 1,6 km/h (1 Bft)
21.04.2025 21:11 23,2 °C 13,4 °C 52 % 78 % 1012,6 hPa 0,0 l/m² 0,0 km/h (0 Bft) N 0 ° 0 min 0 W/m² 9,6 °C 13,4 °C 0,0 km/h (0 Bft)
21.04.2025 21:12 23,2 °C 13,3 °C 52 % 79 % 1012,7 hPa 0,0 l/m² 0,0 km/h (0 Bft) N 0 ° 0 min 0 W/m² 9,7 °C 13,3 °C 0,0 km/h (0 Bft)
21.04.2025 21:13 23,2 °C 13,2 °C 52 % 79 % 1012,7 hPa 0,0 l/m² 0,0 km/h (0 Bft) N 0 ° 0 min 0 W/m² 9,6 °C 13,2 °C 0,0 km/h (0 Bft)
21.04.2025 21:14 23,2 °C 13,2 °C 52 % 79 % 1012,6 hPa 0,0 l/m² 0,0 km/h (0 Bft) N 0 ° 0 min 0 W/m² 9,6 °C 13,2 °C 0,0 km/h (0 Bft)
21.04.2025 21:15 23,2 °C 13,1 °C 52 % 80 % 1012,6 hPa 0,0 l/m² 0,0 km/h (0 Bft) N 0 ° 0 min 0 W/m² 9,7 °C 13,1 °C 0,0 km/h (0 Bft)
21.04.2025 21:16 23,2 °C 13,0 °C 52 % 81 % 1012,7 hPa 0,0 l/m² 0,0 km/h (0 Bft) N 0 ° 0 min 0 W/m² 9,8 °C 13,0 °C 0,0 km/h (0 Bft)
21.04.2025 21:17 23,2 °C 13,0 °C 52 % 82 % 1012,7 hPa 0,0 l/m² 0,0 km/h (0 Bft) N 0 ° 0 min 0 W/m² 10,0 °C 13,0 °C 0,0 km/h (0 Bft)
21.04.2025 21:18 23,2 °C 12,9 °C 52 % 82 % 1012,7 hPa 0,0 l/m² 0,0 km/h (0 Bft) W-SW 247 ° 0 min 0 W/m² 9,9 °C 12,9 °C 1,6 km/h (1 Bft)
21.04.2025 21:19 23,2 °C 12,9 °C 51 % 82 % 1012,7 hPa 0,0 l/m² 0,0 km/h (0 Bft) N 0 ° 0 min 0 W/m² 9,9 °C 12,9 °C 0,0 km/h (0 Bft)
21.04.2025 21:20 23,2 °C 13,0 °C 51 % 82 % 1012,7 hPa 0,0 l/m² 0,0 km/h (0 Bft) N 0 ° 0 min 0 W/m² 10,0 °C 13,0 °C 0,0 km/h (0 Bft)
21.04.2025 21:21 23,2 °C 12,9 °C 51 % 82 % 1012,7 hPa 0,0 l/m² 0,0 km/h (0 Bft) N 0 ° 0 min 0 W/m² 9,9 °C 12,9 °C 0,0 km/h (0 Bft)
21.04.2025 21:22 23,2 °C 13,0 °C 51 % 82 % 1012,7 hPa 0,0 l/m² 0,0 km/h (0 Bft) N 0 ° 0 min 0 W/m² 10,0 °C 13,0 °C 0,0 km/h (0 Bft)
21.04.2025 21:23 23,2 °C 13,0 °C 51 % 81 % 1012,7 hPa 0,0 l/m² 0,0 km/h (0 Bft) N 0 ° 0 min 0 W/m² 9,8 °C 13,0 °C 0,0 km/h (0 Bft)
21.04.2025 21:24 23,2 °C 13,1 °C 51 % 81 % 1012,7 hPa 0,0 l/m² 0,0 km/h (0 Bft) N 0 ° 0 min 0 W/m² 9,9 °C 13,1 °C 0,0 km/h (0 Bft)
21.04.2025 21:25 23,2 °C 13,1 °C 51 % 81 % 1012,7 hPa 0,0 l/m² 0,0 km/h (0 Bft) N 0 ° 0 min 0 W/m² 9,9 °C 13,1 °C 0,0 km/h (0 Bft)
21.04.2025 21:26 23,2 °C 13,1 °C 51 % 80 % 1012,8 hPa 0,0 l/m² 0,0 km/h (0 Bft) N 0 ° 0 min 0 W/m² 9,7 °C 13,1 °C 0,0 km/h (0 Bft)
21.04.2025 21:27 23,2 °C 13,2 °C 51 % 80 % 1012,7 hPa 0,0 l/m² 0,0 km/h (0 Bft) N 0 ° 0 min 0 W/m² 9,8 °C 13,2 °C 0,0 km/h (0 Bft)
21.04.2025 21:28 23,2 °C 13,2 °C 51 % 81 % 1012,8 hPa 0,0 l/m² 0,0 km/h (0 Bft) N 0 ° 0 min 0 W/m² 10,0 °C 13,2 °C 0,0 km/h (0 Bft)
21.04.2025 21:29 23,2 °C 13,1 °C 51 % 80 % 1012,7 hPa 0,0 l/m² 0,0 km/h (0 Bft) N 0 ° 0 min 0 W/m² 9,7 °C 13,1 °C 0,0 km/h (0 Bft)
21.04.2025 21:30 23,2 °C 13,1 °C 51 % 81 % 1012,7 hPa 0,0 l/m² 0,0 km/h (0 Bft) N 0 ° 0 min 0 W/m² 9,9 °C 13,1 °C 0,0 km/h (0 Bft)
21.04.2025 21:31 23,2 °C 12,9 °C 51 % 81 % 1012,8 hPa 0,0 l/m² 0,0 km/h (0 Bft) N 0 ° 0 min 0 W/m² 9,7 °C 12,9 °C 0,0 km/h (0 Bft)
21.04.2025 21:32 23,2 °C 12,8 °C 51 % 82 % 1012,7 hPa 0,0 l/m² 0,0 km/h (0 Bft) N 0 ° 0 min 0 W/m² 9,8 °C 12,8 °C 0,0 km/h (0 Bft)
21.04.2025 21:33 23,2 °C 12,7 °C 51 % 82 % 1012,8 hPa 0,0 l/m² 0,0 km/h (0 Bft) N 0 ° 0 min 0 W/m² 9,7 °C 12,7 °C 0,0 km/h (0 Bft)
21.04.2025 21:34 23,2 °C 12,6 °C 51 % 83 % 1012,7 hPa 0,0 l/m² 0,0 km/h (0 Bft) N 0 ° 0 min 0 W/m² 9,8 °C 12,6 °C 0,0 km/h (0 Bft)
21.04.2025 21:35 23,2 °C 12,6 °C 51 % 84 % 1012,8 hPa 0,0 l/m² 0,0 km/h (0 Bft) N 0 ° 0 min 0 W/m² 10,0 °C 12,6 °C 0,0 km/h (0 Bft)
21.04.2025 21:36 23,2 °C 12,5 °C 51 % 84 % 1012,8 hPa 0,0 l/m² 0,0 km/h (0 Bft) N 0 ° 0 min 0 W/m² 9,9 °C 12,5 °C 0,0 km/h (0 Bft)
21.04.2025 21:37 23,2 °C 12,4 °C 51 % 84 % 1012,8 hPa 0,0 l/m² 0,0 km/h (0 Bft) N 0 ° 0 min 0 W/m² 9,8 °C 12,4 °C 0,0 km/h (0 Bft)
21.04.2025 21:38 23,2 °C 12,4 °C 51 % 85 % 1012,8 hPa 0,0 l/m² 0,0 km/h (0 Bft) N 0 ° 0 min 0 W/m² 9,9 °C 12,4 °C 0,0 km/h (0 Bft)
21.04.2025 21:39 23,2 °C 12,4 °C 51 % 85 % 1012,7 hPa 0,0 l/m² 0,0 km/h (0 Bft) N 0 ° 0 min 0 W/m² 9,9 °C 12,4 °C 0,0 km/h (0 Bft)
21.04.2025 21:40 23,2 °C 12,4 °C 51 % 85 % 1012,7 hPa 0,0 l/m² 0,0 km/h (0 Bft) N 0 ° 0 min 0 W/m² 9,9 °C 12,4 °C 0,0 km/h (0 Bft)
21.04.2025 21:41 23,2 °C 12,4 °C 51 % 85 % 1012,9 hPa 0,0 l/m² 0,0 km/h (0 Bft) N 0 ° 0 min 0 W/m² 9,9 °C 12,4 °C 0,0 km/h (0 Bft)
21.04.2025 21:42 23,2 °C 12,4 °C 51 % 85 % 1012,8 hPa 0,0 l/m² 0,0 km/h (0 Bft) N 0 ° 0 min 0 W/m² 9,9 °C 12,4 °C 0,0 km/h (0 Bft)
21.04.2025 21:43 23,2 °C 12,4 °C 51 % 85 % 1012,8 hPa 0,0 l/m² 0,0 km/h (0 Bft) N 0 ° 0 min 0 W/m² 9,9 °C 12,4 °C 0,0 km/h (0 Bft)
21.04.2025 21:44 23,2 °C 12,5 °C 51 % 85 % 1012,8 hPa 0,0 l/m² 0,0 km/h (0 Bft) N 0 ° 0 min 0 W/m² 10,0 °C 12,5 °C 0,0 km/h (0 Bft)
21.04.2025 21:45 23,2 °C 12,5 °C 51 % 84 % 1012,8 hPa 0,0 l/m² 0,0 km/h (0 Bft) N 0 ° 0 min 0 W/m² 9,9 °C 12,5 °C 0,0 km/h (0 Bft)
21.04.2025 21:46 23,2 °C 12,6 °C 51 % 84 % 1012,9 hPa 0,0 l/m² 1,6 km/h (1 Bft) W-SW 247 ° 0 min 0 W/m² 10,0 °C 12,6 °C 3,2 km/h (1 Bft)
21.04.2025 21:47 23,2 °C 12,6 °C 51 % 84 % 1012,9 hPa 0,0 l/m² 0,0 km/h (0 Bft) N 0 ° 0 min 0 W/m² 10,0 °C 12,6 °C 0,0 km/h (0 Bft)
21.04.2025 21:48 23,2 °C 12,5 °C 51 % 83 % 1012,8 hPa 0,0 l/m² 1,6 km/h (1 Bft) W-SW 247 ° 0 min 0 W/m² 9,7 °C 12,5 °C 3,2 km/h (1 Bft)
21.04.2025 21:49 23,2 °C 12,4 °C 51 % 83 % 1012,8 hPa 0,0 l/m² 1,6 km/h (1 Bft) W-SW 247 ° 0 min 0 W/m² 9,6 °C 12,4 °C 3,2 km/h (1 Bft)
21.04.2025 21:50 23,2 °C 12,2 °C 51 % 83 % 1012,8 hPa 0,0 l/m² 0,0 km/h (0 Bft) W-SW 247 ° 0 min 0 W/m² 9,4 °C 12,2 °C 1,6 km/h (1 Bft)
21.04.2025 21:51 23,2 °C 12,1 °C 51 % 83 % 1012,8 hPa 0,0 l/m² 0,0 km/h (0 Bft) W-SW 247 ° 0 min 0 W/m² 9,3 °C 12,1 °C 1,6 km/h (1 Bft)
21.04.2025 21:52 23,2 °C 11,9 °C 51 % 83 % 1012,9 hPa 0,0 l/m² 3,2 km/h (1 Bft) W-SW 247 ° 0 min 0 W/m² 9,1 °C 11,9 °C 3,2 km/h (1 Bft)
21.04.2025 21:53 23,2 °C 11,8 °C 51 % 84 % 1012,8 hPa 0,0 l/m² 1,6 km/h (1 Bft) W-SW 247 ° 0 min 0 W/m² 9,2 °C 11,8 °C 3,2 km/h (1 Bft)
21.04.2025 21:54 23,2 °C 11,7 °C 51 % 85 % 1012,8 hPa 0,0 l/m² 0,0 km/h (0 Bft) W-SW 247 ° 0 min 0 W/m² 9,3 °C 11,7 °C 1,6 km/h (1 Bft)
21.04.2025 21:55 23,2 °C 11,7 °C 51 % 85 % 1012,8 hPa 0,0 l/m² 1,6 km/h (1 Bft) W-SW 247 ° 0 min 0 W/m² 9,3 °C 11,7 °C 3,2 km/h (1 Bft)
21.04.2025 21:56 23,2 °C 11,7 °C 51 % 86 % 1012,8 hPa 0,0 l/m² 0,0 km/h (0 Bft) W-SW 247 ° 0 min 0 W/m² 9,4 °C 11,7 °C 1,6 km/h (1 Bft)
21.04.2025 21:57 23,2 °C 11,7 °C 51 % 86 % 1012,9 hPa 0,0 l/m² 0,0 km/h (0 Bft) N 0 ° 0 min 0 W/m² 9,4 °C 11,7 °C 0,0 km/h (0 Bft)
21.04.2025 21:58 23,2 °C 11,7 °C 51 % 86 % 1012,8 hPa 0,0 l/m² 0,0 km/h (0 Bft) N 0 ° 0 min 0 W/m² 9,4 °C 11,7 °C 0,0 km/h (0 Bft)
21.04.2025 21:59 23,2 °C 11,7 °C 51 % 87 % 1012,9 hPa 0,0 l/m² 0,0 km/h (0 Bft) W-SW 247 ° 0 min 0 W/m² 9,6 °C 11,7 °C 1,6 km/h (1 Bft)
21.04.2025 22:00 23,2 °C 11,7 °C 51 % 87 % 1012,8 hPa 0,0 l/m² 0,0 km/h (0 Bft) N 0 ° 0 min 0 W/m² 9,6 °C 11,7 °C 0,0 km/h (0 Bft)
21.04.2025 22:01 23,1 °C 11,7 °C 51 % 87 % 1012,9 hPa 0,0 l/m² 0,0 km/h (0 Bft) N 0 ° 0 min 0 W/m² 9,6 °C 11,7 °C 0,0 km/h (0 Bft)
21.04.2025 22:02 23,1 °C 11,7 °C 50 % 87 % 1012,8 hPa 0,0 l/m² 0,0 km/h (0 Bft) W-SW 247 ° 0 min 0 W/m² 9,6 °C 11,7 °C 1,6 km/h (1 Bft)
21.04.2025 22:03 23,1 °C 11,7 °C 50 % 87 % 1012,8 hPa 0,0 l/m² 1,6 km/h (1 Bft) W-SW 247 ° 0 min 0 W/m² 9,6 °C 11,7 °C 3,2 km/h (1 Bft)
21.04.2025 22:04 23,1 °C 11,8 °C 50 % 87 % 1012,8 hPa 0,0 l/m² 1,6 km/h (1 Bft) W-SW 247 ° 0 min 0 W/m² 9,7 °C 11,8 °C 3,2 km/h (1 Bft)
21.04.2025 22:05 23,1 °C 11,8 °C 50 % 87 % 1012,9 hPa 0,0 l/m² 1,6 km/h (1 Bft) W-SW 247 ° 0 min 0 W/m² 9,7 °C 11,8 °C 3,2 km/h (1 Bft)
21.04.2025 22:06 23,1 °C 11,8 °C 50 % 87 % 1012,8 hPa 0,0 l/m² 1,6 km/h (1 Bft) W-SW 247 ° 0 min 0 W/m² 9,7 °C 11,8 °C 1,6 km/h (1 Bft)
21.04.2025 22:07 23,1 °C 11,7 °C 50 % 87 % 1012,8 hPa 0,0 l/m² 1,6 km/h (1 Bft) W-SW 247 ° 0 min 0 W/m² 9,6 °C 11,7 °C 3,2 km/h (1 Bft)
21.04.2025 22:08 23,1 °C 11,7 °C 50 % 87 % 1012,8 hPa 0,0 l/m² 0,0 km/h (0 Bft) W-SW 247 ° 0 min 0 W/m² 9,6 °C 11,7 °C 3,2 km/h (1 Bft)
21.04.2025 22:09 23,1 °C 11,7 °C 50 % 87 % 1012,8 hPa 0,0 l/m² 1,6 km/h (1 Bft) W-SW 247 ° 0 min 0 W/m² 9,6 °C 11,7 °C 3,2 km/h (1 Bft)
21.04.2025 22:10 23,1 °C 11,7 °C 50 % 87 % 1012,8 hPa 0,0 l/m² 1,6 km/h (1 Bft) W-SW 247 ° 0 min 0 W/m² 9,6 °C 11,7 °C 3,2 km/h (1 Bft)
21.04.2025 22:11 23,1 °C 11,7 °C 50 % 87 % 1012,8 hPa 0,0 l/m² 0,0 km/h (0 Bft) N 0 ° 0 min 0 W/m² 9,6 °C 11,7 °C 0,0 km/h (0 Bft)
21.04.2025 22:12 23,1 °C 11,7 °C 50 % 87 % 1012,7 hPa 0,0 l/m² 0,0 km/h (0 Bft) N 0 ° 0 min 0 W/m² 9,6 °C 11,7 °C 0,0 km/h (0 Bft)
21.04.2025 22:13 23,1 °C 11,6 °C 50 % 87 % 1012,8 hPa 0,0 l/m² 0,0 km/h (0 Bft) N 0 ° 0 min 0 W/m² 9,5 °C 11,6 °C 0,0 km/h (0 Bft)
21.04.2025 22:14 23,1 °C 11,7 °C 50 % 87 % 1012,8 hPa 0,0 l/m² 0,0 km/h (0 Bft) N 0 ° 0 min 0 W/m² 9,6 °C 11,7 °C 0,0 km/h (0 Bft)
21.04.2025 22:15 23,1 °C 11,7 °C 50 % 87 % 1012,8 hPa 0,0 l/m² 0,0 km/h (0 Bft) N 0 ° 0 min 0 W/m² 9,6 °C 11,7 °C 0,0 km/h (0 Bft)
21.04.2025 22:16 23,1 °C 11,7 °C 50 % 87 % 1012,8 hPa 0,0 l/m² 0,0 km/h (0 Bft) N 0 ° 0 min 0 W/m² 9,6 °C 11,7 °C 0,0 km/h (0 Bft)
21.04.2025 22:17 23,1 °C 11,8 °C 50 % 86 % 1012,8 hPa 0,0 l/m² 0,0 km/h (0 Bft) W-SW 247 ° 0 min 0 W/m² 9,5 °C 11,8 °C 1,6 km/h (1 Bft)
21.04.2025 22:18 23,1 °C 11,8 °C 50 % 86 % 1012,7 hPa 0,0 l/m² 0,0 km/h (0 Bft) W-SW 247 ° 0 min 0 W/m² 9,5 °C 11,8 °C 1,6 km/h (1 Bft)
21.04.2025 22:19 23,1 °C 11,9 °C 50 % 85 % 1012,8 hPa 0,0 l/m² 0,0 km/h (0 Bft) N 0 ° 0 min 0 W/m² 9,5 °C 11,9 °C 0,0 km/h (0 Bft)
21.04.2025 22:20 23,0 °C 12,1 °C 50 % 85 % 1012,8 hPa 0,0 l/m² 0,0 km/h (0 Bft) N 0 ° 0 min 0 W/m² 9,7 °C 12,1 °C 0,0 km/h (0 Bft)
21.04.2025 22:21 23,1 °C 12,1 °C 50 % 84 % 1012,8 hPa 0,0 l/m² 0,0 km/h (0 Bft) N 0 ° 0 min 0 W/m² 9,5 °C 12,1 °C 0,0 km/h (0 Bft)
21.04.2025 22:22 23,0 °C 12,2 °C 50 % 84 % 1012,7 hPa 0,0 l/m² 0,0 km/h (0 Bft) W-SW 247 ° 0 min 0 W/m² 9,6 °C 12,2 °C 1,6 km/h (1 Bft)
21.04.2025 22:23 23,0 °C 12,3 °C 50 % 83 % 1012,7 hPa 0,0 l/m² 0,0 km/h (0 Bft) W-SW 247 ° 0 min 0 W/m² 9,5 °C 12,3 °C 1,6 km/h (1 Bft)
21.04.2025 22:24 23,0 °C 12,3 °C 50 % 83 % 1012,7 hPa 0,0 l/m² 0,0 km/h (0 Bft) W-SW 247 ° 0 min 0 W/m² 9,5 °C 12,3 °C 1,6 km/h (1 Bft)
21.04.2025 22:25 23,0 °C 12,3 °C 50 % 83 % 1012,7 hPa 0,0 l/m² 0,0 km/h (0 Bft) W-SW 247 ° 0 min 0 W/m² 9,5 °C 12,3 °C 1,6 km/h (1 Bft)
21.04.2025 22:26 23,0 °C 12,3 °C 50 % 83 % 1012,7 hPa 0,0 l/m² 1,6 km/h (1 Bft) W-SW 247 ° 0 min 0 W/m² 9,5 °C 12,3 °C 1,6 km/h (1 Bft)
21.04.2025 22:27 23,0 °C 12,3 °C 50 % 83 % 1012,6 hPa 0,0 l/m² 0,0 km/h (0 Bft) N 0 ° 0 min 0 W/m² 9,5 °C 12,3 °C 0,0 km/h (0 Bft)
21.04.2025 22:28 23,0 °C 12,3 °C 50 % 83 % 1012,6 hPa 0,0 l/m² 0,0 km/h (0 Bft) N 0 ° 0 min 0 W/m² 9,5 °C 12,3 °C 0,0 km/h (0 Bft)
21.04.2025 22:29 22,9 °C 12,3 °C 50 % 83 % 1012,7 hPa 0,0 l/m² 0,0 km/h (0 Bft) N 0 ° 0 min 0 W/m² 9,5 °C 12,3 °C 0,0 km/h (0 Bft)
21.04.2025 22:30 23,0 °C 12,3 °C 50 % 82 % 1012,7 hPa 0,0 l/m² 0,0 km/h (0 Bft) N 0 ° 0 min 0 W/m² 9,3 °C 12,3 °C 0,0 km/h (0 Bft)
21.04.2025 22:31 23,0 °C 12,4 °C 50 % 82 % 1012,6 hPa 0,0 l/m² 0,0 km/h (0 Bft) N 0 ° 0 min 0 W/m² 9,4 °C 12,4 °C 0,0 km/h (0 Bft)
21.04.2025 22:32 22,9 °C 12,4 °C 50 % 82 % 1012,6 hPa 0,0 l/m² 0,0 km/h (0 Bft) N 0 ° 0 min 0 W/m² 9,4 °C 12,4 °C 0,0 km/h (0 Bft)
21.04.2025 22:33 23,0 °C 12,4 °C 50 % 81 % 1012,6 hPa 0,0 l/m² 0,0 km/h (0 Bft) N 0 ° 0 min 0 W/m² 9,2 °C 12,4 °C 0,0 km/h (0 Bft)
21.04.2025 22:34 22,9 °C 12,5 °C 50 % 81 % 1012,6 hPa 0,0 l/m² 0,0 km/h (0 Bft) N 0 ° 0 min 0 W/m² 9,3 °C 12,5 °C 0,0 km/h (0 Bft)
21.04.2025 22:35 22,9 °C 12,6 °C 50 % 81 % 1012,6 hPa 0,0 l/m² 0,0 km/h (0 Bft) N 0 ° 0 min 0 W/m² 9,4 °C 12,6 °C 0,0 km/h (0 Bft)
21.04.2025 22:36 23,0 °C 12,6 °C 50 % 81 % 1012,6 hPa 0,0 l/m² 0,0 km/h (0 Bft) N 0 ° 0 min 0 W/m² 9,4 °C 12,6 °C 0,0 km/h (0 Bft)
21.04.2025 22:37 22,9 °C 12,6 °C 50 % 81 % 1012,6 hPa 0,0 l/m² 0,0 km/h (0 Bft) N 0 ° 0 min 0 W/m² 9,4 °C 12,6 °C 0,0 km/h (0 Bft)
21.04.2025 22:38 22,9 °C 12,7 °C 50 % 81 % 1012,7 hPa 0,0 l/m² 0,0 km/h (0 Bft) N 0 ° 0 min 0 W/m² 9,5 °C 12,7 °C 0,0 km/h (0 Bft)
21.04.2025 22:39 22,9 °C 12,6 °C 50 % 81 % 1012,6 hPa 0,0 l/m² 0,0 km/h (0 Bft) N 0 ° 0 min 0 W/m² 9,4 °C 12,6 °C 0,0 km/h (0 Bft)
21.04.2025 22:40 22,9 °C 12,6 °C 50 % 81 % 1012,7 hPa 0,0 l/m² 0,0 km/h (0 Bft) N 0 ° 0 min 0 W/m² 9,4 °C 12,6 °C 0,0 km/h (0 Bft)
21.04.2025 22:41 22,9 °C 12,5 °C 50 % 81 % 1012,7 hPa 0,0 l/m² 0,0 km/h (0 Bft) W-SW 247 ° 0 min 0 W/m² 9,3 °C 12,5 °C 1,6 km/h (1 Bft)
21.04.2025 22:42 22,9 °C 12,4 °C 50 % 81 % 1012,7 hPa 0,0 l/m² 0,0 km/h (0 Bft) N 0 ° 0 min 0 W/m² 9,2 °C 12,4 °C 0,0 km/h (0 Bft)
21.04.2025 22:43 22,9 °C 12,3 °C 50 % 82 % 1012,7 hPa 0,0 l/m² 0,0 km/h (0 Bft) W-SW 247 ° 0 min 0 W/m² 9,3 °C 12,3 °C 1,6 km/h (1 Bft)
21.04.2025 22:44 22,9 °C 12,3 °C 50 % 83 % 1012,8 hPa 0,0 l/m² 0,0 km/h (0 Bft) N 0 ° 0 min 0 W/m² 9,5 °C 12,3 °C 0,0 km/h (0 Bft)
21.04.2025 22:45 22,9 °C 12,2 °C 50 % 83 % 1012,7 hPa 0,0 l/m² 0,0 km/h (0 Bft) N 0 ° 0 min 0 W/m² 9,4 °C 12,2 °C 0,0 km/h (0 Bft)
21.04.2025 22:46 22,9 °C 12,2 °C 50 % 84 % 1012,7 hPa 0,0 l/m² 0,0 km/h (0 Bft) N 0 ° 0 min 0 W/m² 9,6 °C 12,2 °C 0,0 km/h (0 Bft)
21.04.2025 22:47 22,9 °C 12,2 °C 50 % 84 % 1012,7 hPa 0,0 l/m² 0,0 km/h (0 Bft) N 0 ° 0 min 0 W/m² 9,6 °C 12,2 °C 0,0 km/h (0 Bft)
21.04.2025 22:48 22,9 °C 12,2 °C 50 % 84 % 1012,8 hPa 0,0 l/m² 0,0 km/h (0 Bft) N 0 ° 0 min 0 W/m² 9,6 °C 12,2 °C 0,0 km/h (0 Bft)
21.04.2025 22:49 22,9 °C 12,2 °C 50 % 84 % 1012,8 hPa 0,0 l/m² 0,0 km/h (0 Bft) N 0 ° 0 min 0 W/m² 9,6 °C 12,2 °C 0,0 km/h (0 Bft)
21.04.2025 22:50 22,9 °C 12,3 °C 50 % 83 % 1012,8 hPa 0,0 l/m² 0,0 km/h (0 Bft) N 0 ° 0 min 0 W/m² 9,5 °C 12,3 °C 0,0 km/h (0 Bft)
21.04.2025 22:51 22,9 °C 12,3 °C 50 % 83 % 1012,8 hPa 0,0 l/m² 0,0 km/h (0 Bft) N 0 ° 0 min 0 W/m² 9,5 °C 12,3 °C 0,0 km/h (0 Bft)
21.04.2025 22:52 22,9 °C 12,3 °C 50 % 83 % 1012,8 hPa 0,0 l/m² 0,0 km/h (0 Bft) N 0 ° 0 min 0 W/m² 9,5 °C 12,3 °C 0,0 km/h (0 Bft)
21.04.2025 22:53 22,9 °C 12,3 °C 50 % 83 % 1012,7 hPa 0,0 l/m² 0,0 km/h (0 Bft) N 0 ° 0 min 0 W/m² 9,5 °C 12,3 °C 0,0 km/h (0 Bft)
21.04.2025 22:54 22,9 °C 12,3 °C 50 % 83 % 1012,8 hPa 0,0 l/m² 0,0 km/h (0 Bft) N 0 ° 0 min 0 W/m² 9,5 °C 12,3 °C 0,0 km/h (0 Bft)
21.04.2025 22:55 22,9 °C 12,3 °C 50 % 83 % 1012,9 hPa 0,0 l/m² 0,0 km/h (0 Bft) N 0 ° 0 min 0 W/m² 9,5 °C 12,3 °C 0,0 km/h (0 Bft)
21.04.2025 22:56 22,8 °C 12,3 °C 50 % 83 % 1012,9 hPa 0,0 l/m² 0,0 km/h (0 Bft) N 0 ° 0 min 0 W/m² 9,5 °C 12,3 °C 0,0 km/h (0 Bft)
21.04.2025 22:57 22,9 °C 12,4 °C 50 % 83 % 1012,9 hPa 0,0 l/m² 0,0 km/h (0 Bft) W-SW 247 ° 0 min 0 W/m² 9,6 °C 12,4 °C 1,6 km/h (1 Bft)
21.04.2025 22:58 22,8 °C 12,4 °C 50 % 83 % 1012,9 hPa 0,0 l/m² 1,6 km/h (1 Bft) W-SW 247 ° 0 min 0 W/m² 9,6 °C 12,4 °C 6,4 km/h (2 Bft)
21.04.2025 22:59 22,9 °C 12,4 °C 50 % 83 % 1013,1 hPa 0,0 l/m² 6,4 km/h (2 Bft) W-SW 247 ° 0 min 0 W/m² 9,6 °C 12,4 °C 11,3 km/h (2 Bft)
21.04.2025 23:00 22,9 °C 12,4 °C 50 % 83 % 1013,1 hPa 0,0 l/m² 11,3 km/h (2 Bft) W-SW 247 ° 0 min 0 W/m² 9,6 °C 9,6 °C 14,5 km/h (3 Bft)
21.04.2025 23:01 22,9 °C 12,3 °C 50 % 83 % 1013,2 hPa 0,0 l/m² 12,9 km/h (3 Bft) SW 225 ° 0 min 0 W/m² 9,5 °C 8,8 °C 16,1 km/h (3 Bft)
21.04.2025 23:02 22,8 °C 12,3 °C 50 % 84 % 1013,3 hPa 0,0 l/m² 16,1 km/h (3 Bft) SW 225 ° 0 min 0 W/m² 9,7 °C 7,5 °C 20,9 km/h (4 Bft)
21.04.2025 23:03 22,8 °C 12,2 °C 50 % 84 % 1013,2 hPa 0,0 l/m² 14,5 km/h (3 Bft) SW 225 ° 0 min 0 W/m² 9,6 °C 8,0 °C 20,9 km/h (4 Bft)
21.04.2025 23:04 22,8 °C 12,2 °C 50 % 84 % 1013,4 hPa 0,0 l/m² 12,9 km/h (3 Bft) SW 225 ° 0 min 0 W/m² 9,6 °C 8,6 °C 22,5 km/h (4 Bft)
21.04.2025 23:05 22,8 °C 12,3 °C 50 % 84 % 1013,4 hPa 0,0 l/m² 11,3 km/h (2 Bft) SW 225 ° 0 min 0 W/m² 9,7 °C 9,5 °C 17,7 km/h (3 Bft)
21.04.2025 23:06 22,8 °C 12,3 °C 50 % 84 % 1013,3 hPa 0,0 l/m² 11,3 km/h (2 Bft) SW 225 ° 0 min 0 W/m² 9,7 °C 9,5 °C 14,5 km/h (3 Bft)
21.04.2025 23:07 22,8 °C 12,3 °C 50 % 84 % 1013,3 hPa 0,0 l/m² 9,7 km/h (2 Bft) SW 225 ° 0 min 0 W/m² 9,7 °C 10,3 °C 14,5 km/h (3 Bft)
21.04.2025 23:08 22,8 °C 12,4 °C 50 % 84 % 1013,3 hPa 0,0 l/m² 8,0 km/h (2 Bft) W-SW 247 ° 0 min 0 W/m² 9,8 °C 11,4 °C 14,5 km/h (3 Bft)
21.04.2025 23:09 22,8 °C 12,4 °C 50 % 84 % 1013,3 hPa 0,0 l/m² 9,7 km/h (2 Bft) SW 225 ° 0 min 0 W/m² 9,8 °C 10,4 °C 12,9 km/h (3 Bft)
21.04.2025 23:10 22,8 °C 12,5 °C 50 % 84 % 1013,4 hPa 0,0 l/m² 9,7 km/h (2 Bft) SW 225 ° 0 min 0 W/m² 9,9 °C 10,5 °C 12,9 km/h (3 Bft)
21.04.2025 23:11 22,8 °C 12,6 °C 50 % 84 % 1013,5 hPa 0,0 l/m² 9,7 km/h (2 Bft) SW 225 ° 0 min 0 W/m² 10,0 °C 10,6 °C 12,9 km/h (3 Bft)
21.04.2025 23:12 22,8 °C 12,6 °C 50 % 84 % 1013,4 hPa 0,0 l/m² 11,3 km/h (2 Bft) W-SW 247 ° 0 min 0 W/m² 10,0 °C 9,8 °C 14,5 km/h (3 Bft)
21.04.2025 23:13 22,8 °C 12,6 °C 50 % 83 % 1013,4 hPa 0,0 l/m² 12,9 km/h (3 Bft) W-SW 247 ° 0 min 0 W/m² 9,8 °C 9,1 °C 17,7 km/h (3 Bft)
21.04.2025 23:14 22,8 °C 12,6 °C 50 % 83 % 1013,4 hPa 0,0 l/m² 12,9 km/h (3 Bft) W-SW 247 ° 0 min 0 W/m² 9,8 °C 9,1 °C 16,1 km/h (3 Bft)
21.04.2025 23:15 22,8 °C 12,7 °C 50 % 83 % 1013,4 hPa 0,0 l/m² 17,7 km/h (3 Bft) W-SW 247 ° 0 min 0 W/m² 9,9 °C 7,5 °C 24,1 km/h (4 Bft)
21.04.2025 23:16 22,8 °C 12,7 °C 50 % 83 % 1013,5 hPa 0,0 l/m² 14,5 km/h (3 Bft) W-SW 247 ° 0 min 0 W/m² 9,9 °C 8,6 °C 19,3 km/h (3 Bft)
21.04.2025 23:22 22,8 °C 12,8 °C 50 % 82 % 1013,5 hPa 0,0 l/m² 12,5 km/h (2 Bft) W-SW 238 ° 0 min 0 W/m² 9,8 °C 9,5 °C 14,5 km/h (3 Bft)
21.04.2025 23:24 22,8 °C 12,8 °C 50 % 82 % 1013,5 hPa 0,0 l/m² 10,8 km/h (2 Bft) W-SW 246 ° 0 min 0 W/m² 9,8 °C 10,3 °C 16,1 km/h (3 Bft)
21.04.2025 23:25 22,8 °C 12,8 °C 50 % 82 % 1013,5 hPa 0,0 l/m² 9,4 km/h (2 Bft) SW 232 ° 0 min 0 W/m² 9,8 °C 11,0 °C 14,5 km/h (3 Bft)
21.04.2025 23:27 22,8 °C 12,7 °C 50 % 82 % 1013,6 hPa 0,0 l/m² 9,6 km/h (2 Bft) SW 236 ° 0 min 0 W/m² 9,7 °C 10,8 °C 17,7 km/h (3 Bft)
21.04.2025 23:29 22,8 °C 12,7 °C 50 % 82 % 1013,6 hPa 0,0 l/m² 10,1 km/h (2 Bft) W-SW 254 ° 0 min 0 W/m² 9,7 °C 10,5 °C 14,5 km/h (3 Bft)
21.04.2025 23:30 22,8 °C 12,7 °C 50 % 82 % 1013,6 hPa 0,0 l/m² 14,1 km/h (3 Bft) SW 229 ° 0 min 0 W/m² 9,7 °C 8,7 °C 20,9 km/h (4 Bft)
21.04.2025 23:31 22,8 °C 12,7 °C 50 % 82 % 1013,6 hPa 0,0 l/m² 12,5 km/h (2 Bft) SW 226 ° 0 min 0 W/m² 9,7 °C 9,4 °C 19,3 km/h (3 Bft)
21.04.2025 23:32 22,8 °C 12,8 °C 50 % 82 % 1013,6 hPa 0,0 l/m² 11,9 km/h (2 Bft) SW 231 ° 0 min 0 W/m² 9,8 °C 9,8 °C 16,1 km/h (3 Bft)
21.04.2025 23:35 22,8 °C 12,8 °C 51 % 82 % 1013,6 hPa 0,0 l/m² 11,2 km/h (2 Bft) SW 233 ° 0 min 0 W/m² 9,8 °C 10,1 °C 17,7 km/h (3 Bft)
21.04.2025 23:37 22,8 °C 12,8 °C 50 % 81 % 1013,6 hPa 0,0 l/m² 9,9 km/h (2 Bft) SW 235 ° 0 min 0 W/m² 9,6 °C 10,7 °C 12,9 km/h (3 Bft)
21.04.2025 23:39 22,8 °C 12,8 °C 50 % 81 % 1013,5 hPa 0,0 l/m² 12,9 km/h (3 Bft) W-SW 250 ° 0 min 0 W/m² 9,6 °C 9,4 °C 17,7 km/h (3 Bft)
21.04.2025 23:40 22,8 °C 12,8 °C 50 % 81 % 1013,5 hPa 0,0 l/m² 13,4 km/h (3 Bft) W-SW 246 ° 0 min 0 W/m² 9,6 °C 9,1 °C 17,7 km/h (3 Bft)
21.04.2025 23:41 22,7 °C 12,8 °C 51 % 81 % 1013,5 hPa 0,0 l/m² 13,0 km/h (3 Bft) SW 231 ° 0 min 0 W/m² 9,6 °C 9,3 °C 17,7 km/h (3 Bft)
21.04.2025 23:42 22,8 °C 12,8 °C 51 % 81 % 1013,5 hPa 0,0 l/m² 13,9 km/h (3 Bft) SW 226 ° 0 min 0 W/m² 9,6 °C 8,9 °C 17,7 km/h (3 Bft)
21.04.2025 23:43 22,7 °C 12,8 °C 50 % 81 % 1013,6 hPa 0,0 l/m² 13,9 km/h (3 Bft) W-SW 241 ° 0 min 0 W/m² 9,6 °C 8,9 °C 17,7 km/h (3 Bft)
21.04.2025 23:44 22,8 °C 12,8 °C 51 % 82 % 1013,6 hPa 0,0 l/m² 9,7 km/h (2 Bft) W-SW 240 ° 0 min 0 W/m² 9,8 °C 10,8 °C 12,9 km/h (3 Bft)
21.04.2025 23:46 22,7 °C 12,7 °C 51 % 82 % 1013,6 hPa 0,0 l/m² 9,9 km/h (2 Bft) S-SW 213 ° 0 min 0 W/m² 9,7 °C 10,6 °C 17,7 km/h (3 Bft)
21.04.2025 23:48 22,8 °C 12,7 °C 50 % 82 % 1013,6 hPa 0,0 l/m² 10,2 km/h (2 Bft) W-SW 246 ° 0 min 0 W/m² 9,7 °C 10,5 °C 14,5 km/h (3 Bft)
21.04.2025 23:50 22,7 °C 12,6 °C 51 % 82 % 1013,7 hPa 0,0 l/m² 9,0 km/h (2 Bft) W 259 ° 0 min 0 W/m² 9,6 °C 11,0 °C 12,9 km/h (3 Bft)
21.04.2025 23:51 22,7 °C 12,6 °C 51 % 82 % 1013,6 hPa 0,0 l/m² 9,1 km/h (2 Bft) W 262 ° 0 min 0 W/m² 9,6 °C 10,9 °C 12,9 km/h (3 Bft)
21.04.2025 23:52 22,7 °C 12,6 °C 51 % 82 % 1013,7 hPa 0,0 l/m² 9,0 km/h (2 Bft) W-SW 246 ° 0 min 0 W/m² 9,6 °C 11,0 °C 12,9 km/h (3 Bft)
21.04.2025 23:55 22,7 °C 12,5 °C 51 % 82 % 1013,7 hPa 0,0 l/m² 7,1 km/h (2 Bft) W-SW 247 ° 0 min 0 W/m² 9,5 °C 12,0 °C 12,9 km/h (3 Bft)
21.04.2025 23:57 22,7 °C 12,5 °C 51 % 83 % 1013,7 hPa 0,0 l/m² 5,8 km/h (2 Bft) W-SW 247 ° 0 min 0 W/m² 9,7 °C 12,5 °C 6,4 km/h (2 Bft)
21.04.2025 23:59 22,7 °C 12,4 °C 51 % 83 % 1013,7 hPa 0,0 l/m² 6,4 km/h (2 Bft) W 259 ° 0 min 0 W/m² 9,6 °C 12,4 °C 11,3 km/h (2 Bft)
_ Min-Zeit 19:31 06:46 17:10 16:46 02:28 - 22:57 - - - - 06:42 23:15 22:56
Minimum _ 22,6 °C 8,1 °C 42 % 43 % 1008,0 hPa - 0,0 km/h (0 Bft) - - - - 7,2 °C 7,5 °C 0,0 km/h (0 Bft)
_ Max-Zeit 00:30 16:39 21:18 07:09 23:59 09:27 23:15 - - 08:31 13:18 13:18 16:39 23:15
Maximum _ 23,4 °C 20,9 °C 52 % 96 % 1013,7 hPa 0,2 l/m² 17,7 km/h
W-SW (3 Bft)
- - 6 min 1041 W/m² 14,1 °C 20,9 °C 24,1 km/h
W-SW (4 Bft)
Durchschnitt _ 22,9 °C 14,0 °C 49 % 80 % 1010,4 hPa #2,0 l/m² 4,3 km/h (1 Bft) N - #11:30 h 222 W/m² 10,3 °C 13,6 °C 6,2 km/h (2 Bft)
© 2009 Mathias Hoßbach